[[{"header":{"parameterUnit":"m.s-1","parameterCategory":1,"la1":30.6,"la2":28.766,"lo1":-90.7593,"lo2":-88.6598,"dx":0.0162,"dy":0.0183,"nx":116,"ny":114,"refTime":"2023-01-26T06:00:00:Z","depth":0,"parameterNumber":2,"parameterNumberName":"U-component_of_WINDS"},"data":[0.0,0.0,0.0,0.0,0.0,0.0,0.0,0.0,0.0,0.0,0.0,0.0,0.0,0.0,0.0,0.0,0.0,0.0,0.0,0.0,0.0,0.0,0.0,0.0,0.0,0.0,0.0,0.0,0.0,0.0,0.0,0.0,0.0,0.0,0.0,0.0,0.0,0.0,0.0,0.0,0.0,0.0,0.0,0.0,0.0,0.0,0.0,0.0,0.0,0.0,0.0,0.0,0.0,0.0,0.0,0.0,0.0,0.0,0.0,0.0,0.0,0.0,0.0,0.0,0.0,0.0,0.0,0.0,0.0,0.0,0.0,0.0,0.0,0.0,0.0,0.0,0.0,0.0,0.0,0.0,0.0,0.0,0.0,0.0,0.0,0.0,0.0,0.0,0.0,0.0,0.0,0.0,0.0,0.0,0.0,0.0,0.0,0.0,0.0,0.0,0.0,0.0,0.0,0.0,0.0,0.0,0.0,0.0,0.0,0.0,0.0,0.0,0.0,0.0,0.0,0.0,0.0,0.0,0.0,0.0,0.0,0.0,0.0,0.0,0.0,0.0,0.0,0.0,0.0,0.0,0.0,0.0,0.0,0.0,0.0,0.0,0.0,0.0,0.0,0.0,0.0,0.0,0.0,0.0,0.0,0.0,0.0,0.0,0.0,0.0,0.0,0.0,0.0,0.0,0.0,0.0,0.0,0.0,0.0,0.0,0.0,0.0,0.0,0.0,0.0,0.0,0.0,0.0,0.0,0.0,0.0,0.0,0.0,0.0,0.0,0.0,0.0,0.0,0.0,0.0,0.0,0.0,0.0,0.0,0.0,0.0,0.0,0.0,0.0,0.0,0.0,0.0,0.0,0.0,0.0,0.0,0.0,0.0,0.0,0.0,0.0,0.0,0.0,0.0,0.0,0.0,0.0,0.0,0.0,0.0,0.0,0.0,0.0,0.0,0.0,0.0,0.0,0.0,0.0,0.0,0.0,0.0,0.0,0.0,0.0,0.0,0.0,0.0,0.0,0.0,0.0,0.0,0.0,0.0,0.0,0.0,0.0,0.0,0.0,0.0,0.0,0.0,0.0,0.0,0.0,0.0,0.0,0.0,0.0,0.0,0.0,0.0,0.0,0.0,0.0,0.0,0.0,0.0,0.0,0.0,0.0,0.0,0.0,0.0,0.0,0.0,0.0,0.0,0.0,0.0,0.0,0.0,0.0,0.0,0.0,0.0,0.0,0.0,0.0,0.0,0.0,0.0,0.0,0.0,0.0,0.0,0.0,0.0,0.0,0.0,0.0,0.0,0.0,0.0,0.0,0.0,0.0,0.0,0.0,0.0,0.0,0.0,0.0,0.0,0.0,0.0,0.0,0.0,0.0,0.0,0.0,0.0,0.0,0.0,0.0,0.0,0.0,0.0,0.0,0.0,0.0,0.0,0.0,0.0,0.0,0.0,0.0,0.0,0.0,0.0,0.0,0.0,0.0,0.0,0.0,0.0,0.0,0.0,0.0,0.0,0.0,0.0,0.0,0.0,0.0,0.0,0.0,0.0,0.0,0.0,0.0,0.0,0.0,0.0,0.0,0.0,0.0,0.0,0.0,0.0,0.0,0.0,0.0,0.0,0.0,0.0,0.0,0.0,0.0,0.0,0.0,0.0,0.0,0.0,0.0,0.0,0.0,0.0,0.0,0.0,0.0,0.0,0.0,0.0,0.0,0.0,0.0,0.0,0.0,0.0,0.0,0.0,0.0,0.0,0.0,0.0,0.0,0.0,0.0,0.0,0.0,0.0,0.0,0.0,0.0,0.0,0.0,0.0,0.0,0.0,0.0,0.0,0.0,0.0,0.0,0.0,0.0,0.0,0.0,0.0,0.0,0.0,0.0,0.0,0.0,0.0,0.0,0.0,0.0,0.0,0.0,0.0,0.0,0.0,0.0,0.0,0.0,0.0,0.0,0.0,0.0,0.0,0.0,0.0,0.0,0.0,0.0,0.0,0.0,0.0,0.0,0.0,0.0,0.0,0.0,0.0,0.0,0.0,0.0,0.0,0.0,0.0,0.0,0.0,0.0,0.0,0.0,0.0,0.0,0.0,0.0,0.0,0.0,0.0,0.0,0.0,0.0,0.0,0.0,0.0,0.0,0.0,0.0,0.0,0.0,0.0,0.0,0.0,0.0,0.0,0.0,0.0,0.0,0.0,0.0,0.0,0.0,0.0,0.0,0.0,0.0,0.0,0.0,0.0,0.0,0.0,0.0,0.0,0.0,0.0,0.0,0.0,0.0,0.0,0.0,0.0,0.0,0.0,0.0,0.0,0.0,0.0,0.0,0.0,0.0,0.0,0.0,0.0,0.0,0.0,0.0,0.0,0.0,0.0,0.0,0.0,0.0,0.0,0.0,0.0,0.0,0.0,0.0,0.0,0.0,0.0,0.0,0.0,0.0,0.0,0.0,0.0,0.0,0.0,0.0,0.0,0.0,0.0,0.0,0.0,0.0,0.0,0.0,0.0,0.0,0.0,0.0,0.0,0.0,0.0,0.0,0.0,0.0,0.0,0.0,0.0,0.0,0.0,0.0,0.0,0.0,0.0,0.0,0.0,0.0,0.0,0.0,0.0,0.0,0.0,0.0,0.0,0.0,0.0,0.0,0.0,0.0,0.0,0.0,0.0,0.0,0.0,0.0,0.0,0.0,0.0,0.0,0.0,0.0,0.0,0.0,0.0,0.0,0.0,0.0,0.0,0.0,0.0,0.0,0.0,0.0,0.0,0.0,0.0,0.0,0.0,0.0,0.0,0.0,0.0,0.0,0.0,0.0,0.0,0.0,0.0,0.0,0.0,0.0,0.0,0.0,0.0,0.0,0.0,0.0,0.0,0.0,0.0,0.0,0.0,0.0,0.0,0.0,0.0,0.0,0.0,0.0,0.0,0.0,0.0,0.0,0.0,0.0,0.0,0.0,0.0,0.0,0.0,0.0,0.0,0.0,0.0,0.0,0.0,0.0,0.0,0.0,0.0,0.0,0.0,0.0,0.0,0.0,0.0,0.0,0.0,0.0,0.0,0.0,0.0,0.0,0.0,0.0,0.0,0.0,0.0,0.0,0.0,0.0,0.0,0.0,0.0,0.0,0.0,0.0,0.0,0.0,0.0,0.0,0.0,0.0,0.0,0.0,0.0,0.0,0.0,0.0,0.0,0.0,0.0,0.0,0.0,0.0,0.0,0.0,0.0,0.0,0.0,0.0,0.0,0.0,0.0,0.0,0.0,0.0,0.0,0.0,0.0,0.0,0.0,0.0,0.0,0.0,0.0,0.0,0.0,0.0,0.0,0.0,0.0,0.0,0.0,0.0,0.0,0.0,0.0,0.0,0.0,0.0,0.0,0.0,0.0,0.0,0.0,0.0,0.0,0.0,0.0,0.0,0.0,0.0,0.0,0.0,0.0,0.0,0.0,0.0,0.0,0.0,0.0,0.0,0.0,0.0,0.0,0.0,0.0,0.0,0.0,0.0,0.0,0.0,0.0,0.0,0.0,0.0,0.0,0.0,0.0,0.0,0.0,0.0,0.0,0.0,0.0,0.0,0.0,0.0,0.0,0.0,0.0,0.0,0.0,0.0,0.0,0.0,0.0,0.0,0.0,0.0,0.0,0.0,0.0,0.0,0.0,0.0,0.0,0.0,0.0,0.0,0.0,0.0,0.0,0.0,0.0,0.0,0.0,0.0,0.0,0.0,0.0,0.0,0.0,0.0,0.0,0.0,0.0,0.0,0.0,0.0,0.0,0.0,0.0,0.0,0.0,0.0,0.0,0.0,0.0,0.0,0.0,0.0,0.0,0.0,0.0,0.0,0.0,0.0,0.0,0.0,0.0,0.0,0.0,0.0,0.0,0.0,0.0,0.0,0.0,0.0,0.0,0.0,0.0,0.0,0.0,0.0,0.0,0.0,0.0,0.0,0.0,0.0,0.0,0.0,0.0,0.0,0.0,0.0,0.0,0.0,0.0,0.0,0.0,0.0,0.0,0.0,0.0,0.0,0.0,0.0,0.0,0.0,0.0,0.0,0.0,0.0,0.0,0.0,0.0,0.0,0.0,0.0,0.0,0.0,0.0,0.0,0.0,0.0,0.0,0.0,0.0,0.0,0.0,0.0,0.0,0.0,0.0,0.0,0.0,0.0,0.0,0.0,0.0,0.0,0.0,0.0,0.0,0.0,0.0,0.0,0.0,0.0,0.0,0.0,0.0,0.0,0.0,0.0,0.0,0.0,0.0,0.0,0.0,0.0,0.0,0.0,0.0,0.0,0.0,0.0,0.0,0.0,0.0,0.0,0.0,0.0,0.0,0.0,0.0,0.0,0.0,0.0,0.0,0.0,0.0,0.0,0.0,0.0,0.0,0.0,0.0,0.0,0.0,0.0,0.0,0.0,0.0,0.0,0.0,0.0,0.0,0.0,0.0,0.0,0.0,0.0,0.0,0.0,0.0,0.0,0.0,0.0,0.0,0.0,0.0,0.0,0.0,0.0,0.0,0.0,0.0,0.0,0.0,0.0,0.0,0.0,0.0,0.0,0.0,0.0,0.0,0.0,0.0,0.0,0.0,0.0,0.0,0.0,0.0,0.0,0.0,0.0,0.0,0.0,0.0,0.0,0.0,0.0,0.0,0.0,0.0,0.0,0.0,0.0,0.0,0.0,0.0,0.0,0.0,0.0,0.0,0.0,0.0,0.0,0.0,0.0,0.0,0.0,0.0,0.0,0.0,0.0,0.0,0.0,0.0,0.0,0.0,0.0,0.0,0.0,0.0,0.0,0.0,0.0,0.0,0.0,0.0,0.0,0.0,0.0,0.0,0.0,0.0,0.0,0.0,0.0,0.0,0.0,0.0,0.0,0.0,0.0,0.0,0.0,0.0,0.0,0.0,0.0,0.0,0.0,0.0,0.0,0.0,0.0,0.0,0.0,0.0,0.0,0.0,0.0,0.0,0.0,0.0,0.0,0.0,0.0,0.0,0.0,0.0,0.0,0.0,0.0,0.0,0.0,0.0,0.0,0.0,0.0,0.0,0.0,0.0,0.0,0.0,0.0,0.0,0.0,0.0,0.0,0.0,0.0,0.0,0.0,0.0,0.0,0.0,0.0,0.0,0.0,0.0,0.0,0.0,0.0,0.0,0.0,0.0,0.0,0.0,0.0,0.0,0.0,0.0,0.0,0.0,0.0,0.0,0.0,0.0,0.0,0.0,0.0,0.0,0.0,0.0,0.0,0.0,0.0,0.0,0.0,0.0,0.0,0.0,0.0,0.0,0.0,0.0,0.0,0.0,0.0,0.0,0.0,0.0,0.0,0.0,0.0,0.0,0.0,0.0,0.0,0.0,0.0,0.0,0.0,0.0,0.0,0.0,0.0,0.0,0.0,0.0,0.0,0.0,0.0,0.0,0.0,0.0,0.0,0.0,0.0,0.0,0.0,0.0,0.0,0.0,0.0,0.0,0.0,0.0,0.0,0.0,0.0,0.0,0.0,0.0,0.0,0.0,0.0,0.0,0.0,0.0,0.0,0.0,0.0,0.0,0.0,0.0,0.0,0.0,0.0,0.0,0.0,0.0,0.0,0.0,0.0,0.0,0.0,0.0,0.0,0.0,0.0,0.0,0.0,0.0,0.0,0.0,0.0,0.0,0.0,0.0,0.0,0.0,0.0,0.0,0.0,0.0,0.0,0.0,0.0,0.0,0.0,0.0,0.0,0.0,0.0,0.0,0.0,0.0,0.0,0.0,0.0,0.0,0.0,0.0,0.0,0.0,0.0,0.0,0.0,0.0,0.0,0.0,0.0,0.0,0.0,0.0,0.0,0.0,0.0,0.0,0.0,0.0,0.0,0.0,0.0,0.0,0.0,0.0,0.0,0.0,0.0,0.0,0.0,0.0,0.0,0.0,0.0,0.0,0.0,0.0,0.0,0.0,0.0,0.0,0.0,0.0,0.0,0.0,0.0,0.0,0.0,0.0,0.0,0.0,0.0,0.0,0.0,0.0,0.0,0.0,0.0,0.0,0.0,0.0,0.0,0.0,0.0,0.0,0.0,0.0,0.0,0.0,0.0,0.0,0.0,0.0,0.0,0.0,0.0,0.0,0.0,0.0,-1.1927,0.0,0.0,0.0,0.0,0.0,0.0,0.0,0.0,0.0,0.0,0.0,0.0,0.0,0.0,0.0,0.0,0.0,0.0,0.0,0.0,0.0,0.0,0.0,0.0,0.0,0.0,0.0,0.0,0.0,0.0,0.0,0.0,0.0,0.0,0.0,0.0,0.0,0.0,0.0,0.0,0.0,0.0,0.0,0.0,0.0,0.0,0.0,0.0,0.0,0.0,0.0,0.0,0.0,0.0,0.0,0.0,0.0,0.0,0.0,0.0,0.0,0.0,0.0,0.0,0.0,0.0,0.0,0.0,0.0,0.0,0.0,0.0,0.0,0.0,0.0,0.0,0.0,0.0,0.0,0.0,0.0,0.0,0.0,0.0,0.0,0.0,0.0,0.0,0.0,0.0,0.0,0.0,0.0,0.0,0.0,0.0,0.0,0.0,0.0,0.0,0.0,0.0,0.0,0.0,0.0,0.0,0.0,0.0,0.0,0.0,0.0,0.0,0.0,0.0,0.0,0.0,-1.2443,0.0,0.0,0.0,0.0,0.0,0.0,0.0,0.0,0.0,0.0,0.0,0.0,0.0,0.0,0.0,0.0,0.0,0.0,0.0,0.0,0.0,0.0,0.0,0.0,0.0,0.0,0.0,0.0,0.0,0.0,0.0,0.0,0.0,0.0,0.0,0.0,0.0,0.0,0.0,0.0,0.0,0.0,0.0,0.0,0.0,0.0,0.0,0.0,0.0,0.0,0.0,0.0,0.0,0.0,0.0,0.0,0.0,0.0,0.0,0.0,0.0,0.0,0.0,0.0,0.0,0.0,0.0,0.0,0.0,0.0,0.0,0.0,0.0,0.0,0.0,0.0,0.0,0.0,0.0,0.0,0.0,0.0,0.0,0.0,0.0,0.0,0.0,0.0,0.0,0.0,0.0,0.0,0.0,0.0,0.0,0.0,0.0,0.0,0.0,0.0,0.0,0.0,0.0,0.0,0.0,0.0,0.0,0.0,-1.6355,-1.6129,-1.5421,-1.5504,-1.506,-1.4265,-1.3995,-1.3739,-1.3471,0.0,0.0,0.0,0.0,0.0,0.0,0.0,0.0,0.0,0.0,0.0,0.0,0.0,0.0,0.0,0.0,0.0,0.0,0.0,0.0,0.0,0.0,0.0,0.0,0.0,0.0,0.0,0.0,0.0,0.0,0.0,0.0,0.0,0.0,0.0,0.0,0.0,0.0,0.0,0.0,0.0,0.0,0.0,0.0,0.0,0.0,0.0,0.0,0.0,0.0,0.0,0.0,0.0,0.0,0.0,0.0,0.0,0.0,0.0,0.0,0.0,0.0,0.0,0.0,0.0,0.0,0.0,0.0,0.0,0.0,0.0,0.0,0.0,0.0,0.0,0.0,0.0,0.0,0.0,0.0,0.0,0.0,0.0,0.0,0.0,0.0,0.0,-1.5849,-1.5968,0.0,0.0,0.0,0.0,0.0,0.0,0.0,0.0,0.0,0.0,0.0,0.0,0.0,0.0,-1.7562,-1.7387,-1.7285,-1.7259,-1.7028,-1.6857,-1.6755,-1.6755,-1.6559,-1.6212,-1.5652,0.0,-1.3497,-1.3403,0.0,0.0,0.0,0.0,0.0,0.0,0.0,0.0,0.0,0.0,0.0,0.0,0.0,0.0,0.0,0.0,0.0,0.0,0.0,0.0,0.0,0.0,0.0,0.0,0.0,0.0,0.0,0.0,0.0,0.0,0.0,0.0,0.0,0.0,0.0,0.0,0.0,0.0,0.0,0.0,0.0,0.0,0.0,0.0,0.0,0.0,0.0,0.0,0.0,0.0,0.0,0.0,0.0,0.0,0.0,0.0,0.0,0.0,0.0,0.0,0.0,0.0,0.0,0.0,0.0,0.0,0.0,0.0,0.0,0.0,0.0,0.0,0.0,0.0,0.0,0.0,0.0,0.0,0.0,0.0,0.0,0.0,0.0,0.0,0.0,-1.6331,-1.6508,-1.621,-1.6897,-1.7294,0.0,0.0,0.0,0.0,0.0,0.0,0.0,0.0,0.0,-1.7986,-1.8001,-1.8082,-1.8207,-1.8114,-1.8107,-1.8173,-1.8053,-1.7846,-1.755,-1.748,-1.71,-1.648,-1.6093,-1.5556,-1.4893,-1.4111,-1.3765,-1.3698,0.0,0.0,0.0,0.0,0.0,-1.275,0.0,0.0,0.0,0.0,0.0,0.0,0.0,0.0,0.0,0.0,0.0,0.0,0.0,0.0,0.0,0.0,0.0,0.0,0.0,0.0,0.0,0.0,0.0,0.0,0.0,0.0,0.0,0.0,0.0,0.0,0.0,0.0,0.0,0.0,0.0,0.0,0.0,0.0,0.0,0.0,0.0,0.0,0.0,0.0,0.0,0.0,0.0,0.0,0.0,0.0,0.0,0.0,0.0,0.0,0.0,0.0,0.0,0.0,0.0,0.0,0.0,0.0,0.0,0.0,0.0,0.0,0.0,0.0,0.0,0.0,0.0,0.0,0.0,0.0,0.0,0.0,0.0,-1.7117,-1.7328,-1.6988,-1.7859,-1.8371,0.0,0.0,0.0,0.0,0.0,0.0,-1.9113,-1.8908,-1.8957,-1.9291,-1.9163,-1.912,-1.9296,-1.9155,-1.9137,-1.9236,-1.9284,-1.9028,-1.8519,-1.8429,-1.7899,-1.7026,-1.6728,-1.655,-1.6364,-1.4907,-1.4273,-1.4216,-1.4068,-1.3879,-1.3725,-1.3885,-1.3795,-1.3632,0.0,0.0,0.0,0.0,0.0,0.0,0.0,0.0,0.0,0.0,0.0,0.0,0.0,0.0,0.0,0.0,0.0,0.0,0.0,0.0,0.0,0.0,0.0,0.0,0.0,0.0,0.0,0.0,0.0,0.0,0.0,0.0,0.0,0.0,0.0,0.0,0.0,0.0,0.0,0.0,0.0,0.0,0.0,0.0,0.0,0.0,0.0,0.0,0.0,0.0,0.0,0.0,0.0,0.0,0.0,0.0,0.0,0.0,0.0,0.0,0.0,0.0,0.0,0.0,0.0,0.0,0.0,0.0,0.0,0.0,0.0,0.0,0.0,0.0,0.0,0.0,0.0,0.0,0.0,-1.8643,-1.8573,0.0,0.0,0.0,0.0,-1.9951,-1.9951,-1.9951,-1.9951,-1.9223,-1.937,-2.067,-2.0083,-2.04,-2.1698,-2.1032,-2.0699,-2.0682,-2.0697,-2.0448,-1.9984,-1.9984,-1.9546,-1.8731,-1.8161,-1.7754,-1.7394,-1.5788,-1.5141,-1.5141,-1.5111,-1.4772,-1.4322,-1.4907,-1.4628,-1.3983,0.0,0.0,0.0,0.0,0.0,0.0,0.0,0.0,0.0,0.0,0.0,0.0,0.0,0.0,0.0,0.0,0.0,0.0,0.0,0.0,0.0,0.0,0.0,0.0,0.0,0.0,0.0,0.0,0.0,0.0,0.0,0.0,0.0,0.0,0.0,0.0,0.0,0.0,0.0,0.0,0.0,0.0,0.0,0.0,0.0,0.0,0.0,0.0,0.0,0.0,0.0,0.0,0.0,0.0,0.0,0.0,0.0,0.0,0.0,0.0,0.0,0.0,0.0,0.0,0.0,0.0,0.0,0.0,0.0,0.0,0.0,0.0,0.0,0.0,0.0,0.0,0.0,0.0,0.0,-1.954,-2.0305,0.0,0.0,-2.1102,-2.1537,-2.1537,-2.1537,-2.1746,-2.2231,-2.1988,-2.2036,-2.2518,-2.2325,-2.2196,-2.2228,-2.1821,-2.142,-2.099,-2.086,-2.0628,-2.0291,-2.0291,-2.0017,-1.9525,-1.9082,-1.8793,-1.8551,-1.7311,-1.6486,-1.5964,-1.5841,-1.5651,-1.5471,-1.5706,-1.5528,-1.5181,0.0,0.0,0.0,0.0,0.0,0.0,0.0,0.0,0.0,0.0,0.0,0.0,0.0,0.0,0.0,0.0,0.0,0.0,0.0,0.0,0.0,0.0,0.0,0.0,0.0,0.0,0.0,0.0,0.0,0.0,0.0,0.0,0.0,0.0,0.0,0.0,0.0,0.0,0.0,0.0,0.0,0.0,-2.3745,0.0,0.0,0.0,0.0,0.0,0.0,0.0,0.0,0.0,0.0,0.0,0.0,0.0,0.0,0.0,0.0,0.0,0.0,0.0,0.0,0.0,0.0,0.0,0.0,0.0,0.0,0.0,0.0,0.0,0.0,0.0,0.0,0.0,0.0,0.0,-2.0574,-2.1119,-2.1936,-2.2355,-2.207,-2.2685,-2.3009,-2.2799,-2.2993,-2.322,-2.348,-2.3496,-2.3593,-2.382,-2.3609,-2.3366,-2.3106,-2.2745,-2.2212,-2.1537,-2.1406,-2.1032,-2.0462,-2.0359,-2.0087,-1.9704,-1.9354,-1.9128,-1.8968,-1.8304,-1.7669,-1.7088,-1.6734,-1.6473,-1.6322,-1.6528,-1.635,-1.6009,0.0,0.0,0.0,0.0,0.0,0.0,0.0,0.0,0.0,0.0,0.0,0.0,0.0,0.0,0.0,0.0,0.0,0.0,0.0,0.0,0.0,0.0,0.0,0.0,0.0,0.0,0.0,0.0,0.0,0.0,0.0,0.0,0.0,0.0,0.0,0.0,0.0,0.0,0.0,0.0,0.0,0.0,-2.7173,0.0,0.0,0.0,0.0,0.0,0.0,0.0,0.0,0.0,0.0,0.0,0.0,0.0,0.0,0.0,0.0,0.0,0.0,0.0,0.0,0.0,0.0,0.0,0.0,0.0,0.0,0.0,0.0,0.0,0.0,0.0,0.0,0.0,-2.2111,-2.211,-2.2483,-2.3446,-2.3372,-2.3337,-2.3576,-2.4176,-2.4274,-2.3642,-2.4209,-2.429,-2.3658,-2.3625,-2.3933,-2.4581,-2.3966,-2.3933,-2.4565,-2.3901,-2.3204,-2.2458,-2.241,-2.1776,-2.0645,-2.0306,-1.9892,-1.9442,-1.9016,-1.8817,-1.8731,-1.8711,-1.8634,-1.8461,-1.7857,-1.7267,-1.6835,-1.7407,-1.7134,-1.6443,0.0,0.0,0.0,0.0,0.0,0.0,0.0,0.0,0.0,0.0,0.0,0.0,0.0,0.0,0.0,0.0,0.0,0.0,0.0,0.0,0.0,0.0,0.0,0.0,0.0,0.0,0.0,0.0,0.0,0.0,0.0,0.0,0.0,0.0,0.0,0.0,0.0,0.0,0.0,0.0,0.0,0.0,-2.8225,0.0,0.0,0.0,0.0,0.0,0.0,0.0,0.0,0.0,0.0,0.0,0.0,0.0,0.0,0.0,0.0,0.0,0.0,0.0,0.0,0.0,0.0,0.0,0.0,0.0,0.0,0.0,0.0,0.0,0.0,0.0,0.0,-2.2328,-2.2328,-2.2644,-2.3431,-2.4853,-2.4511,-2.4574,-2.5697,-2.5503,-2.5438,-2.5778,-2.5988,-2.6231,-2.6523,-2.6539,-2.6636,-2.6814,-2.6636,-2.6393,-2.6085,-2.5373,-2.4644,-2.39,-2.2879,-2.2215,-2.189,-2.1246,-2.0909,-2.0746,-2.0104,-1.9785,-1.9675,-1.9149,-1.8846,-1.8688,-1.8378,-1.8147,-1.804,-1.8189,-1.8114,-1.7883,0.0,0.0,0.0,0.0,0.0,0.0,0.0,0.0,0.0,0.0,0.0,0.0,0.0,0.0,0.0,0.0,0.0,0.0,0.0,0.0,0.0,0.0,0.0,0.0,0.0,0.0,0.0,0.0,0.0,0.0,0.0,0.0,0.0,0.0,0.0,0.0,0.0,0.0,0.0,0.0,0.0,0.0,-3.1688,-2.9356,-2.832,-2.7931,-2.6651,-2.624,-2.6056,-2.4548,0.0,0.0,0.0,0.0,0.0,0.0,0.0,0.0,0.0,0.0,0.0,0.0,0.0,0.0,0.0,0.0,0.0,0.0,0.0,0.0,0.0,0.0,0.0,0.0,-2.3543,-2.3851,-2.4159,-2.4198,-2.4758,-2.6309,-2.6102,-2.6183,-2.7041,-2.7284,-2.7316,-2.7138,-2.7688,-2.7931,-2.7721,-2.7705,-2.7725,-2.7786,-2.7725,-2.7385,-2.6747,-2.6283,-2.5535,-2.45,-2.3657,-2.296,-2.2377,-2.1794,-2.1262,0.0,-2.0241,-1.9871,-1.9599,-1.9168,-1.8908,0.0,0.0,0.0,0.0,0.0,-1.8498,-1.8478,0.0,0.0,0.0,0.0,0.0,0.0,0.0,0.0,0.0,0.0,0.0,0.0,0.0,0.0,0.0,0.0,0.0,0.0,0.0,0.0,0.0,0.0,0.0,0.0,0.0,0.0,0.0,0.0,0.0,0.0,0.0,0.0,0.0,0.0,0.0,0.0,0.0,0.0,0.0,0.0,0.0,0.0,-3.5946,-3.2635,-3.2109,-3.2765,-3.0198,-2.8854,-2.8093,-2.6665,0.0,0.0,0.0,0.0,0.0,0.0,0.0,0.0,0.0,0.0,0.0,0.0,0.0,0.0,0.0,0.0,0.0,0.0,0.0,0.0,0.0,0.0,0.0,0.0,-2.5357,-2.6147,-2.7057,-2.6555,-2.6503,-2.7688,-2.7899,-2.798,-2.8061,-2.9227,-2.9475,-2.8174,-2.9362,-2.9507,-2.8029,0.0,0.0,0.0,0.0,-2.7681,-2.715,-2.6938,-2.615,-2.4855,-2.463,-2.382,-2.2507,-2.2076,-2.1305,-2.035,-1.9937,-1.9534,-1.917,-1.906,-1.8946,-1.8822,-1.8803,-1.876,-1.8692,-1.8576,-1.8517,0.0,0.0,0.0,0.0,0.0,0.0,0.0,0.0,0.0,0.0,0.0,0.0,0.0,0.0,0.0,0.0,0.0,0.0,0.0,0.0,0.0,0.0,0.0,0.0,0.0,0.0,0.0,0.0,0.0,0.0,0.0,0.0,0.0,0.0,0.0,0.0,0.0,0.0,0.0,0.0,0.0,0.0,0.0,-3.6157,-3.4862,-3.3825,-3.304,-3.2473,-3.2197,-3.1817,-3.037,-2.9766,-2.9275,-2.7256,0.0,0.0,0.0,0.0,0.0,0.0,0.0,0.0,0.0,0.0,0.0,0.0,0.0,0.0,0.0,0.0,0.0,0.0,0.0,0.0,-2.6037,-2.6847,-2.7943,-2.982,-2.9502,-2.8957,-2.8628,-2.9119,-2.9702,-3.0225,-3.0532,-3.0581,-3.0305,-3.1105,-3.0959,-2.954,-2.9988,0.0,-2.9535,-2.9497,-2.9432,-2.9307,-2.8114,-2.7365,-2.7057,0.0,0.0,-2.3253,-2.2586,-2.1964,-2.1362,-2.0489,-2.0177,-2.0231,-1.9413,-1.9078,-1.9026,-1.886,-1.8784,-1.8779,-1.8692,-1.8653,-1.8653,0.0,0.0,0.0,0.0,0.0,0.0,0.0,0.0,0.0,0.0,0.0,0.0,0.0,0.0,0.0,0.0,0.0,0.0,0.0,0.0,0.0,0.0,0.0,0.0,0.0,0.0,0.0,0.0,0.0,0.0,0.0,0.0,0.0,0.0,0.0,0.0,0.0,0.0,0.0,0.0,0.0,0.0,-3.7809,-3.7064,-3.6351,-3.5687,-3.5331,-3.4748,-3.3996,-3.2886,-3.2021,-3.1131,-2.9356,-2.7822,-2.6299,0.0,0.0,0.0,0.0,0.0,0.0,0.0,0.0,0.0,0.0,0.0,0.0,0.0,0.0,-2.356,0.0,0.0,-2.6571,-2.8065,-2.8854,-2.9804,-3.1244,-3.1477,-3.1241,-3.049,-3.0393,-3.0684,-3.1373,-3.1785,-3.1681,-3.0969,-3.1568,-3.138,-2.9983,-3.022,-3.0253,-2.9962,-2.9665,-2.9339,-2.9052,-2.7989,-2.7292,-2.6924,-2.5505,-2.4496,-2.3834,-2.3109,-2.2202,-2.1133,-2.0618,-2.019,-1.9803,-1.9307,-1.9101,-1.9082,-1.8988,-1.8931,-1.8889,-1.875,-1.8692,-1.8673,0.0,0.0,0.0,0.0,0.0,0.0,0.0,0.0,0.0,0.0,0.0,0.0,0.0,0.0,0.0,0.0,0.0,0.0,0.0,0.0,0.0,0.0,0.0,0.0,0.0,0.0,0.0,0.0,0.0,0.0,0.0,0.0,0.0,0.0,0.0,0.0,0.0,0.0,0.0,0.0,0.0,0.0,-3.9635,-3.8877,-3.8521,-3.8311,-3.7554,-3.6222,-3.4758,-3.4408,-3.3194,-3.1639,-3.0788,-2.9929,-2.866,-2.5924,-2.492,0.0,0.0,0.0,0.0,0.0,0.0,0.0,0.0,0.0,-2.3771,-2.4063,-2.4776,-2.5519,-2.6118,-2.7361,-2.8757,-3.0091,-3.0878,-3.1568,-3.2319,-3.2919,-3.304,-3.2321,-3.1828,-3.1697,-3.2174,-3.287,-3.2692,-3.1266,-3.1725,-3.1388,-2.9865,-2.9807,-2.9749,-2.9671,-2.9189,-2.8698,-2.8221,-2.7542,-2.6919,-2.6374,-2.5591,-2.4854,-2.4188,-2.3503,-2.2367,-2.0959,-2.0767,-2.016,-1.929,-1.9159,-1.9101,-1.9101,-1.9101,-1.9059,-1.8998,-1.8807,-1.8731,-1.8711,0.0,0.0,0.0,0.0,0.0,0.0,0.0,0.0,0.0,0.0,0.0,0.0,0.0,0.0,0.0,0.0,0.0,0.0,0.0,0.0,0.0,0.0,0.0,0.0,0.0,0.0,0.0,0.0,0.0,0.0,0.0,0.0,0.0,0.0,0.0,0.0,0.0,0.0,0.0,0.0,0.0,0.0,-4.0302,-3.9651,-3.8958,-3.8311,-3.7554,-3.559,-3.3501,-3.4693,-3.3275,-3.1212,-3.2368,-3.1801,-3.0225,-2.8012,0.0,-2.5163,-2.3658,-2.3301,-2.3512,-2.4128,-2.3885,-2.382,0.0,0.0,-2.4776,-2.6069,-2.7397,-2.8357,-2.8438,-2.9599,-3.0807,-3.1639,-3.2368,-3.308,-3.3777,-3.3939,-3.3763,-3.3149,-3.346,-3.3534,-3.3016,-3.3582,-3.3448,-3.2155,-3.2187,-3.1417,-2.9453,-2.941,-2.9155,-2.8511,-2.8408,-2.8354,-2.8276,-2.7557,-2.7157,-2.708,-2.5806,-2.4854,-2.4188,-2.3503,-2.2864,-2.223,-2.1325,-2.0593,-1.9943,-1.9348,-1.9101,-1.9101,-1.9101,-1.9101,-1.9078,-1.8998,-1.8889,-1.8779,0.0,0.0,0.0,0.0,0.0,0.0,0.0,0.0,0.0,0.0,0.0,0.0,0.0,0.0,0.0,0.0,0.0,0.0,0.0,0.0,0.0,0.0,0.0,0.0,0.0,0.0,0.0,0.0,0.0,0.0,0.0,0.0,0.0,0.0,0.0,0.0,0.0,0.0,0.0,0.0,0.0,0.0,-4.0286,-3.8359,-3.6902,-3.5866,-3.5558,-3.4149,0.0,0.0,-3.1891,-3.1082,-3.2141,-3.1461,-2.9972,-2.8223,-2.6697,0.0,-2.4371,0.0,0.0,0.0,-2.5551,-2.6312,-2.7753,-2.8174,-2.8509,-2.9567,-3.0247,-3.0652,-3.0652,-3.1494,-3.2287,0.0,-3.3607,-3.4145,-3.3636,-3.362,-3.328,-3.2279,-3.2018,-3.2142,-3.2641,-3.3228,-3.3034,-3.1757,-3.1687,-3.0977,-2.9371,-2.9325,-2.9012,-2.8319,-2.8383,-2.8223,-2.7839,-2.726,-2.6966,-2.6951,-2.6,-2.5227,-2.4579,-2.3896,-2.3097,-2.2152,-2.0977,-2.0335,-2.0045,-1.9377,-1.9101,-1.9101,-1.9101,-1.9101,-1.9082,-1.9017,-1.8908,-1.8784,0.0,0.0,0.0,0.0,0.0,0.0,0.0,0.0,0.0,0.0,0.0,0.0,0.0,0.0,0.0,0.0,0.0,0.0,0.0,0.0,0.0,0.0,0.0,0.0,0.0,0.0,0.0,0.0,0.0,0.0,0.0,0.0,0.0,0.0,0.0,0.0,0.0,0.0,0.0,0.0,0.0,0.0,-3.9347,-3.6918,-3.4845,-3.3226,-3.3226,-3.1947,0.0,0.0,-2.961,-2.9318,-3.0474,-3.0101,-2.9054,-2.7786,-2.6571,-2.5535,-2.5195,0.0,0.0,-2.6555,-2.7688,-2.8919,-3.0204,-3.0846,-3.1341,-3.1898,-3.2158,-3.2238,-3.2044,-3.2433,0.0,-3.3069,-3.397,-3.4254,-3.3118,-3.3186,-3.2716,-3.1091,-3.0302,-3.0295,-3.1268,-3.204,-3.2059,-3.1167,-3.0876,-3.0356,-2.9429,-2.9206,-2.8914,-2.844,-2.8495,-2.8225,-2.7558,-2.7211,-2.6953,-2.6806,-2.6137,-2.5473,-2.4863,-2.4007,-2.3035,-2.1931,-2.0828,-2.0248,-2.0059,-1.958,-1.9275,-1.9116,-1.9304,-1.9261,-1.913,-1.9257,-1.9104,-1.8784,0.0,0.0,0.0,0.0,0.0,0.0,0.0,0.0,0.0,0.0,0.0,0.0,0.0,0.0,0.0,0.0,0.0,0.0,0.0,0.0,0.0,0.0,0.0,0.0,0.0,0.0,0.0,0.0,0.0,0.0,0.0,0.0,0.0,0.0,0.0,0.0,0.0,0.0,0.0,0.0,0.0,0.0,-3.7231,-3.5785,-3.3469,-3.1001,-3.1001,0.0,0.0,0.0,-2.6409,-2.5049,-2.717,-2.7802,0.0,-2.6927,-2.6199,0.0,0.0,0.0,-2.7948,-2.941,-3.0295,-3.1001,-3.1769,-3.1963,-3.1979,-3.2012,-3.2562,-3.2838,-3.2141,-3.2028,-3.2273,-3.2977,-3.315,-3.298,-3.2492,-3.2992,-3.2458,-2.9952,-2.9057,-2.8711,0.0,-2.9818,-3.0486,-3.0513,-2.9988,-2.964,-2.958,-2.9042,-2.8693,-2.8707,-2.8693,-2.8375,-2.7708,-2.7666,-2.7389,-2.6806,-2.6137,-2.5473,-2.4849,-2.3534,-2.2591,-2.196,-2.1264,-2.064,-2.0103,-2.0074,-1.9696,-1.9159,-1.9812,-1.9682,-1.9174,-1.9827,-1.9536,-1.8784,0.0,0.0,0.0,0.0,0.0,0.0,0.0,0.0,0.0,0.0,0.0,0.0,0.0,0.0,0.0,0.0,0.0,0.0,0.0,0.0,0.0,0.0,0.0,0.0,0.0,0.0,0.0,0.0,0.0,0.0,0.0,0.0,0.0,0.0,0.0,0.0,0.0,0.0,0.0,0.0,0.0,0.0,-3.4878,-3.2028,-2.9761,-2.7931,0.0,0.0,0.0,0.0,0.0,0.0,-2.5211,0.0,0.0,-2.4646,0.0,0.0,0.0,0.0,-2.9394,-3.0328,-3.1105,-3.1923,-3.3129,-3.3388,-3.3388,-3.3388,-3.2854,-3.2141,-3.1406,-3.0996,-3.1118,-3.2252,-3.2908,-3.3069,-3.2473,-3.261,-3.2014,-2.9866,-2.8651,0.0,0.0,0.0,0.0,-2.9853,-2.9701,-2.9599,-2.9595,-2.9392,-2.9116,-2.8723,-2.8709,-2.8376,-2.771,-2.7316,-2.6997,-2.6806,-2.5705,-2.5106,-2.4849,-2.3519,-2.2786,-2.2562,-2.1946,-2.154,-2.1322,-2.0886,-2.0553,-2.0378,-2.0611,-2.0553,-2.0378,-2.0558,-2.0439,-2.012,0.0,0.0,0.0,0.0,0.0,0.0,0.0,0.0,0.0,0.0,0.0,0.0,0.0,0.0,0.0,0.0,0.0,0.0,0.0,0.0,0.0,0.0,0.0,0.0,0.0,0.0,0.0,0.0,0.0,0.0,0.0,0.0,0.0,0.0,0.0,0.0,0.0,0.0,0.0,0.0,0.0,0.0,-3.1186,-2.8628,-2.6782,0.0,0.0,0.0,0.0,0.0,0.0,0.0,0.0,0.0,0.0,0.0,0.0,0.0,0.0,-2.9907,-3.1274,-3.2206,-3.3,-3.3647,-3.4003,-3.3906,-3.3518,-3.2765,-3.1672,-3.059,-2.9691,-2.943,-2.9658,-3.066,-3.147,-3.194,-3.1783,-3.1575,-3.0999,-2.974,-2.8478,0.0,0.0,0.0,0.0,-2.9523,-2.9382,-2.9496,-2.9914,-2.9972,-2.9784,-2.9392,-2.9131,-2.871,-2.8071,-2.7447,-2.7012,-2.6806,-2.5745,-2.5096,-2.4849,-2.3751,-2.3012,-2.2562,-2.2178,-2.1859,-2.1627,-2.1438,-2.1206,-2.1017,-2.1264,-2.1206,-2.1046,-2.1455,-2.1455,-2.1125,0.0,0.0,0.0,0.0,0.0,0.0,0.0,0.0,0.0,0.0,0.0,0.0,0.0,0.0,0.0,0.0,0.0,0.0,0.0,0.0,0.0,0.0,0.0,0.0,0.0,0.0,0.0,0.0,0.0,0.0,0.0,0.0,0.0,0.0,0.0,0.0,0.0,0.0,0.0,0.0,0.0,0.0,-2.6448,-2.5672,0.0,0.0,0.0,0.0,0.0,0.0,0.0,0.0,0.0,0.0,0.0,0.0,0.0,-2.8364,-3.0451,-3.2125,-3.3591,-3.4887,-3.5693,-3.5796,-3.4302,-3.3404,-3.2304,-3.0154,-2.9151,-2.8329,0.0,0.0,-2.807,-2.8516,-2.908,-2.9753,-3.0614,-3.0205,-2.9784,0.0,0.0,0.0,0.0,0.0,0.0,-2.9653,0.0,-2.9334,-3.0539,-3.0641,-3.0641,-3.0598,-2.9958,-2.9334,-2.8767,-2.8057,-2.7391,-2.6806,-2.6137,-2.5473,-2.4863,-2.4196,-2.3209,-2.2048,-2.2048,-2.1685,-2.1148,-2.1786,-2.167,-2.1162,-2.1801,-2.1656,-2.1249,-2.2482,-2.2473,-2.1729,0.0,0.0,0.0,0.0,0.0,0.0,0.0,0.0,0.0,0.0,0.0,0.0,0.0,0.0,0.0,0.0,0.0,0.0,0.0,0.0,0.0,0.0,0.0,0.0,0.0,0.0,0.0,0.0,0.0,0.0,0.0,0.0,0.0,0.0,0.0,0.0,0.0,0.0,0.0,0.0,0.0,0.0,-2.4108,0.0,0.0,0.0,0.0,0.0,0.0,0.0,0.0,0.0,0.0,0.0,-2.5341,0.0,0.0,-3.1154,-3.2238,-3.3987,-3.5445,-3.526,-3.5011,-3.4308,-3.2426,-3.1144,-2.9765,-2.7706,-2.7098,-2.6689,0.0,0.0,0.0,-2.9528,-3.01,0.0,-3.2547,-3.2617,0.0,0.0,0.0,-3.0784,-3.1482,-3.051,0.0,0.0,-3.0727,-3.0263,-3.0583,-3.1032,-3.1061,-3.0612,-2.9958,-2.9523,-2.9377,-2.8261,-2.7391,-2.6806,-2.6137,-2.5458,-2.4795,-2.4181,-2.3455,-2.2678,-2.2678,-2.2577,-2.2432,-2.2606,-2.2577,-2.2446,-2.2606,-2.2577,-2.2497,-2.3224,-2.3092,-2.2489,0.0,0.0,0.0,0.0,0.0,0.0,0.0,0.0,0.0,0.0,0.0,0.0,0.0,0.0,0.0,0.0,0.0,0.0,0.0,0.0,0.0,0.0,0.0,0.0,0.0,0.0,0.0,0.0,0.0,0.0,0.0,0.0,0.0,0.0,0.0,0.0,0.0,0.0,0.0,0.0,0.0,0.0,0.0,0.0,0.0,0.0,0.0,0.0,0.0,0.0,0.0,-2.2893,-2.3929,-2.5171,-2.6598,-2.8576,0.0,-3.2375,-3.3704,-3.5161,-3.6149,-3.5471,-3.4591,-3.3318,-3.0999,-2.9455,-2.8036,-2.6277,-2.5863,0.0,0.0,0.0,0.0,0.0,0.0,0.0,-3.2222,-3.2135,-3.2063,0.0,-3.2353,0.0,-3.2452,-3.1859,-3.1729,0.0,-3.1569,-3.0988,-3.0988,-3.1322,-3.1221,-3.0627,-2.9958,-2.932,-2.8768,-2.7782,-2.7142,-2.6806,-2.6428,-2.5879,-2.5241,-2.4878,-2.4225,-2.3331,0.0,-2.3171,-2.2888,-2.2888,-2.3084,-2.3331,-2.3331,-2.3351,-2.3402,-2.3995,-2.3643,-2.2828,0.0,0.0,0.0,0.0,0.0,0.0,0.0,0.0,0.0,0.0,0.0,0.0,0.0,0.0,0.0,0.0,0.0,0.0,0.0,0.0,0.0,0.0,0.0,0.0,0.0,0.0,0.0,0.0,0.0,0.0,0.0,0.0,0.0,0.0,0.0,0.0,0.0,0.0,0.0,0.0,0.0,0.0,0.0,0.0,0.0,0.0,0.0,0.0,0.0,0.0,-2.1726,-2.3517,-2.5347,-2.649,-2.7675,-3.037,-3.1724,-3.2783,-3.4766,-3.5804,-3.6148,-3.5436,-3.4213,-3.2465,-2.9771,-2.8054,-2.665,-2.5273,0.0,0.0,-2.3812,0.0,-2.5657,-2.5999,0.0,-2.7418,-3.1018,-3.0625,-3.0872,-3.3227,-3.305,-3.2742,-3.2742,-3.2742,-3.2742,-3.2742,-3.2191,-3.1756,-3.1495,-3.1567,-3.1322,-3.0627,-2.9958,-2.9029,-2.784,-2.7229,-2.6866,-2.6806,-2.6806,-2.6457,-2.5803,-2.5803,-2.5164,-2.4022,0.0,0.0,-2.3149,-2.3149,-2.349,-2.4022,-2.3936,-2.3902,-2.3963,-2.4529,-2.3969,-2.2884,0.0,0.0,0.0,0.0,0.0,0.0,0.0,0.0,0.0,0.0,0.0,0.0,0.0,0.0,0.0,0.0,0.0,0.0,0.0,0.0,0.0,0.0,0.0,0.0,0.0,0.0,0.0,0.0,0.0,0.0,0.0,0.0,0.0,0.0,0.0,0.0,0.0,0.0,0.0,0.0,0.0,0.0,0.0,0.0,0.0,0.0,0.0,0.0,0.0,0.0,-2.1741,-2.3908,-2.524,-2.6739,-2.8511,-3.1186,-3.2514,-3.3434,-3.4901,-3.5843,-3.609,-3.4898,-3.3245,-3.1209,-2.8524,-2.653,0.0,0.0,0.0,-2.408,-2.3871,-2.4907,0.0,-2.72,0.0,0.0,0.0,0.0,-3.2382,0.0,0.0,0.0,0.0,0.0,0.0,0.0,0.0,0.0,-3.1582,-3.2048,-3.1801,-3.0641,-2.9958,-2.9233,-2.8521,-2.7882,-2.7302,-2.6806,-2.6806,-2.6457,-2.5803,-2.5803,-2.5386,-2.465,0.0,0.0,-2.4467,-2.4467,-2.4563,-2.4655,-2.4117,-2.3895,-2.3912,-2.3972,-2.3541,-2.2884,0.0,0.0,0.0,0.0,0.0,0.0,0.0,0.0,0.0,0.0,0.0,0.0,0.0,0.0,0.0,0.0,0.0,0.0,0.0,0.0,0.0,0.0,0.0,0.0,0.0,0.0,0.0,0.0,0.0,0.0,0.0,0.0,0.0,0.0,0.0,0.0,0.0,0.0,0.0,0.0,0.0,0.0,0.0,0.0,0.0,0.0,0.0,0.0,0.0,0.0,-2.1242,-2.3009,-2.501,-2.6931,-2.8898,-3.1162,-3.2576,-3.3606,-3.4577,-3.5335,-3.5579,-3.4258,-3.2227,-2.9966,-2.7694,0.0,0.0,0.0,0.0,-2.3891,-2.3891,0.0,0.0,0.0,0.0,0.0,0.0,0.0,0.0,0.0,0.0,0.0,0.0,0.0,0.0,0.0,0.0,0.0,-3.2121,-3.17,-3.1221,-3.0627,-2.9639,-2.8985,-2.8709,-2.7723,-2.7084,-2.6806,-2.6806,-2.6646,-2.6326,-2.6326,-2.5952,-2.5328,-2.5342,0.0,-2.4839,-2.4839,-2.4879,-2.485,-2.4474,-2.4118,-2.3822,-2.3723,-2.3329,-2.2777,0.0,0.0,0.0,0.0,0.0,0.0,0.0,0.0,0.0,0.0,0.0,0.0,0.0,0.0,0.0,0.0,0.0,0.0,0.0,0.0,0.0,0.0,0.0,0.0,0.0,0.0,0.0,0.0,0.0,0.0,0.0,0.0,0.0,0.0,0.0,0.0,0.0,0.0,0.0,0.0,0.0,0.0,0.0,0.0,0.0,0.0,0.0,0.0,0.0,0.0,-2.0509,-2.1674,-2.3977,-2.6149,-2.8269,-3.0301,-3.1856,-3.3078,-3.3955,-3.4594,-3.4728,-3.3568,-3.1205,-2.8754,-2.7157,-2.5168,0.0,0.0,0.0,-2.3731,-2.3862,0.0,0.0,0.0,0.0,0.0,0.0,0.0,0.0,0.0,0.0,0.0,0.0,0.0,0.0,0.0,0.0,0.0,-3.2539,-3.1279,-3.0598,-3.0598,-2.9508,-2.884,-2.8709,-2.7549,-2.6924,-2.6806,-2.6806,-2.6806,-2.6806,-2.6924,-2.6613,-2.5992,-2.6121,0.0,0.0,-2.5086,-2.5001,-2.494,-2.46,-2.4167,-2.3712,-2.3488,-2.3108,-2.2678,0.0,0.0,0.0,0.0,0.0,0.0,0.0,0.0,0.0,0.0,0.0,0.0,0.0,0.0,0.0,0.0,0.0,0.0,0.0,0.0,0.0,0.0,0.0,0.0,0.0,0.0,0.0,0.0,0.0,0.0,0.0,0.0,0.0,0.0,0.0,0.0,0.0,0.0,0.0,0.0,0.0,0.0,0.0,0.0,0.0,0.0,0.0,0.0,0.0,0.0,0.0,-2.038,-2.1172,-2.3152,-2.5651,-2.8212,0.0,0.0,-3.3092,-3.3631,-3.3514,-3.2783,-3.022,-2.7681,-2.6953,0.0,0.0,0.0,-2.2946,-2.3186,-2.3789,-2.4428,0.0,0.0,0.0,0.0,0.0,0.0,0.0,0.0,0.0,0.0,0.0,0.0,0.0,0.0,0.0,0.0,0.0,-3.1279,-3.0598,-3.0598,-2.99,-2.9261,-2.8723,-2.7984,-2.7345,-2.6806,-2.6806,-2.6806,-2.6835,-2.7389,-2.7237,-2.6638,0.0,0.0,0.0,-2.5632,-2.5356,-2.5151,-2.4122,-2.3673,-2.3547,-2.2987,-2.2739,-2.2678,0.0,0.0,0.0,0.0,0.0,0.0,0.0,0.0,0.0,0.0,0.0,0.0,0.0,0.0,0.0,0.0,0.0,0.0,0.0,0.0,0.0,0.0,0.0,0.0,0.0,0.0,0.0,0.0,0.0,0.0,0.0,0.0,0.0,0.0,0.0,0.0,0.0,0.0,0.0,0.0,0.0,0.0,0.0,0.0,0.0,0.0,0.0,0.0,0.0,0.0,0.0,0.0,-1.9734,-2.0816,0.0,0.0,-2.8142,-2.9798,-3.1339,-3.2295,-3.2643,-3.1598,-2.9523,-2.7434,-2.6416,0.0,0.0,-2.2888,-2.2888,-2.3113,-2.3775,-2.4466,-2.5324,0.0,0.0,0.0,0.0,0.0,0.0,0.0,0.0,0.0,0.0,0.0,0.0,0.0,0.0,0.0,0.0,-3.1859,-3.0974,-3.0612,-2.9958,-2.929,-2.8651,-2.7968,-2.7328,-2.6676,-2.6676,-2.6676,-2.6689,-2.6926,-2.6891,-2.664,0.0,0.0,0.0,-2.6069,-2.5504,-2.4706,-2.4123,-2.348,-2.2823,-2.2525,-2.2414,-2.2383,0.0,0.0,0.0,0.0,0.0,0.0,0.0,0.0,0.0,0.0,0.0,0.0,0.0,0.0,0.0,0.0,0.0,0.0,0.0,0.0,0.0,0.0,0.0,0.0,0.0,0.0,0.0,0.0,0.0,0.0,0.0,0.0,0.0,0.0,0.0,0.0,0.0,0.0,0.0,0.0,0.0,0.0,0.0,0.0,0.0,0.0,0.0,0.0,0.0,0.0,0.0,0.0,0.0,0.0,0.0,0.0,-2.6195,-2.8128,-2.9392,-3.0684,-3.1395,-3.0322,-2.8579,-2.6866,0.0,0.0,0.0,-2.2888,-2.2888,-2.3113,-2.3775,-2.4428,-2.5284,0.0,0.0,0.0,0.0,0.0,0.0,0.0,0.0,0.0,0.0,0.0,0.0,0.0,0.0,0.0,0.0,-3.1854,-3.1045,-3.0872,-3.004,-2.9281,-2.8617,-2.7945,-2.7267,-2.6607,-2.6607,-2.6607,-2.662,-2.6796,-2.6785,-2.6569,0.0,0.0,0.0,-2.6015,-2.5248,-2.4199,-2.3898,-2.317,-2.2328,-2.2216,-2.2197,-2.2197,0.0,0.0,0.0,0.0,0.0,0.0,0.0,0.0,0.0,0.0,0.0,0.0,0.0,0.0,0.0,0.0,0.0,0.0,0.0,0.0,0.0,0.0,0.0,0.0,0.0,0.0,0.0,0.0,0.0,0.0,0.0,0.0,0.0,0.0,0.0,0.0,0.0,0.0,0.0,0.0,0.0,0.0,0.0,0.0,0.0,0.0,0.0,0.0,0.0,0.0,0.0,0.0,0.0,0.0,0.0,0.0,-2.3833,-2.6097,-2.7376,-2.8652,-2.9465,-2.8855,-2.727,-2.5633,0.0,0.0,-2.2888,-2.2888,-2.2888,-2.3113,-2.3775,-2.4375,-2.523,-2.6562,-2.7316,0.0,0.0,0.0,0.0,0.0,0.0,0.0,0.0,0.0,0.0,0.0,0.0,0.0,0.0,-3.1034,-3.0663,-3.1464,-3.0259,-2.9282,-2.8617,-2.793,-2.7277,-2.6607,-2.6607,-2.6607,-2.662,-2.7273,-2.7197,0.0,0.0,0.0,0.0,-2.5342,-2.46,-2.3746,-2.3216,-2.2686,-2.2197,-2.2197,-2.2197,-2.2197,0.0,0.0,0.0,0.0,0.0,0.0,0.0,0.0,0.0,0.0,0.0,0.0,0.0,0.0,0.0,0.0,0.0,0.0,0.0,0.0,0.0,0.0,0.0,0.0,0.0,0.0,0.0,0.0,0.0,0.0,0.0,0.0,0.0,0.0,0.0,0.0,0.0,0.0,0.0,0.0,0.0,0.0,0.0,0.0,0.0,0.0,0.0,0.0,0.0,0.0,0.0,0.0,0.0,0.0,0.0,0.0,0.0,0.0,-2.5328,-2.6042,-2.6289,-2.6126,-2.5309,-2.4326,-2.3664,0.0,-2.2888,-2.2888,-2.2888,-2.2946,-2.3186,-2.3737,-2.4471,-2.5342,-2.6387,0.0,0.0,0.0,0.0,0.0,0.0,0.0,0.0,0.0,0.0,0.0,0.0,0.0,0.0,-3.0412,-2.9838,-2.9979,-2.9238,-2.852,-2.7849,-2.7635,-2.7197,-2.6534,-2.6122,-2.6148,-2.6521,-2.6302,0.0,0.0,0.0,0.0,0.0,-2.5726,-2.492,-2.3782,-2.3613,-2.2999,-2.2197,-2.2197,-2.2197,-2.2197,0.0,0.0,0.0,0.0,0.0,0.0,0.0,0.0,0.0,0.0,0.0,0.0,0.0,0.0,0.0,0.0,0.0,0.0,0.0,0.0,0.0,0.0,0.0,0.0,0.0,0.0,0.0,0.0,0.0,0.0,0.0,0.0,0.0,0.0,0.0,0.0,0.0,0.0,0.0,0.0,0.0,0.0,0.0,0.0,0.0,0.0,0.0,0.0,0.0,0.0,0.0,0.0,0.0,0.0,0.0,0.0,0.0,0.0,0.0,-2.3737,-2.3994,-2.3847,-2.3461,0.0,0.0,0.0,0.0,-2.2844,-2.2888,-2.2888,-2.2888,-2.3635,-2.4384,-2.482,-2.6155,0.0,0.0,0.0,0.0,0.0,0.0,0.0,0.0,0.0,0.0,0.0,0.0,0.0,0.0,0.0,-2.8607,-2.856,-2.8259,-2.7887,-2.7384,-2.7129,-2.6816,-2.6396,-2.5786,-2.5832,-2.6474,-2.5862,0.0,0.0,0.0,0.0,0.0,-2.5945,-2.5101,-2.386,-2.3839,-2.3156,-2.2197,-2.2197,-2.2197,-2.2197,0.0,0.0,0.0,0.0,0.0,0.0,0.0,0.0,0.0,0.0,0.0,0.0,0.0,0.0,0.0,0.0,0.0,0.0,0.0,0.0,0.0,0.0,0.0,0.0,0.0,0.0,0.0,0.0,0.0,0.0,0.0,0.0,0.0,0.0,0.0,0.0,0.0,0.0,0.0,0.0,0.0,0.0,0.0,0.0,0.0,0.0,0.0,0.0,0.0,0.0,0.0,0.0,0.0,0.0,0.0,0.0,0.0,0.0,0.0,0.0,0.0,0.0,0.0,0.0,0.0,0.0,0.0,0.0,0.0,0.0,-2.2946,-2.3893,-2.4732,-2.4936,-2.6474,0.0,0.0,0.0,0.0,0.0,0.0,0.0,0.0,0.0,0.0,0.0,0.0,0.0,0.0,0.0,-2.7231,-2.7231,-2.7344,-2.7317,-2.7162,-2.6521,-2.6188,-2.6139,-2.5533,-2.566,-2.6377,-2.5766,0.0,0.0,0.0,0.0,0.0,-2.5945,-2.5147,-2.4029,-2.3839,-2.318,-2.2246,-2.2209,-2.2197,-2.2197,0.0,0.0,0.0,0.0,0.0,0.0,0.0,0.0,0.0,0.0,0.0,0.0,0.0,0.0,0.0,0.0,0.0,0.0,0.0,0.0,0.0,0.0,0.0,0.0,0.0,0.0,0.0,0.0,0.0,0.0,0.0,0.0,0.0,0.0,0.0,0.0,0.0,0.0,0.0,0.0,0.0,0.0,0.0,0.0,0.0,0.0,-1.8366,0.0,0.0,0.0,0.0,0.0,0.0,0.0,0.0,0.0,0.0,0.0,0.0,0.0,0.0,0.0,0.0,0.0,0.0,0.0,0.0,0.0,0.0,0.0,0.0,0.0,0.0,0.0,0.0,0.0,0.0,0.0,0.0,0.0,0.0,0.0,0.0,0.0,0.0,0.0,0.0,0.0,0.0,0.0,-2.6631,-2.6457,-2.6506,-2.6555,-2.6658,-2.6374,-2.599,-2.5576,-2.4863,-2.4867,-2.5407,-2.4851,0.0,0.0,0.0,0.0,-2.5723,-2.5688,-2.5147,-2.4336,-2.395,-2.3408,-2.2751,-2.2342,-2.2197,-2.2197,0.0,0.0,0.0,0.0,0.0,0.0,0.0,0.0,0.0,0.0,0.0,0.0,0.0,0.0,0.0,0.0,0.0,0.0,0.0,0.0,0.0,0.0,0.0,0.0,0.0,0.0,0.0,0.0,0.0,0.0,0.0,0.0,0.0,0.0,0.0,0.0,0.0,0.0,0.0,0.0,0.0,0.0,0.0,0.0,0.0,0.0,-1.7875,-1.7996,0.0,-1.8155,-1.8406,-1.8692,0.0,0.0,0.0,0.0,0.0,0.0,0.0,0.0,0.0,0.0,0.0,0.0,0.0,0.0,0.0,0.0,0.0,0.0,0.0,0.0,0.0,0.0,0.0,0.0,0.0,0.0,0.0,0.0,0.0,0.0,0.0,0.0,0.0,0.0,0.0,0.0,0.0,0.0,-2.6188,-2.6062,-2.6062,-2.6084,-2.6107,-2.598,-2.5785,-2.5477,-2.4847,-2.4872,-2.5455,-2.4915,0.0,0.0,0.0,0.0,-2.5723,-2.5641,-2.5075,-2.4246,-2.3902,-2.3324,-2.2582,-2.2294,-2.2197,-2.2197,0.0,0.0,0.0,0.0,0.0,0.0,0.0,0.0,0.0,0.0,0.0,0.0,0.0,0.0,0.0,0.0,0.0,0.0,0.0,0.0,0.0,0.0,0.0,0.0,0.0,0.0,0.0,0.0,0.0,0.0,0.0,0.0,0.0,0.0,0.0,0.0,0.0,0.0,0.0,0.0,0.0,0.0,0.0,0.0,0.0,0.0,0.0,0.0,0.0,-1.7882,-1.8095,-1.8464,-1.8498,0.0,0.0,0.0,0.0,0.0,0.0,0.0,0.0,0.0,0.0,0.0,0.0,0.0,0.0,0.0,0.0,0.0,0.0,0.0,0.0,0.0,0.0,0.0,0.0,0.0,0.0,0.0,0.0,0.0,0.0,0.0,0.0,0.0,0.0,0.0,0.0,0.0,0.0,-2.5875,-2.5828,-2.5758,-2.5571,-2.5571,-2.5569,-2.5484,-2.4988,-2.5081,-2.5658,-2.5206,0.0,0.0,0.0,0.0,-2.5683,-2.5569,-2.4953,-2.4056,-2.3863,-2.3204,-2.2306,-2.2221,-2.2197,-2.2185,0.0,0.0,0.0,0.0,0.0,0.0,0.0,0.0,0.0,0.0,0.0,0.0,0.0,0.0,0.0,0.0,0.0,0.0,0.0,0.0,0.0,0.0,0.0,0.0,0.0,0.0,0.0,0.0,0.0,0.0,0.0,0.0,0.0,0.0,0.0,0.0,0.0,0.0,0.0,0.0,0.0,0.0,0.0,0.0,0.0,0.0,0.0,0.0,0.0,-1.7564,-1.7639,-1.755,-1.8268,0.0,0.0,0.0,0.0,0.0,0.0,0.0,0.0,0.0,0.0,0.0,0.0,0.0,0.0,0.0,0.0,0.0,0.0,0.0,0.0,0.0,0.0,0.0,0.0,0.0,0.0,0.0,0.0,0.0,0.0,0.0,0.0,0.0,0.0,0.0,0.0,0.0,0.0,-2.5653,-2.5653,-2.5535,-2.5347,-2.55,-2.5387,-2.4925,-2.4669,-2.4601,-2.4707,-2.4635,-2.4635,0.0,0.0,-2.5129,-2.4755,-2.5167,-2.4986,-2.4396,-2.3962,-2.3433,-2.2811,-2.2354,-2.2197,-2.2092,0.0,0.0,0.0,0.0,0.0,0.0,0.0,0.0,0.0,0.0,0.0,0.0,0.0,0.0,0.0,0.0,0.0,0.0,0.0,0.0,0.0,0.0,0.0,0.0,0.0,0.0,0.0,0.0,0.0,0.0,0.0,0.0,0.0,0.0,0.0,0.0,0.0,0.0,0.0,0.0,0.0,0.0,0.0,0.0,0.0,0.0,0.0,0.0,0.0,0.0,-1.7144,-1.7261,-1.7672,0.0,0.0,0.0,0.0,0.0,-1.7958,-1.891,0.0,0.0,0.0,0.0,0.0,0.0,0.0,0.0,0.0,0.0,0.0,0.0,0.0,0.0,0.0,0.0,0.0,0.0,0.0,0.0,0.0,0.0,0.0,0.0,0.0,0.0,0.0,0.0,0.0,0.0,0.0,0.0,-2.543,-2.5382,-2.5312,-2.5382,-2.5297,-2.5055,-2.4986,-2.4939,-2.4939,-2.4939,-2.4939,-2.4939,0.0,-2.4903,-2.4927,-2.4602,-2.4338,-2.4061,-2.3577,-2.3047,-2.2522,-2.2282,-2.1956,-2.1494,0.0,0.0,0.0,0.0,0.0,0.0,0.0,0.0,0.0,0.0,0.0,0.0,0.0,0.0,0.0,0.0,0.0,0.0,0.0,0.0,0.0,0.0,0.0,0.0,0.0,0.0,0.0,0.0,0.0,0.0,0.0,0.0,0.0,0.0,0.0,0.0,0.0,0.0,0.0,0.0,0.0,0.0,0.0,0.0,0.0,0.0,0.0,0.0,0.0,0.0,0.0,0.0,0.0,0.0,0.0,0.0,-1.7031,-1.717,-1.7772,-1.8563,0.0,0.0,0.0,0.0,0.0,0.0,0.0,0.0,0.0,0.0,0.0,0.0,0.0,0.0,0.0,0.0,0.0,0.0,0.0,0.0,0.0,0.0,0.0,0.0,0.0,0.0,0.0,0.0,0.0,0.0,0.0,0.0,-2.5312,-2.5312,-2.5312,-2.5312,-2.5252,-2.5119,-2.5252,-2.524,-2.5131,-2.5252,-2.518,-2.4939,-2.4771,-2.4795,-2.4903,-2.4179,-2.373,-2.348,-2.2867,-2.2259,-2.1706,-2.1706,-2.123,-2.0537,0.0,0.0,0.0,0.0,0.0,0.0,0.0,0.0,0.0,0.0,0.0,0.0,0.0,0.0,0.0,0.0,0.0,0.0,0.0,0.0,0.0,0.0,0.0,0.0,0.0,0.0,0.0,0.0,0.0,0.0,0.0,0.0,0.0,0.0,0.0,0.0,0.0,0.0,0.0,0.0,0.0,0.0,0.0,0.0,0.0,0.0,0.0,0.0,0.0,0.0,0.0,0.0,0.0,0.0,0.0,0.0,0.0,-1.6673,-1.729,-1.7509,0.0,0.0,0.0,0.0,0.0,0.0,0.0,0.0,0.0,0.0,0.0,0.0,0.0,0.0,0.0,0.0,0.0,0.0,0.0,0.0,0.0,0.0,0.0,0.0,0.0,0.0,0.0,0.0,0.0,0.0,0.0,0.0,0.0,-2.5312,-2.5312,-2.5312,-2.5059,-2.4544,-2.5071,-2.5047,-2.4556,-2.5083,-2.4783,-2.3962,-2.4855,-2.4723,-2.3908,-2.4026,-2.3571,-2.2695,-2.1921,-2.1039,-2.0258,-2.0258,-1.977,-1.9133,0.0,0.0,0.0,0.0,0.0,0.0,0.0,0.0,0.0,0.0,0.0,0.0,0.0,0.0,0.0,0.0,0.0,0.0,0.0,0.0,0.0,0.0,0.0,0.0,0.0,0.0,0.0,0.0,0.0,0.0,0.0,0.0,0.0,0.0,0.0,0.0,0.0,0.0,0.0,0.0,0.0,0.0,0.0,0.0,0.0,0.0,0.0,0.0,0.0,0.0,0.0,0.0,0.0,0.0,0.0,0.0,0.0,-1.6266,-1.7147,-1.7652,0.0,0.0,0.0,0.0,0.0,0.0,0.0,0.0,0.0,0.0,0.0,0.0,0.0,0.0,0.0,0.0,0.0,0.0,0.0,0.0,0.0,0.0,0.0,0.0,0.0,0.0,0.0,0.0,0.0,0.0,0.0,0.0,0.0,-2.4133,-2.3698,-2.4133,-2.3871,-2.2903,-2.4527,-2.5204,-2.4976,-2.4696,-2.4225,-2.3628,-2.398,-2.3921,-2.3604,-2.3283,-2.3167,-2.3006,-2.1549,-2.063,-2.014,-2.0391,-1.9851,-1.9052,0.0,0.0,0.0,0.0,0.0,0.0,0.0,0.0,0.0,0.0,0.0,0.0,0.0,0.0,0.0,0.0,0.0,0.0,0.0,0.0,0.0,0.0,0.0,0.0,0.0,0.0,0.0,0.0,0.0,0.0,0.0,0.0,0.0,0.0,0.0,0.0,0.0,0.0,0.0,0.0,0.0,0.0,0.0,0.0,0.0,0.0,0.0,0.0,0.0,0.0,0.0,0.0,0.0,0.0,0.0,0.0,0.0,0.0,-1.6895,-1.7651,0.0,0.0,0.0,0.0,0.0,0.0,0.0,0.0,0.0,0.0,0.0,0.0,0.0,0.0,0.0,0.0,0.0,0.0,0.0,0.0,0.0,0.0,0.0,0.0,0.0,0.0,0.0,0.0,0.0,0.0,0.0,0.0,0.0,0.0,-2.2389,-2.2888,-2.2714,-2.1867,-2.341,-2.419,-2.4222,-2.4001,-2.3428,-2.2684,-2.2932,-2.2966,-2.2831,-2.218,-2.1904,-2.1737,-2.0384,-1.9777,-1.9661,-1.9944,-1.9554,-1.8951,0.0,0.0,0.0,0.0,0.0,0.0,0.0,0.0,0.0,0.0,0.0,0.0,0.0,0.0,0.0,0.0,0.0,0.0,0.0,0.0,0.0,0.0,0.0,0.0,0.0,0.0,0.0,0.0,0.0,0.0,0.0,0.0,0.0,0.0,0.0,0.0,0.0,0.0,0.0,0.0,0.0,0.0,0.0,0.0,0.0,0.0,0.0,0.0,0.0,0.0,0.0,0.0,0.0,0.0,0.0,0.0,-1.5792,-1.5912,-1.6463,0.0,0.0,0.0,0.0,0.0,0.0,0.0,0.0,0.0,0.0,0.0,0.0,0.0,0.0,0.0,0.0,0.0,0.0,0.0,0.0,0.0,0.0,0.0,0.0,0.0,0.0,0.0,0.0,0.0,0.0,0.0,0.0,0.0,0.0,0.0,-2.1689,-2.1689,-2.1689,-2.1655,-2.1689,-2.1755,-2.1916,-2.2926,-2.2455,-2.0928,-2.1881,-2.1988,-2.1435,-2.0755,-1.9753,-1.8559,-1.8184,-1.8237,-1.8598,-1.8617,-1.8607,-1.8666,0.0,0.0,0.0,0.0,0.0,0.0,0.0,0.0,0.0,0.0,0.0,0.0,0.0,0.0,0.0,0.0,0.0,0.0,0.0,0.0,0.0,0.0,0.0,0.0,0.0,0.0,0.0,0.0,0.0,0.0,0.0,0.0,0.0,0.0,0.0,0.0,0.0,0.0,0.0,0.0,0.0,0.0,0.0,0.0,0.0,0.0,0.0,0.0,0.0,0.0,0.0,0.0,0.0,0.0,0.0,0.0,-1.5792,-1.5984,-1.6907,0.0,0.0,0.0,0.0,0.0,0.0,0.0,0.0,0.0,0.0,0.0,0.0,0.0,0.0,0.0,0.0,0.0,0.0,0.0,0.0,0.0,0.0,0.0,0.0,0.0,0.0,0.0,0.0,0.0,0.0,0.0,0.0,0.0,0.0,0.0,-1.9809,-2.0322,-2.0322,-1.9809,-2.0322,-2.1007,-2.1731,-2.1463,-2.0909,-2.016,-2.0762,-2.0762,-2.0315,-2.0452,-1.9753,-1.8617,-1.8838,-1.8799,-1.8676,-1.927,-1.9114,-1.8666,0.0,0.0,0.0,0.0,0.0,0.0,0.0,0.0,0.0,0.0,0.0,0.0,0.0,0.0,0.0,0.0,0.0,0.0,0.0,0.0,0.0,0.0,0.0,0.0,0.0,0.0,0.0,0.0,0.0,0.0,0.0,0.0,0.0,0.0,0.0,0.0,0.0,0.0,0.0,0.0,0.0,0.0,0.0,0.0,0.0,0.0,0.0,0.0,0.0,0.0,0.0,0.0,0.0,0.0,0.0,-1.5792,-1.5792,-1.5936,0.0,0.0,0.0,0.0,0.0,0.0,0.0,0.0,0.0,0.0,0.0,0.0,0.0,0.0,0.0,0.0,0.0,0.0,0.0,0.0,0.0,0.0,0.0,0.0,0.0,0.0,0.0,0.0,0.0,0.0,0.0,0.0,0.0,0.0,0.0,0.0,-1.862,-1.9054,-1.9054,-1.862,-1.9054,-1.9603,-2.0218,-2.0198,-1.9788,-1.9113,-1.956,-1.9499,-1.9123,-1.957,-1.9183,-1.8383,-1.8672,-1.8721,-1.8685,-1.9414,-1.9336,-1.8984,0.0,0.0,0.0,0.0,0.0,0.0,0.0,0.0,0.0,0.0,0.0,0.0,0.0,0.0,0.0,0.0,0.0,0.0,0.0,0.0,0.0,0.0,0.0,0.0,0.0,0.0,0.0,0.0,0.0,0.0,0.0,0.0,0.0,0.0,0.0,0.0,0.0,0.0,0.0,0.0,0.0,0.0,0.0,0.0,0.0,0.0,0.0,0.0,0.0,0.0,0.0,0.0,0.0,0.0,0.0,-1.5792,-1.5792,0.0,0.0,0.0,0.0,0.0,0.0,0.0,0.0,0.0,0.0,0.0,0.0,0.0,0.0,0.0,0.0,0.0,0.0,0.0,0.0,0.0,0.0,0.0,0.0,0.0,0.0,0.0,0.0,0.0,0.0,0.0,0.0,0.0,0.0,0.0,0.0,0.0,-1.8008,-1.8008,-1.8008,0.0,-1.8008,-1.8008,-1.8027,-1.9079,-1.898,-1.8037,-1.8383,-1.8325,-1.8037,-1.8383,-1.8315,-1.8018,-1.8047,-1.8266,-1.8656,-1.9131,-1.9268,-1.9346,0.0,0.0,0.0,0.0,0.0,0.0,0.0,0.0,0.0,0.0,0.0,0.0,0.0,0.0,0.0,0.0,0.0,0.0,0.0,0.0,0.0,0.0,0.0,0.0,0.0,0.0,0.0,0.0,0.0,0.0,0.0,0.0,0.0,0.0,0.0,0.0,0.0,0.0,0.0,0.0,0.0,0.0,0.0,0.0,0.0,0.0,0.0,0.0,0.0,0.0,0.0,0.0,-1.5792,-1.5792,-1.5792,-1.5792,-1.5792,0.0,0.0,0.0,0.0,0.0,0.0,0.0,0.0,0.0,0.0,0.0,0.0,0.0,0.0,0.0,0.0,0.0,0.0,0.0,0.0,0.0,0.0,0.0,0.0,0.0,0.0,0.0,0.0,0.0,0.0,0.0,0.0,0.0,0.0,0.0,0.0,-1.8144,-1.8008,-1.8008,-1.8008,0.0,-1.8008,-1.8008,-1.8008,-1.8232,-1.8222,-1.8018,-1.8105,-1.8096,-1.8018,-1.8105,-1.8086,-1.8047,-1.8344,-1.852,-1.8656,-1.9131,-1.9072,-1.8812,0.0,0.0,0.0,0.0,0.0,0.0,0.0,0.0,0.0,0.0,0.0,0.0,0.0,0.0,0.0,0.0,0.0,0.0,0.0,0.0,0.0,0.0,0.0,0.0,0.0,0.0,0.0,0.0,0.0,0.0,0.0,0.0,0.0,0.0,0.0,0.0,0.0,0.0,0.0,0.0,0.0,0.0,0.0,0.0,0.0,0.0,0.0,0.0,0.0,0.0,0.0,0.0,0.0,0.0,-1.5748,-1.5792,0.0,0.0,0.0,0.0,0.0,0.0,0.0,0.0,0.0,0.0,0.0,0.0,0.0,0.0,0.0,0.0,0.0,0.0,0.0,0.0,0.0,0.0,0.0,0.0,0.0,0.0,0.0,0.0,0.0,0.0,0.0,0.0,0.0,0.0,0.0,0.0,-1.8069,-1.8008,-1.8008,-1.8008,-1.791,-1.7715,-1.791,-1.8008,-1.8008,-1.8008,-1.8008,-1.8008,-1.8008,-1.8008,-1.8008,-1.8008,-1.8008,-1.8037,-1.8217,-1.8295,-1.8354,-1.8818,-1.8965,-1.9014,0.0,0.0,0.0,0.0,0.0,0.0,0.0,0.0,0.0,0.0,0.0,0.0,0.0,0.0,0.0,0.0,0.0,0.0,0.0,0.0,0.0,0.0,0.0,0.0,0.0,0.0,0.0,0.0,0.0,0.0,0.0,0.0,0.0,0.0,0.0,0.0,0.0,0.0,0.0,0.0,0.0,0.0,0.0,0.0,0.0,0.0,0.0,0.0,0.0,-1.4949,0.0,0.0,0.0,0.0,-1.5458,0.0,0.0,0.0,0.0,0.0,0.0,0.0,0.0,0.0,0.0,0.0,0.0,0.0,0.0,0.0,0.0,0.0,0.0,0.0,0.0,0.0,0.0,0.0,0.0,0.0,0.0,0.0,0.0,0.0,0.0,0.0,0.0,0.0,0.0,0.0,-1.7861,-1.7308,-1.7607,-1.7793,-1.7793,-1.7793,-1.7617,-1.7275,-1.7627,-1.7793,-1.7793,-1.7793,-1.7871,-1.8008,-1.8008,-1.8008,-1.8008,-1.8008,-1.8008,-1.8008,-1.8008,-1.8008,-1.8047,-1.8364,-1.8724,-1.9131,0.0,0.0,0.0,0.0,0.0,0.0,0.0,0.0,0.0,0.0,0.0,0.0,0.0,0.0,0.0,0.0,0.0,0.0,0.0,0.0,0.0,0.0,0.0,0.0,0.0,0.0,0.0,0.0,0.0,0.0,0.0,0.0,0.0,0.0,0.0,0.0,0.0,0.0,0.0,0.0,0.0,0.0,0.0,0.0,0.0,0.0,0.0,0.0,0.0,0.0,0.0,0.0,0.0,0.0,0.0,0.0,0.0,0.0,0.0,0.0,0.0,0.0,0.0,0.0,0.0,0.0,0.0,0.0,0.0,0.0,0.0,0.0,0.0,0.0,0.0,0.0,0.0,0.0,0.0,0.0,0.0,0.0,0.0,0.0,0.0,0.0,0.0,0.0,0.0,-1.6841,-1.688,-1.6785,-1.6843,-1.6872,-1.6872,-1.6872,-1.6843,-1.6785,-1.6843,-1.6872,-1.6872,-1.6872,-1.7272,-1.8008,-1.8008,-1.8008,-1.8008,-1.8008,-1.8008,-1.8008,-1.8008,-1.8008,-1.8018,-1.8076,-1.8135,-1.8291,0.0,0.0,0.0,0.0,0.0,0.0,0.0,0.0,0.0,0.0,0.0,0.0,0.0,0.0,0.0,0.0,0.0,0.0,0.0,0.0,0.0,0.0,0.0,0.0,0.0,0.0,0.0,0.0,0.0,0.0,0.0,-1.3121,-1.3296,0.0,0.0,0.0,0.0,0.0,0.0,0.0,0.0,0.0,0.0,0.0,0.0,0.0,0.0,0.0,0.0,0.0,0.0,0.0,0.0,0.0,0.0,0.0,0.0,0.0,0.0,0.0,0.0,0.0,0.0,0.0,0.0,0.0,0.0,0.0,0.0,0.0,0.0,0.0,0.0,0.0,0.0,0.0,0.0,0.0,0.0,0.0,0.0,0.0,0.0,0.0,0.0,0.0,0.0,0.0,-1.6006,-1.6221,-1.6357,-1.6357,-1.657,-1.6697,-1.6697,-1.6697,-1.6697,-1.6697,-1.6475,-1.6484,-1.6697,-1.6697,-1.6902,-1.7272,-1.7549,-1.7656,-1.7676,-1.791,-1.8008,-1.8008,-1.8008,-1.8008,-1.8008,-1.8008,-1.812,-1.8383,0.0,0.0,0.0,0.0,0.0,0.0,0.0,0.0,0.0,0.0,0.0,0.0,0.0,0.0,0.0,0.0,0.0,0.0,0.0,0.0,0.0,0.0,0.0,0.0,0.0,0.0,0.0,0.0,0.0,0.0,-1.2698,-1.3121,-1.3351,0.0,-1.3139,0.0,0.0,0.0,0.0,0.0,0.0,0.0,0.0,0.0,0.0,0.0,0.0,0.0,0.0,0.0,0.0,0.0,0.0,0.0,0.0,0.0,0.0,0.0,0.0,0.0,0.0,0.0,0.0,0.0,0.0,0.0,0.0,0.0,0.0,0.0,0.0,0.0,0.0,0.0,0.0,0.0,0.0,0.0,0.0,0.0,0.0,0.0,0.0,0.0,0.0,0.0,0.0,0.0,-1.543,-1.5723,-1.5928,-1.5928,-1.6221,-1.6365,-1.6365,-1.6365,-1.6365,-1.6365,-1.6064,-1.6074,-1.6365,-1.6365,-1.6365,-1.6404,-1.71,-1.7451,-1.7568,-1.7881,-1.8008,-1.8008,-1.8008,-1.8008,-1.8008,-1.8008,-1.8178,-1.8461,0.0,0.0,0.0,0.0,0.0,0.0,0.0,0.0,0.0,0.0,0.0,0.0,0.0,0.0,0.0,0.0,0.0,0.0,0.0,0.0,0.0,0.0,0.0,0.0,0.0,0.0,0.0,0.0,0.0,0.0,-1.2698,-1.3121,-1.3488,-1.3883,-1.3856,-1.3415,-1.2689,0.0,0.0,0.0,0.0,0.0,0.0,0.0,0.0,0.0,0.0,0.0,0.0,0.0,0.0,0.0,0.0,0.0,0.0,0.0,0.0,0.0,0.0,0.0,0.0,0.0,0.0,0.0,0.0,0.0,0.0,0.0,0.0,0.0,0.0,0.0,0.0,0.0,0.0,0.0,0.0,0.0,0.0,0.0,0.0,0.0,0.0,0.0,0.0,0.0,0.0,0.0,-1.541,-1.543,-1.5449,-1.5449,-1.5469,-1.5478,-1.5478,-1.5478,-1.5478,-1.5478,-1.5459,-1.5459,-1.5478,-1.5478,-1.5478,-1.5547,-1.6836,-1.7607,-1.7978,-1.7998,-1.8008,-1.8008,-1.8008,-1.8008,-1.8008,-1.8008,-1.8018,-1.8105,0.0,0.0,0.0,0.0,0.0,0.0,0.0,0.0,0.0,0.0,0.0,0.0,0.0,0.0,0.0,0.0,0.0,0.0,0.0,0.0,0.0,0.0,0.0,0.0,0.0,0.0,0.0,0.0,0.0,-1.2303,-1.2698,-1.3121,-1.3369,-1.3543,-1.3772,-1.3745,-1.3461,-1.3203,0.0,0.0,0.0,0.0,0.0,0.0,0.0,0.0,0.0,0.0,0.0,0.0,0.0,0.0,0.0,0.0,0.0,0.0,0.0,0.0,0.0,0.0,0.0,0.0,0.0,0.0,0.0,0.0,0.0,0.0,0.0,0.0,0.0,0.0,0.0,0.0,0.0,0.0,0.0,0.0,0.0,0.0,0.0,0.0,0.0,0.0,0.0,0.0,0.0,0.0,-1.541,-1.541,-1.541,-1.541,-1.541,-1.541,-1.541,-1.541,-1.541,-1.541,-1.541,-1.541,-1.542,-1.5703,-1.586,-1.5919,-1.6966,-1.7305,-1.7204,-1.7783,-1.8008,-1.8008,-1.8008,-1.8008,-1.8008,-1.8008,-1.8008,-1.8037,0.0,0.0,0.0,0.0,0.0,0.0,0.0,0.0,0.0,0.0,0.0,0.0,0.0,0.0,0.0,0.0,0.0,0.0,0.0,0.0,0.0,0.0,0.0,0.0,0.0,0.0,0.0,0.0,0.0,0.0,0.0,0.0,-1.3111,-1.313,-1.3672,0.0,0.0,0.0,0.0,-1.3479,0.0,0.0,-1.3259,0.0,0.0,0.0,0.0,0.0,0.0,0.0,0.0,0.0,0.0,0.0,0.0,0.0,0.0,0.0,0.0,0.0,0.0,0.0,0.0,0.0,0.0,0.0,0.0,0.0,0.0,0.0,0.0,0.0,0.0,0.0,0.0,0.0,0.0,0.0,0.0,0.0,0.0,0.0,0.0,0.0,0.0,0.0,0.0,0.0,-1.541,-1.541,-1.541,-1.541,-1.541,-1.541,-1.541,-1.541,-1.541,-1.541,-1.541,-1.541,-1.542,-1.5713,-1.588,-1.5919,-1.6652,-1.6943,-1.7002,-1.7715,-1.8008,-1.8008,-1.8008,-1.8008,-1.8008,-1.8008,-1.8008,-1.8008,0.0,0.0,0.0,0.0,0.0,0.0,0.0,0.0,0.0,0.0,0.0,0.0,0.0,0.0,0.0,0.0,0.0,0.0,0.0,0.0,0.0,0.0,0.0,0.0,0.0,0.0,0.0,0.0,0.0,0.0,0.0,0.0,-1.2689,0.0,-1.3543,-1.3873,-1.3892,0.0,-1.391,-1.3911,0.0,-1.3332,-1.3351,0.0,0.0,0.0,-1.3296,-1.3296,0.0,0.0,0.0,0.0,0.0,0.0,0.0,0.0,0.0,0.0,0.0,0.0,0.0,0.0,0.0,0.0,0.0,0.0,0.0,0.0,0.0,0.0,0.0,0.0,0.0,0.0,0.0,0.0,0.0,0.0,0.0,0.0,0.0,0.0,0.0,0.0,0.0,0.0,0.0,-1.541,-1.541,-1.541,-1.541,-1.541,-1.541,-1.541,-1.541,-1.541,-1.541,-1.541,-1.541,-1.541,-1.541,-1.5439,-1.5439,-1.5459,-1.5948,-1.6633,-1.7422,-1.7822,-1.7998,-1.8008,-1.8008,-1.8008,-1.8008,-1.8008,-1.7974,-1.7974,0.0,0.0,0.0,0.0,0.0,0.0,0.0,0.0,0.0,0.0,0.0,0.0,0.0,0.0,0.0,0.0,0.0,0.0,0.0,0.0,0.0,0.0,0.0,0.0,0.0,0.0,0.0,0.0,0.0,0.0,0.0,0.0,0.0,0.0,-1.3543,-1.3755,-1.3497,-1.4084,0.0,0.0,-1.4332,-1.4341,0.0,0.0,0.0,0.0,0.0,-1.3296,0.0,0.0,-1.3121,-1.3075,0.0,0.0,0.0,0.0,0.0,0.0,-1.2603,0.0,0.0,0.0,0.0,0.0,0.0,0.0,0.0,0.0,0.0,0.0,0.0,0.0,0.0,0.0,0.0,0.0,0.0,0.0,0.0,0.0,0.0,0.0,0.0,0.0,0.0,0.0,-1.541,-1.541,-1.541,-1.541,-1.541,-1.541,-1.541,-1.541,-1.541,-1.541,-1.541,-1.541,-1.541,-1.541,-1.543,-1.6044,-1.6191,-1.5968,-1.7012,-1.7441,-1.7393,-1.751,-1.7734,-1.8008,-1.8008,-1.8008,-1.8008,-1.8008,-1.7647,-1.7182,0.0,0.0,0.0,0.0,0.0,0.0,0.0,0.0,0.0,0.0,0.0,0.0,0.0,0.0,0.0,0.0,0.0,0.0,0.0,0.0,0.0,0.0,0.0,0.0,0.0,0.0,0.0,0.0,0.0,0.0,0.0,0.0,0.0,0.0,0.0,0.0,0.0,0.0,0.0,0.0,-1.4533,0.0,0.0,-1.4323,-1.4148,0.0,0.0,0.0,-1.3772,-1.3598,-1.3433,0.0,0.0,0.0,0.0,0.0,0.0,0.0,0.0,0.0,0.0,0.0,0.0,0.0,0.0,-1.2985,0.0,0.0,0.0,0.0,0.0,0.0,0.0,0.0,0.0,0.0,0.0,0.0,0.0,0.0,0.0,0.0,0.0,0.0,0.0,0.0,-1.541,-1.541,-1.541,-1.541,-1.541,-1.541,-1.541,-1.541,-1.541,-1.541,-1.541,-1.541,-1.541,-1.541,-1.543,-1.6133,-1.6309,-1.6144,-1.7061,-1.7441,-1.7383,-1.7383,-1.746,-1.7579,-1.7862,-1.7794,-1.7579,-1.7906,-1.7545,-1.6897,0.0,0.0,0.0,0.0,0.0,0.0,0.0,0.0,0.0,0.0,0.0,0.0,0.0,0.0,0.0,0.0,0.0,0.0,0.0,0.0,0.0,0.0,-1.2165,-1.2147,0.0,0.0,0.0,0.0,0.0,0.0,0.0,0.0,0.0,0.0,0.0,0.0,0.0,0.0,0.0,-1.3983,-1.4405,-1.4607,0.0,0.0,-1.4643,0.0,-1.4588,-1.4579,-1.4515,-1.4093,-1.369,0.0,0.0,0.0,0.0,0.0,-1.2665,0.0,0.0,0.0,0.0,0.0,0.0,0.0,-1.2474,-1.241,-1.2457,0.0,0.0,0.0,0.0,0.0,0.0,0.0,0.0,0.0,0.0,0.0,0.0,0.0,0.0,0.0,0.0,0.0,-1.5391,-1.5342,-1.5381,-1.541,-1.541,-1.541,-1.541,-1.541,-1.541,-1.541,-1.541,-1.541,-1.541,-1.541,-1.541,-1.541,-1.543,-1.5889,-1.6095,-1.6114,-1.6543,-1.6982,-1.7383,-1.7383,-1.7207,-1.6975,-1.7613,-1.7432,-1.6862,-1.751,-1.7295,-1.6655,0.0,0.0,0.0,0.0,0.0,0.0,0.0,0.0,0.0,0.0,0.0,0.0,0.0,0.0,0.0,0.0,0.0,0.0,0.0,0.0,-1.2928,-1.2588,-1.2579,-1.2432,-1.211,0.0,0.0,0.0,0.0,0.0,0.0,0.0,0.0,0.0,0.0,0.0,0.0,0.0,0.0,-1.4423,-1.4827,0.0,-1.546,-1.546,-1.546,-1.5414,-1.5102,-1.4983,-1.4928,0.0,-1.4112,-1.3782,0.0,0.0,0.0,0.0,0.0,0.0,0.0,0.0,0.0,0.0,0.0,0.0,-1.2457,-1.2576,-1.2719,0.0,0.0,0.0,0.0,0.0,0.0,0.0,0.0,0.0,0.0,0.0,0.0,0.0,0.0,0.0,0.0,0.0,-1.5273,-1.4932,-1.5215,-1.541,-1.541,-1.541,-1.541,-1.541,-1.541,-1.541,-1.541,-1.541,-1.541,-1.541,-1.541,-1.541,-1.543,-1.5889,-1.6095,-1.6114,-1.6543,-1.6982,-1.7383,-1.7383,-1.7207,-1.6897,-1.7044,-1.662,-1.5956,-1.6097,-1.5666,-1.5029,0.0,0.0,0.0,0.0,0.0,0.0,0.0,0.0,0.0,0.0,0.0,0.0,0.0,0.0,0.0,0.0,0.0,0.0,0.0,0.0,-1.3204,-1.302,-1.301,-1.2883,-1.269,-1.2707,0.0,0.0,0.0,0.0,0.0,0.0,0.0,0.0,0.0,0.0,0.0,0.0,-1.4625,-1.4827,-1.5019,0.0,-1.5689,-1.5689,-1.5689,-1.5661,-1.546,-1.5267,-1.5038,-1.4643,-1.4368,0.0,0.0,-1.3892,-1.3827,0.0,-1.3433,-1.3543,0.0,0.0,0.0,-1.3056,0.0,0.0,0.0,-1.2496,-1.2496,0.0,0.0,0.0,0.0,0.0,0.0,0.0,0.0,0.0,0.0,0.0,0.0,0.0,0.0,0.0,0.0,0.0,-1.4775,-1.4813,-1.498,-1.5186,-1.54,-1.541,-1.541,-1.541,-1.541,-1.541,-1.541,-1.541,-1.541,-1.541,-1.541,-1.541,-1.543,-1.5889,-1.6212,-1.6416,-1.6865,-1.7178,-1.7383,-1.7025,-1.6442,-1.5833,-1.6604,-1.6193,-1.5207,-1.5561,-1.5242,-1.4573,0.0,0.0,0.0,0.0,0.0,0.0,0.0,0.0,0.0,0.0,0.0,0.0,0.0,0.0,0.0,0.0,0.0,0.0,0.0,0.0,0.0,0.0,-1.3461,-1.3396,-1.3296,-1.3296,-1.3323,0.0,0.0,0.0,0.0,0.0,0.0,0.0,0.0,0.0,0.0,0.0,0.0,-1.5331,0.0,-1.5524,-1.5817,-1.589,-1.5918,-1.5909,-1.5835,-1.5551,-1.5166,-1.4845,0.0,-1.468,-1.4341,-1.446,0.0,0.0,0.0,0.0,0.0,0.0,0.0,0.0,0.0,-1.2582,0.0,0.0,0.0,0.0,0.0,0.0,0.0,0.0,0.0,0.0,0.0,0.0,0.0,0.0,0.0,0.0,0.0,0.0,0.0,0.0,-1.425,-1.4629,-1.4814,-1.5019,-1.5273,-1.5371,-1.541,-1.541,-1.541,-1.541,-1.541,-1.541,-1.541,-1.541,-1.5264,-1.5235,-1.5245,-1.5503,-1.5804,-1.6202,-1.6661,-1.684,-1.6811,-1.6337,-1.5456,-1.4569,-1.5848,-1.5521,-1.4371,-1.5048,-1.4895,-1.4358,0.0,0.0,0.0,0.0,0.0,0.0,0.0,0.0,0.0,0.0,0.0,0.0,0.0,0.0,0.0,0.0,0.0,0.0,-1.5955,0.0,0.0,0.0,0.0,0.0,-1.3305,-1.3296,-1.335,0.0,0.0,0.0,0.0,0.0,0.0,0.0,-1.4736,0.0,0.0,0.0,-1.5573,0.0,-1.6151,-1.6178,0.0,-1.6633,-1.6771,-1.6725,-1.6376,-1.5973,-1.5615,0.0,-1.5551,-1.5542,0.0,-1.5515,0.0,0.0,0.0,0.0,0.0,0.0,0.0,0.0,-1.2827,0.0,0.0,0.0,0.0,0.0,0.0,0.0,0.0,0.0,0.0,0.0,0.0,0.0,0.0,0.0,0.0,0.0,0.0,0.0,0.0,0.0,0.0,-1.4182,-1.4912,-1.5205,-1.4873,-1.5205,-1.541,-1.541,-1.541,-1.541,-1.541,-1.541,-1.541,-1.5381,-1.4854,-1.4588,-1.4588,-1.4036,-1.3991,-1.4316,-1.4696,-1.4857,-1.4928,-1.5151,-1.4687,-1.3832,-1.4271,-1.3905,-1.323,-1.3598,-1.371,-1.3601,0.0,0.0,0.0,0.0,0.0,0.0,0.0,0.0,0.0,0.0,0.0,0.0,0.0,0.0,0.0,0.0,0.0,-1.6332,0.0,0.0,0.0,0.0,0.0,0.0,0.0,-1.4279,-1.4307,0.0,-1.4364,0.0,0.0,0.0,0.0,0.0,-1.526,0.0,-1.5811,0.0,0.0,0.0,0.0,0.0,0.0,-1.6879,-1.6908,-1.6853,-1.6425,-1.6202,-1.601,0.0,-1.5689,0.0,0.0,0.0,0.0,0.0,0.0,0.0,0.0,0.0,0.0,0.0,0.0,0.0,0.0,0.0,-1.108,0.0,0.0,0.0,0.0,0.0,0.0,0.0,0.0,0.0,0.0,0.0,0.0,0.0,0.0,0.0,0.0,0.0,0.0,0.0,0.0,-1.4443,-1.4766,-1.4951,-1.5156,-1.5371,-1.5059,-1.4967,-1.5111,-1.4579,-1.4487,-1.4885,-1.4405,-1.4298,-1.4486,-1.4202,-1.4279,-1.4652,-1.4783,-1.4863,-1.4874,-1.4637,-1.4148,-1.3583,-1.3485,-1.3274,-1.3045,-1.3375,-1.3492,-1.3455,0.0,0.0,0.0,0.0,0.0,0.0,0.0,0.0,0.0,0.0,0.0,0.0,-1.9474,-1.9246,0.0,0.0,0.0,-1.7243,0.0,0.0,-1.5747,0.0,0.0,0.0,0.0,0.0,0.0,0.0,0.0,0.0,0.0,0.0,0.0,0.0,0.0,-1.5964,-1.6459,0.0,0.0,-1.7059,-1.7059,-1.7128,-1.7166,-1.6968,-1.6908,-1.6872,-1.6578,-1.6443,-1.6398,-1.5888,-1.5722,0.0,-1.4832,0.0,0.0,0.0,0.0,0.0,-1.3665,0.0,0.0,0.0,0.0,0.0,0.0,0.0,0.0,0.0,0.0,0.0,0.0,0.0,0.0,0.0,0.0,0.0,0.0,0.0,0.0,0.0,0.0,0.0,0.0,0.0,0.0,0.0,-1.3365,0.0,-1.4213,-1.4603,-1.4837,-1.4965,-1.465,-1.4541,-1.4653,-1.3987,-1.3936,-1.4477,-1.4069,-1.398,-1.4214,-1.4049,-1.4145,-1.454,-1.4604,-1.462,-1.4498,-1.4084,-1.3656,-1.3207,-1.3051,-1.3009,-1.3045,-1.3375,-1.3492,-1.3499,-1.3461,-1.3743,0.0,0.0,0.0,0.0,0.0,0.0,0.0,0.0,0.0,0.0,0.0,0.0,0.0,0.0,0.0,-1.8549,-1.852,0.0,-1.6604,0.0,0.0,-1.6172,0.0,0.0,0.0,0.0,0.0,0.0,0.0,0.0,0.0,0.0,0.0,-1.6261,-1.7071,-1.7071,-1.7221,-1.7486,-1.7486,-1.7382,-1.7166,0.0,-1.6908,-1.6908,-1.689,0.0,0.0,-1.6053,-1.5799,0.0,0.0,0.0,0.0,0.0,0.0,0.0,0.0,0.0,0.0,-1.2583,0.0,0.0,0.0,0.0,-1.0246,0.0,0.0,0.0,0.0,0.0,0.0,0.0,0.0,0.0,0.0,0.0,0.0,0.0,0.0,0.0,0.0,0.0,0.0,-1.1352,-1.301,0.0,-1.2796,-1.4055,-1.4505,-1.3882,-1.4258,-1.436,-1.4036,-1.4004,-1.416,-1.4477,-1.3826,-1.3519,-1.3502,-1.2848,-1.2736,-1.3092,-1.3398,-1.3384,-1.3085,-1.339,-1.3117,-1.2548,-1.2877,-1.3009,-1.3045,-1.3375,-1.3492,-1.3492,0.0,0.0,0.0,0.0,0.0,0.0,0.0,-1.9485,0.0,0.0,0.0,0.0,0.0,0.0,-2.1855,0.0,0.0,-1.9668,-1.9102,-1.8354,0.0,0.0,0.0,-1.7148,0.0,0.0,0.0,0.0,0.0,0.0,0.0,0.0,0.0,0.0,0.0,-1.7158,0.0,0.0,0.0,0.0,0.0,-1.7795,-1.7919,0.0,0.0,-1.6908,-1.6908,-1.6586,0.0,-1.6447,-1.586,-1.4966,-1.4673,-1.4601,-1.4363,-1.3215,-1.3077,0.0,0.0,0.0,-1.1813,-1.2082,0.0,0.0,0.0,0.0,0.0,0.0,0.0,0.0,0.0,0.0,0.0,0.0,0.0,0.0,0.0,0.0,0.0,0.0,0.0,0.0,0.0,0.0,0.0,-1.1209,-1.1823,-1.2181,0.0,-1.2824,-1.3225,-1.3283,-1.3415,-1.3569,-1.3688,-1.3237,-1.3299,-1.3827,-1.3388,-1.3292,-1.3474,-1.3269,-1.3228,-1.3323,-1.3456,-1.3435,-1.3359,-1.3456,-1.3375,-1.3177,-1.3287,-1.3331,-1.3345,-1.3302,-1.3309,-1.3302,-1.5302,0.0,0.0,0.0,0.0,0.0,0.0,0.0,0.0,0.0,-2.2993,0.0,-2.3965,0.0,-2.291,0.0,-2.1699,-2.0703,-1.9832,-1.9336,0.0,-1.8096,-1.8174,0.0,0.0,0.0,0.0,0.0,0.0,-1.6602,0.0,0.0,0.0,0.0,0.0,0.0,0.0,0.0,-1.8008,0.0,0.0,-1.7923,0.0,0.0,-1.7469,-1.7234,0.0,-1.6598,-1.5859,-1.6174,-1.5367,-1.4178,-1.3882,-1.3781,-1.36,-1.2586,-1.2521,-1.2699,-1.2391,-1.2024,0.0,-1.1879,-1.151,0.0,-1.1015,0.0,0.0,0.0,0.0,0.0,0.0,0.0,0.0,0.0,0.0,0.0,0.0,0.0,0.0,0.0,0.0,0.0,0.0,0.0,-1.0669,-1.0566,-1.0947,-1.1311,0.0,0.0,-1.2467,-1.2601,-1.2857,-1.3049,-1.3135,-1.2833,-1.2965,-1.3492,-1.3279,-1.3294,-1.3492,-1.3492,-1.3492,-1.3492,-1.3492,-1.3492,-1.3492,-1.3492,-1.3492,-1.3492,-1.3492,-1.3492,-1.3499,-1.3273,-1.3227,-1.32,0.0,0.0,0.0,0.0,-1.7588,0.0,0.0,0.0,-2.2236,0.0,-2.3594,-2.4014,-2.4434,-2.4082,-2.3662,-2.3306,-2.2422,0.0,-2.0752,-2.0254,0.0,0.0,-1.8975,-1.85,-1.8047,0.0,0.0,0.0,0.0,0.0,0.0,0.0,0.0,0.0,-1.7445,0.0,-1.8008,-1.8037,-1.8057,-1.8076,-1.8076,-1.7974,-1.785,-1.8264,0.0,-1.7901,-1.7847,-1.7,-1.5803,-1.543,-1.4502,-1.3397,-1.2633,-1.2382,-1.2345,-1.2345,-1.2338,-1.2325,-1.2325,-1.2311,-1.2238,-1.1993,0.0,0.0,0.0,0.0,-1.0828,0.0,0.0,0.0,0.0,0.0,0.0,0.0,0.0,0.0,0.0,0.0,0.0,0.0,0.0,0.0,0.0,-0.9684,-0.9935,-0.9439,-1.0464,-1.1054,0.0,0.0,0.0,-1.1878,-1.2601,-1.2812,-1.2485,-1.2862,-1.3184,-1.3492,-1.3492,-1.3492,-1.3492,-1.3492,-1.3492,-1.3492,-1.3492,-1.3492,-1.3492,-1.3492,-1.3492,-1.3492,-1.3514,-1.3521,-1.3484,-1.3294,-1.3252,-1.3241,-1.7529,-1.8369,-1.9062,0.0,-1.9033,-1.9668,0.0,0.0,0.0,0.0,-2.4473,-2.4912,-2.5304,-2.4717,-2.4209,-2.4102,-2.3027,0.0,0.0,0.0,0.0,-2.0312,-2.0449,-1.9874,-1.8471,-1.8789,0.0,-1.7686,0.0,0.0,-1.7676,0.0,0.0,0.0,0.0,0.0,-1.8037,-1.8305,-1.8662,-1.8965,-1.8965,-1.9104,0.0,0.0,-1.9116,-1.9172,-1.8654,-1.7798,-1.6861,-1.6667,-1.5581,-1.4179,-1.3865,-1.3417,-1.2979,-1.2979,-1.2812,-1.267,-1.267,-1.2472,-1.2285,-1.2204,-1.1971,-1.1677,0.0,0.0,0.0,0.0,0.0,0.0,0.0,0.0,0.0,0.0,0.0,0.0,0.0,0.0,0.0,0.0,0.0,0.0,-0.8982,-0.9185,-0.9335,-0.9387,-0.9692,-0.9989,0.0,0.0,0.0,-1.1294,-1.2183,-1.2598,-1.2485,-1.3082,-1.3411,-1.3492,-1.3492,-1.3492,-1.3492,-1.3492,-1.3492,-1.3492,-1.3492,-1.3492,-1.3492,-1.3492,-1.3492,-1.3521,-1.3762,-1.3783,-1.3626,-1.3356,-1.3209,-1.3105,-1.8838,0.0,0.0,-2.0742,0.0,0.0,-2.2295,0.0,0.0,-2.4297,-2.4795,0.0,-2.542,-2.4824,-2.4414,-2.4414,-2.3418,0.0,0.0,0.0,0.0,-2.0898,-2.0908,-2.0391,-1.9182,-1.9258,0.0,-1.8247,0.0,0.0,-1.8008,0.0,0.0,0.0,0.0,-1.8008,0.0,-1.8422,-1.8851,-1.9287,-1.9287,0.0,0.0,-1.958,-1.9642,-1.9696,-1.9174,-1.8044,-1.6796,-1.6459,-1.5319,-1.4045,-1.3881,-1.3548,-1.3213,-1.3213,-1.3025,-1.2784,-1.2784,-1.2563,-1.2305,-1.2305,-1.2084,-1.1859,-1.1657,-1.1296,-1.0949,0.0,0.0,0.0,0.0,0.0,0.0,0.0,0.0,0.0,0.0,0.0,0.0,0.0,0.0,0.0,-0.8923,-0.8962,-0.9087,-0.9283,-0.9515,-0.9811,0.0,0.0,0.0,-1.1305,-1.2233,-1.2631,-1.2485,-1.3309,-1.3638,-1.3492,-1.3492,-1.3492,-1.3492,-1.3492,-1.3492,-1.3492,-1.3492,-1.3492,-1.3492,-1.3492,-1.3492,-1.3514,-1.3623,-1.3663,-1.3649,-1.3547,-1.3397,-1.3272,0.0,0.0,0.0,0.0,0.0,0.0,0.0,-2.3726,0.0,-2.4453,0.0,-2.5184,-2.5125,-2.4678,-2.4394,-2.4336,0.0,-2.2945,-2.2617,-2.2598,-2.2175,-2.1317,-2.0947,-2.0517,-1.9922,-1.9561,0.0,0.0,0.0,0.0,0.0,0.0,0.0,0.0,0.0,0.0,0.0,-1.8588,-1.9053,0.0,-1.9453,-1.9453,-1.9492,-1.9863,-1.9924,-1.9783,-1.9282,-1.8057,-1.6544,-1.5729,-1.4714,-1.3738,-1.344,-1.3327,-1.3327,-1.3327,-1.3106,-1.2891,-1.2857,-1.263,-1.2351,-1.2311,-1.2111,-1.1953,-1.1913,-1.1476,-1.1082,-1.1009,-1.0821,-1.0559,0.0,0.0,0.0,0.0,0.0,0.0,0.0,0.0,0.0,0.0,0.0,0.0,0.0,0.0,-0.9102,-0.9185,-0.959,0.0,0.0,0.0,0.0,0.0,-1.246,0.0,-1.2616,0.0,-1.3821,-1.3623,-1.3579,-1.3558,-1.3558,-1.3558,-1.3558,-1.3558,-1.3514,-1.3492,-1.3492,-1.3492,-1.3521,-1.3558,-1.333,-1.3413,-1.3682,-1.3768,-1.3722,-1.3565,0.0,0.0,0.0,0.0,0.0,-2.3789,-2.4141,-2.456,-2.492,-2.4988,-2.5342,-2.5478,-2.5155,-2.4678,-2.4277,-2.3935,-2.3393,0.0,0.0,0.0,0.0,-2.1807,-2.1699,-2.1113,-1.9941,-1.9844,-1.9387,0.0,-1.8598,-1.8383,0.0,0.0,0.0,0.0,0.0,0.0,-1.9092,-1.9512,0.0,-2.038,-2.038,-2.038,-2.039,-2.0458,-2.0023,-1.9319,-1.8501,-1.8351,-1.8285,-1.6717,-1.5812,-1.5192,-1.4448,-1.4088,-1.3935,-1.3935,-1.3721,-1.3393,-1.3193,-1.2945,-1.265,-1.2365,-1.2265,-1.2164,-1.196,-1.1826,-1.1611,-1.1089,-1.0955,-1.0828,-1.0566,0.0,0.0,0.0,0.0,0.0,0.0,0.0,0.0,0.0,0.0,0.0,0.0,0.0,0.0,0.0,0.0,0.0,0.0,0.0,0.0,0.0,0.0,0.0,0.0,0.0,0.0,-1.4335,-1.4026,-1.3894,-1.3894,-1.3894,-1.3894,-1.3879,-1.3616,-1.3492,-1.3492,-1.3492,-1.3653,-1.3894,-1.3617,-1.3734,-1.4016,-1.3896,-1.3851,-1.3892,0.0,0.0,0.0,0.0,0.0,0.0,0.0,-2.5469,0.0,-2.5174,-2.5254,-2.5312,-2.5135,-2.4678,-2.4336,-2.4131,-2.3471,-2.3091,-2.3091,-2.3091,-2.2818,-2.2236,-2.2002,0.0,-2.0576,-2.0146,-1.967,-1.926,-1.9082,-1.8867,0.0,0.0,0.0,0.0,0.0,-1.9023,0.0,0.0,0.0,-2.0566,-2.0089,-1.9932,-1.9893,-1.9402,-1.9006,-1.8527,-1.7634,-1.7545,-1.7585,-1.6188,-1.5582,-1.5284,-1.4734,-1.4405,-1.4243,-1.4243,-1.3951,-1.3573,-1.3433,-1.3213,-1.2951,-1.2643,-1.2569,-1.2489,-1.2164,-1.2013,-1.1826,-1.1538,-1.1202,-1.0935,-1.0646,-1.0472,0.0,0.0,0.0,0.0,0.0,0.0,0.0,0.0,0.0,0.0,0.0,0.0,0.0,0.0,0.0,0.0,0.0,0.0,0.0,0.0,0.0,0.0,0.0,0.0,0.0,-1.4254,-1.3887,-1.3821,-1.3975,-1.3806,-1.3733,-1.3718,-1.3565,-1.3492,-1.3492,-1.3492,-1.3689,-1.3944,-1.3589,-1.3758,-1.4203,-1.4027,-1.3988,-1.4019,0.0,-2.3125,0.0,0.0,-2.4922,0.0,-2.5635,-2.6025,-2.5996,-2.5303,-2.5215,-2.5137,-2.4951,-2.4619,-2.4346,-2.416,-2.3481,-2.3091,-2.3091,-2.3091,-2.2906,-2.2529,-2.2197,-2.1777,-2.121,-2.0518,-2.0107,0.0,-1.958,-1.9375,0.0,0.0,0.0,0.0,0.0,0.0,0.0,0.0,-2.0254,-2.0527,-1.9854,-1.946,-1.9222,-1.8527,-1.8037,-1.7634,-1.6944,-1.6576,-1.6296,-1.5458,-1.5131,-1.5048,-1.4866,-1.465,-1.4482,-1.4482,-1.4109,-1.3762,-1.3695,-1.3474,-1.3227,-1.2958,-1.2884,-1.2804,-1.2465,-1.2254,-1.2053,-1.1933,-1.1437,-1.0922,-1.0727,-1.0633,0.0,0.0,0.0,0.0,0.0,0.0,0.0,0.0,0.0,0.0,0.0,0.0,0.0,0.0,0.0,0.0,-1.0572,-1.0997,0.0,0.0,0.0,-1.2987,-1.2936,0.0,-1.4048,0.0,-1.3923,-1.3938,-1.4179,-1.3916,-1.3806,-1.3799,-1.3733,-1.3704,-1.3704,-1.3704,-1.385,-1.4054,-1.3683,-1.3852,-1.4293,-1.407,-1.4047,-1.4088,0.0,0.0,0.0,0.0,0.0,0.0,0.0,-2.5723,-2.5723,-2.5635,-2.5625,-2.5323,-2.457,-2.4443,-2.4102,-2.3276,-2.314,-2.3091,-2.3091,-2.3091,-2.2906,-2.2529,-2.2471,-2.2029,-2.121,-2.1112,-2.0674,0.0,0.0,-1.9658,-1.9287,0.0,0.0,0.0,0.0,0.0,0.0,-2.0332,-2.0566,-2.0605,-2.0527,-2.001,-1.9301,-1.9222,-1.8198,-1.6821,-1.6739,-1.618,-1.5506,-1.5431,-1.5257,-1.509,-1.509,-1.4873,-1.465,-1.465,-1.4503,-1.4254,-1.4029,-1.3777,-1.3493,-1.324,-1.3166,-1.3086,-1.2811,-1.2723,-1.2549,-1.2013,-1.1437,-1.0982,-1.0955,-1.0767,-1.0586,0.0,0.0,0.0,0.0,0.0,0.0,0.0,0.0,0.0,0.0,0.0,0.0,0.0,0.0,-1.0215,-1.0572,-1.121,-1.1826,-1.2416,0.0,-1.3418,-1.4313,-1.4084,0.0,-1.4812,-1.4783,-1.4783,-1.4812,-1.4783,-1.4769,-1.4754,-1.4501,-1.4416,-1.4416,-1.4416,-1.4438,-1.445,-1.425,-1.423,-1.4273,-1.415,-1.4104,-1.4088,0.0,0.0,0.0,0.0,0.0,0.0,0.0,-2.6328,-2.611,-2.5965,-2.5594,-2.5253,-2.5088,-2.4447,-2.3906,-2.3555,-2.3247,-2.3091,-2.3091,-2.3091,-2.3023,-2.2847,-2.2646,-2.2236,-2.1641,-2.1327,-2.0928,0.0,0.0,-2.0263,-2.0096,-2.0096,0.0,0.0,0.0,-2.0859,-2.1113,-2.1289,-2.1398,-2.1317,-2.0802,-1.9902,-1.883,-1.8331,-1.7219,-1.5906,-1.5906,-1.5707,-1.5389,-1.5389,-1.5347,-1.5257,-1.5257,-1.5131,-1.4957,-1.4957,-1.4783,-1.4538,-1.4462,-1.4262,-1.4028,-1.3736,-1.3548,-1.3347,-1.2898,-1.2784,-1.2663,-1.2211,-1.1839,-1.1444,-1.1062,-1.0902,-1.0794,0.0,0.0,0.0,0.0,0.0,0.0,0.0,0.0,0.0,0.0,0.0,0.0,0.0,0.0,-1.016,-1.0572,-1.1048,-1.1655,-1.2456,0.0,-1.3184,-1.421,-1.4086,-1.4304,-1.49,-1.475,-1.4757,-1.4893,-1.4743,-1.4655,-1.4648,-1.4562,-1.4511,-1.4511,-1.4511,-1.4582,-1.4725,-1.4567,-1.452,-1.4524,-1.4322,-1.4201,-1.4088,-2.5349,0.0,-2.5802,0.0,-2.6426,-2.6378,-2.7,-2.6778,-2.6448,-2.6245,-2.5628,-2.5218,-2.5184,-2.4474,-2.3877,-2.3623,-2.3276,-2.3091,-2.3091,-2.3091,-2.3091,-2.3091,-2.2808,0.0,-2.208,-2.1768,-2.1396,-2.0997,-2.0997,0.0,-2.0997,0.0,0.0,0.0,-2.1426,-2.1592,-2.1885,-2.1885,-2.1885,-2.1843,-2.1233,-2.0069,-1.8657,-1.8012,-1.6828,-1.5513,-1.5418,-1.5389,-1.5389,-1.5389,-1.5389,-1.5389,-1.5389,-1.5298,-1.5173,-1.5173,-1.4999,-1.4824,-1.4824,-1.465,-1.4427,-1.4262,-1.4049,-1.3797,-1.3277,-1.3094,-1.288,-1.2415,-1.2107,-1.1779,-1.1329,-1.1176,-1.1115,-1.1067,0.0,0.0,0.0,0.0,0.0,0.0,0.0,-1.029,-1.0349,0.0,0.0,0.0,0.0,0.0,-1.0858,-1.1305,0.0,0.0,0.0,0.0,0.0,-1.4216,-1.4494,-1.49,-1.4809,-1.4867,-1.5039,-1.4853,-1.475,-1.475,-1.475,-1.471,-1.467,-1.467,-1.4754,-1.4835,-1.4623,-1.4586,-1.4608,-1.4405,-1.4201,-1.4088,-2.5732,-2.6174,-2.6617,-2.701,-2.7081,-2.7081,-2.7091,-2.6778,-2.6496,-2.6496,-2.5924,-2.5241,-2.4473,-2.4414,-2.4072,-2.3179,-2.3101,-2.3091,-2.3091,-2.3091,-2.3091,0.0,0.0,-2.2886,-2.251,-2.25,-2.2295,-2.1865,0.0,0.0,-2.1865,0.0,-2.1875,-2.1875,-2.1875,-2.1875,-2.1885,-2.1885,-2.1885,-2.1885,-2.1885,-2.0755,-1.9067,-1.8732,-1.7476,-1.587,-1.5506,-1.5389,-1.5389,-1.5389,-1.5389,-1.5389,-1.5389,-1.5389,-1.5389,-1.5389,-1.5257,-1.509,-1.509,-1.4915,-1.4692,-1.4692,-1.4692,-1.4566,-1.409,-1.3747,-1.324,-1.2462,-1.2107,-1.1899,-1.1893,-1.1617,-1.1585,-1.2093,0.0,0.0,0.0,0.0,0.0,0.0,-1.1076,-1.1146,-1.1365,0.0,0.0,0.0,0.0,0.0,0.0,0.0,0.0,-1.2994,-1.3631,0.0,-1.4496,-1.4772,-1.4893,-1.4907,-1.5228,-1.5382,-1.5382,-1.5382,-1.5374,-1.5374,-1.5374,-1.5291,-1.5075,-1.5075,-1.4943,-1.4685,-1.4475,-1.4391,-1.4398,-1.4166,-1.4088,-1.4088,-2.6825,-2.6921,-2.7112,-2.7208,-2.7229,-2.7229,-2.7229,-2.7116,-2.6976,-2.6805,-2.6161,-2.5428,-2.475,-2.4251,-2.3805,0.0,-2.3188,-2.3091,0.0,-2.3091,-2.3091,-2.3091,-2.3091,-2.2896,-2.2519,-2.251,-2.2305,-2.1885,0.0,0.0,0.0,-2.1885,-2.2041,-2.2314,-2.2314,-2.2121,-2.1764,-2.1764,-2.1362,-2.073,-2.073,-1.9747,-1.8191,-1.8077,-1.704,-1.5528,-1.5425,-1.5389,-1.5389,-1.5389,-1.5389,-1.5389,-1.5389,-1.5389,-1.5389,-1.5389,-1.5347,-1.5298,-1.5298,-1.5131,-1.4957,-1.4957,-1.4824,-1.4615,-1.4267,-1.3961,-1.3634,-1.3147,-1.2988,-1.2795,-1.2379,-1.222,-1.2116,-1.2075,-1.1785,0.0,0.0,0.0,0.0,0.0,0.0,-1.1686,0.0,-1.1992,0.0,0.0,0.0,0.0,0.0,0.0,0.0,0.0,-1.3543,0.0,-1.5116,-1.4966,-1.5017,-1.5236,-1.5338,-1.5389,-1.5389,-1.5389,-1.5389,-1.5389,-1.5389,-1.5305,-1.509,-1.509,-1.4957,-1.4692,-1.465,-1.4524,-1.4398,-1.4321,-1.4201,-1.4088,-2.7309,-2.7309,-2.7309,-2.7309,-2.7309,-2.7309,-2.7309,-2.7309,-2.7214,-2.6948,-2.6361,-2.5708,-2.5127,-2.436,0.0,-2.3402,-2.3188,-2.3091,-2.3091,-2.3091,-2.3091,-2.3091,-2.3091,-2.2974,-2.2711,0.0,0.0,-2.2353,-2.2353,-2.2353,-2.2353,-2.2353,-2.249,-2.2744,-2.2744,-2.236,-2.1695,-2.1695,-2.1105,-2.0178,-2.0078,-1.9212,-1.7942,-1.773,-1.6784,-1.5557,-1.5433,-1.5389,-1.5389,-1.5389,-1.5389,-1.5389,-1.5389,-1.5389,-1.5389,-1.5389,-1.5389,-1.5389,-1.5389,-1.5305,-1.5215,-1.5215,-1.5082,-1.4872,-1.4519,-1.4212,-1.3947,-1.3645,-1.3575,-1.3421,-1.2915,-1.2824,-1.2762,-1.248,-1.2228,-1.2151,-1.2365,0.0,0.0,0.0,0.0,0.0,0.0,-1.264,0.0,0.0,0.0,0.0,0.0,0.0,0.0,-1.3477,-1.385,0.0,-1.5199,-1.5126,-1.5185,-1.5389,-1.5513,-1.5571,-1.5571,-1.5571,-1.5506,-1.5389,-1.5389,-1.5305,-1.509,-1.4999,-1.4824,-1.458,-1.4613,-1.4508,-1.4306,-1.453,-1.4397,-1.4102,-2.7309,-2.7309,0.0,0.0,-2.7309,0.0,-2.7309,-2.7309,-2.7204,-2.6897,-2.6451,-2.6002,-2.5498,-2.4636,-2.3841,-2.3218,0.0,0.0,0.0,-2.3091,-2.3091,-2.3091,-2.3091,-2.3091,-2.3091,-2.3091,-2.3091,-2.3091,-2.3091,-2.3091,-2.3091,-2.3091,-2.3091,-2.3091,-2.3091,-2.2555,-2.1606,-2.1606,-2.0962,-1.998,-1.9722,-1.9037,-1.8147,-1.756,-1.6753,-1.587,-1.5506,-1.5389,-1.5389,-1.5389,-1.5389,-1.5389,-1.5389,-1.5389,-1.5389,-1.5389,-1.5389,-1.5389,-1.5389,-1.5389,-1.5389,-1.5389,-1.5389,-1.5267,-1.4751,-1.4517,-1.4311,-1.4047,-1.3977,-1.3885,-1.3529,-1.3452,-1.3384,-1.3278,-1.2964,-1.2791,-1.3003,0.0,0.0,0.0,0.0,0.0,0.0,-1.3075,-1.295,0.0,0.0,0.0,0.0,0.0,-1.3909,-1.3543,-1.4411,-1.4915,-1.4936,-1.5258,-1.5433,-1.5455,-1.5804,-1.595,-1.595,-1.595,-1.5739,-1.5455,-1.5433,-1.5349,-1.5154,-1.4867,-1.4614,-1.4487,-1.4522,-1.4389,-1.4215,-1.4807,-1.466,-1.4188,0.0,0.0,-2.7309,-2.7309,-2.7309,-2.7309,-2.7309,-2.7309,-2.7138,-2.6739,-2.6131,-2.5543,-2.5084,-2.4361,-2.3821,-2.3634,-2.3309,-2.3091,-2.3091,-2.3091,-2.3091,-2.3091,-2.3091,-2.3091,-2.3091,-2.3091,-2.3091,-2.3091,-2.3091,-2.3091,-2.3091,-2.3091,-2.3091,-2.3091,-2.3091,-2.2138,-2.0548,-2.0548,-1.955,-1.8002,-1.7926,-1.7606,-1.7214,-1.6794,-1.6328,-1.587,-1.5506,-1.5389,-1.5389,-1.5389,-1.5389,-1.5389,-1.5389,-1.5389,-1.5389,-1.5389,-1.5389,-1.5389,-1.5389,-1.5389,-1.5389,-1.5389,-1.5389,-1.5367,-1.5245,-1.5189,-1.5054,-1.4735,-1.4663,-1.4569,-1.4289,-1.4028,-1.384,-1.3804,-1.3403,-1.3158,-1.3346,-1.2955,0.0,0.0,-1.3536,-1.3477,-1.3726,-1.3748,-1.3718,0.0,0.0,0.0,0.0,0.0,-1.4714,-1.3894,-1.4528,-1.5017,-1.5272,-1.5593,-1.5921,-1.6148,-1.6221,-1.6265,-1.6265,-1.6265,-1.6221,-1.6133,-1.5899,-1.5763,-1.574,-1.5275,-1.5094,-1.5089,-1.4956,-1.4861,-1.4821,-1.4955,-1.4921,-1.4814,-2.7521,-2.7444,-2.7309,-2.7309,-2.7309,-2.7309,-2.7309,-2.7123,-2.6895,-2.6646,-2.6094,-2.555,-2.5108,-2.4611,-2.4203,-2.4001,-2.3537,-2.3276,-2.3276,-2.3188,-2.3091,-2.3091,-2.3091,-2.3091,-2.3091,-2.3091,-2.3091,-2.3091,-2.3091,-2.3091,-2.3091,-2.3091,-2.3091,-2.3091,-2.3091,-2.228,-2.0872,-2.0421,-1.933,-1.7909,-1.735,-1.7011,-1.6866,-1.6536,-1.6177,-1.5891,-1.5673,-1.5513,-1.5411,-1.5599,-1.5513,-1.5433,-1.5767,-1.576,-1.5679,-1.5818,-1.5657,-1.5389,-1.5389,-1.5389,-1.5425,-1.5571,-1.5498,-1.5425,-1.5571,-1.5608,-1.5599,-1.5382,-1.5496,-1.5452,-1.4992,-1.4765,-1.4494,-1.4055,-1.3754,-1.3549,-1.3521,-1.3397,0.0,-1.3938,-1.396,-1.4049,-1.4225,-1.4247,-1.4247,-1.4247,0.0,0.0,-1.4518,-1.5079,-1.5116,-1.4443,-1.4863,-1.5279,-1.565,-1.5965,-1.6279,-1.6639,-1.6639,-1.6639,-1.6639,-1.6639,-1.6551,-1.6404,-1.6199,-1.6133,-1.6139,-1.5658,-1.5466,-1.5449,-1.5239,-1.5122,-1.5042,-1.5264,-1.519,-1.5028,-2.7852,-2.7572,-2.7309,-2.7309,-2.7309,-2.7309,-2.7309,-2.6978,-2.6698,-2.6625,-2.6273,-2.5813,-2.5378,-2.5098,-2.4771,-2.4382,-2.3891,-2.359,-2.3547,-2.3319,-2.3144,-2.3144,-2.3135,-2.3091,-2.3091,-2.3091,-2.3091,-2.3091,-2.3091,-2.3091,-2.3091,-2.3091,-2.3091,-2.3091,-2.3091,-2.2599,-2.165,-2.0647,-1.965,-1.8672,-1.7438,-1.6969,-1.6932,-1.6609,-1.6279,-1.6052,-1.6001,-1.5804,-1.5571,-1.5891,-1.5796,-1.5665,-1.6199,-1.6162,-1.5965,-1.6221,-1.5884,-1.5396,-1.5447,-1.5462,-1.5513,-1.5789,-1.5709,-1.5593,-1.5862,-1.595,-1.5987,-1.5987,-1.6184,-1.6191,-1.5606,-1.5418,-1.516,-1.4333,-1.4121,-1.3975,-1.3748,0.0,-1.4077,-1.4121,-1.4377,-1.4599,-1.4651,-1.4651,-1.4673,-1.4724,-1.494,0.0,0.0,-1.527,-1.5403,-1.5126,-1.5338,-1.5679,-1.6052,-1.6316,-1.6646,-1.6969,-1.6969,-1.6969,-1.6969,-1.6969,-1.6822,-1.6513,-1.6462,-1.6425,-1.6469,-1.5934,-1.5718,-1.5743,-1.5548,-1.5311,-1.5202,-1.5651,-1.5518,-1.513,-2.7914,-2.7572,-2.7309,-2.7309,-2.7309,-2.7309,-2.7309,-2.7247,-2.7061,-2.6667,-2.6553,-2.6335,-2.5823,-2.5406,-2.5114,-2.5042,-2.4464,-2.398,-2.3754,-2.3547,-2.346,-2.346,-2.3232,-2.3091,-2.3091,-2.3091,-2.3091,-2.3091,-2.3091,-2.3091,-2.3091,-2.3091,-2.3091,-2.3091,-2.3091,-2.2599,-2.165,-2.0647,-1.965,-1.8696,-1.7639,-1.7252,-1.7223,-1.6947,-1.6793,-1.6719,-1.6441,-1.6309,-1.6228,-1.6279,-1.6309,-1.6279,-1.6382,-1.6162,-1.5921,-1.5972,-1.5681,-1.5447,-1.5767,-1.584,-1.5789,-1.5562,-1.5862,-1.617,-1.5965,-1.6111,-1.6345,-1.6345,-1.6382,-1.6265,-1.5906,-1.5571,-1.5338,-1.5226,-1.475,-1.4472,-1.4645,0.0,-1.4494,-1.4725,-1.4798,-1.4936,-1.5214,-1.5243,-1.5394,-1.5672,-1.5738,-1.5855,-1.6103,-1.617,-1.6199,-1.6148,-1.5943,-1.6118,-1.6749,-1.68,-1.6938,-1.7252,-1.7252,-1.7252,-1.7252,-1.7252,-1.723,-1.7118,-1.6673,-1.6631,-1.6854,-1.6031,-1.5848,-1.6088,-1.5839,-1.5684,-1.5705,-1.5751,-1.5772,-1.5705,-2.8566,-2.81,-2.7614,-2.7614,-2.7417,-2.7309,-2.7309,-2.7092,-2.6864,-2.6646,-2.6615,-2.6438,-2.5927,-2.5927,-2.5761,-2.523,-2.4905,-2.4592,-2.4206,-2.3841,-2.3667,-2.3667,-2.345,-2.3232,-2.3091,-2.3091,-2.3091,-2.3091,-2.3091,-2.3091,-2.3091,-2.3091,-2.2818,-2.2325,-2.2325,-2.1784,-2.0827,-1.9877,-1.9193,-1.8696,-1.7692,-1.7279,-1.7311,-1.7165,-1.7049,-1.6881,-1.6727,-1.6565,-1.6441,-1.6617,-1.6558,-1.647,-1.6777,-1.6674,-1.6455,-1.663,-1.6038,-1.5462,-1.5826,-1.5913,-1.5965,-1.6148,-1.6279,-1.6419,-1.6411,-1.6573,-1.6675,-1.6675,-1.6762,-1.6791,-1.6477,-1.6155,-1.5884,-1.5716,-1.5145,0.0,0.0,-1.497,-1.5043,-1.5148,-1.5504,-1.5767,-1.5921,-1.5935,-1.5994,-1.6148,-1.6162,-1.6221,-1.6404,-1.6411,-1.6492,-1.6668,-1.6543,-1.6609,-1.6895,-1.7026,-1.7179,-1.7279,-1.7279,-1.7279,-1.7279,-1.7279,-1.7239,-1.7099,-1.6868,-1.6797,-1.6723,-1.6208,-1.6054,-1.6177,-1.5879,-1.5784,-1.5784,-1.5784,-1.5784,-1.5784,-2.9032,-2.8483,-2.7893,-2.779,-2.7489,-2.7309,-2.7309,-2.7009,-2.6781,-2.6781,-2.6781,-2.6646,-2.6283,-2.647,-2.6289,-2.5516,-2.5269,-2.4946,-2.4543,-2.4074,-2.3841,-2.3884,-2.3634,-2.3363,-2.3101,-2.3091,-2.3091,-2.3091,-2.3091,-2.3091,-2.3091,-2.3091,-2.2731,-2.2015,-2.1784,-2.1284,-2.0466,-1.9285,-1.8788,-1.8696,-1.7692,-1.7279,-1.7279,-1.7279,-1.7179,-1.7013,-1.7013,-1.6851,-1.663,-1.6925,-1.6799,-1.6674,-1.7172,-1.7113,-1.6947,-1.715,-1.6477,-1.5701,-1.5957,-1.6074,-1.6228,-1.6683,-1.6712,-1.6683,-1.6859,-1.6954,-1.7013,-1.7013,-1.7157,-1.723,-1.6961,-1.6697,-1.6448,-1.617,0.0,0.0,0.0,-1.5533,-1.5643,-1.5643,-1.6074,-1.6441,-1.6521,-1.6529,-1.6558,-1.6587,-1.6594,-1.6594,-1.6594,-1.6594,-1.6749,-1.7005,-1.7013,-1.7013,-1.7013,-1.7208,-1.7279,-1.7279,-1.7279,-1.7279,-1.7279,-1.7279,-1.72,-1.6979,-1.6932,-1.6737,-1.6494,-1.6218,-1.6123,-1.6076,-1.5879,-1.5784,-1.5784,-1.5784,-1.5784,-1.5784,-2.8731,-2.8266,-2.779,-2.7423,-2.733,-2.7309,-2.7309,-2.7278,-2.7258,-2.7258,-2.7258,-2.7247,-2.7206,-2.6853,-2.6455,-2.6171,-2.5405,-2.4815,-2.4509,-2.4072,-2.3927,-2.4163,-2.3721,-2.3363,-2.3101,-2.3091,-2.3091,-2.3091,-2.3091,-2.3091,-2.3091,-2.3091,-2.3047,-2.296,-2.2104,-2.165,-2.1472,-1.9604,-1.8788,-1.8696,-1.7692,-1.7279,-1.7279,-1.7279,-1.7311,-1.7296,-1.7296,-1.7228,-1.726,-1.7235,-1.7228,-1.722,-1.7311,-1.7113,-1.6903,-1.6925,-1.6653,-1.6345,-1.6375,-1.6602,-1.6771,-1.6514,-1.6835,-1.7186,-1.6961,-1.7084,-1.7296,-1.7296,-1.7311,-1.723,-1.6961,-1.6881,-1.6859,-1.6837,0.0,0.0,-1.6719,-1.6521,-1.6345,-1.6345,-1.6382,-1.6529,-1.6837,-1.6866,-1.6991,-1.7191,-1.7206,-1.7206,-1.7206,-1.7206,-1.7267,-1.7296,-1.7296,-1.7296,-1.7296,-1.7271,-1.7279,-1.7279,-1.7279,-1.7279,-1.7279,-1.7279,-1.72,-1.6979,-1.6737,-1.6501,-1.6224,-1.5927,-1.5832,-1.5832,-1.5832,-1.5784,-1.5784,-1.5784,-1.5784,-1.5784,-2.9446,-2.8866,-2.8297,-2.8131,-2.7683,-2.7309,-2.7309,-2.7309,-2.7309,-2.7309,-2.7309,-2.7309,-2.7309,-2.7154,-2.6889,-2.646,-2.5747,-2.5186,-2.4757,-2.4136,-2.3841,-2.3937,-2.3677,-2.345,-2.3363,-2.3188,-2.3091,-2.3091,-2.3091,-2.3091,-2.3091,-2.3091,-2.2784,-2.2192,-2.1186,-2.0466,-1.9786,-1.8473,-1.7878,-1.7831,-1.7466,-1.7279,-1.7279,-1.7279,-1.7279,-1.7279,-1.7279,-1.7279,-1.7279,-1.7279,-1.7279,-1.7279,-1.7279,-1.7245,-1.715,-1.715,-1.7062,-1.6967,-1.6967,-1.6908,-1.6917,-1.6945,-1.715,-1.725,-1.7172,-1.7245,-1.7279,-1.7279,-1.7279,-1.7296,-1.7172,-1.6989,-1.6961,-1.7113,0.0,-1.6529,-1.6859,-1.6793,-1.6712,-1.6712,-1.6843,-1.7011,-1.7135,-1.715,-1.7201,-1.7271,-1.7279,-1.7279,-1.7279,-1.7279,-1.7279,-1.7279,-1.7279,-1.7279,-1.7279,-1.7279,-1.7279,-1.7279,-1.7279,-1.7279,-1.7279,-1.7279,-1.72,-1.6979,-1.673,-1.6454,-1.6177,-1.5927,-1.5784,-1.5784,-1.5784,-1.5784,-1.5784,-1.5784,-1.5784,-1.5784,-2.9746,-2.9145,-2.8566,-2.8421,-2.7769,-2.7309,-2.7309,-2.7309,-2.7262,-2.7177,-2.7262,-2.7262,-2.7167,-2.7262,-2.7138,-2.6723,-2.5936,-2.5295,-2.4881,-2.4085,-2.3624,-2.3711,-2.358,-2.346,-2.3363,-2.3188,-2.3091,-2.3091,-2.3091,-2.3091,-2.3091,-2.3091,-2.2775,-2.2104,-2.1096,-2.015,-1.9193,-1.8195,-1.7606,-1.7279,-1.7279,-1.7279,-1.7279,-1.7279,-1.7279,-1.7279,-1.7279,-1.7279,-1.7279,-1.7279,-1.7279,-1.7279,-1.7279,-1.7279,-1.7279,-1.7279,-1.7279,-1.7279,-1.7279,-1.7172,-1.7055,-1.7274,-1.7279,-1.7279,-1.7279,-1.7279,-1.7279,-1.7279,-1.7279,-1.7279,-1.7279,-1.715,-1.7077,-1.7296,-1.6952,-1.6748,-1.6974,-1.7049,-1.7049,-1.7049,-1.7194,-1.7279,-1.7279,-1.7279,-1.7279,-1.7279,-1.7279,-1.7279,-1.7279,-1.7279,-1.7279,-1.7279,-1.7279,-1.7279,-1.7279,-1.7279,-1.7279,-1.7279,-1.7279,-1.7279,-1.7279,-1.7279,-1.72,-1.6979,-1.673,-1.6454,-1.6177,-1.5927,-1.5784,-1.5784,-1.5784,-1.5784,-1.5784,-1.5784,-1.5784,-1.5784,-2.9404,-2.8938,-2.8473,-2.8007,-2.7562,-2.7309,-2.7309,-2.7309,-2.7214,-2.6948,-2.7129,-2.7167,-2.6948,-2.7119,-2.7167,-2.69,-2.5841,-2.5087,-2.4792,-2.3747,-2.3232,-2.3503,-2.3503,-2.3363,-2.3101,-2.3091,-2.3091,-2.3091,-2.3091,-2.3091,-2.3091,-2.3091,-2.3091,-2.3047,-2.2104,-2.115,-2.0141,-1.9193,-1.8241,-1.7326,-1.7279,-1.7279,-1.7279,-1.7279,-1.7279,-1.7279,-1.7279,-1.7279,-1.7279,-1.7279,-1.7279,-1.7279,-1.7279,-1.7279,-1.7279,-1.7279,-1.7279,-1.7279,-1.7279,-1.7279,-1.7279,-1.7279,-1.7279,-1.7279,-1.7279,-1.7279,-1.7279,-1.7279,-1.7279,-1.7279,-1.7279,-1.7279,-1.7279,-1.7279,-1.7279,-1.7279,-1.7279,-1.7279,-1.7279,-1.7279,-1.7279,-1.7279,-1.7279,-1.7279,-1.7279,-1.7279,-1.7279,-1.7279,-1.7279,-1.7279,-1.7279,-1.7279,-1.7279,-1.7279,-1.7279,-1.7279,-1.7279,-1.7279,-1.7279,-1.7279,-1.7279,-1.7279,-1.72,-1.6979,-1.673,-1.6454,-1.617,-1.5927,-1.5784,-1.5784,-1.5784,-1.5784,-1.5784,-1.5784,-1.5784,-1.5784,-2.9818,-2.9415,-2.8949,-2.8483,-2.8028,-2.7624,-2.7351,-2.7309,-2.7214,-2.6948,-2.6948,-2.6938,-2.6651,-2.6688,-2.6699,-2.6651,-2.5879,-2.5056,-2.4159,-2.3447,-2.3144,-2.3232,-2.3232,-2.3276,-2.3363,-2.3188,-2.3091,-2.3091,-2.3091,-2.3091,-2.3091,-2.3091,-2.3091,-2.3047,-2.2104,-2.1516,-2.115,-1.9513,-1.8611,-1.8288,-1.7606,-1.7279,-1.7279,-1.7279,-1.7279,-1.7279,-1.7279,-1.7279,-1.7279,-1.7279,-1.7279,-1.7279,-1.7279,-1.7279,-1.7279,-1.7279,-1.7279,-1.7279,-1.7279,-1.7279,-1.7279,-1.7279,-1.7279,-1.7279,-1.7279,-1.7279,-1.7279,-1.7279,-1.7279,-1.7279,-1.7279,-1.7279,-1.7279,-1.7279,-1.7279,-1.7279,-1.7279,-1.7279,-1.7279,-1.7279,-1.7279,-1.7279,-1.7279,-1.7279,-1.7279,-1.7279,-1.7279,-1.7279,-1.7279,-1.7279,-1.7279,-1.7279,-1.7279,-1.7279,-1.7279,-1.7279,-1.7279,-1.7279,-1.7279,-1.7279,-1.7279,-1.7279,-1.7286,-1.72,-1.677,-1.6541,-1.6447,-1.5974,-1.5784,-1.5784,-1.5784,-1.5784,-1.5784,-1.5784,-1.5784,-1.5784,-2.9994,-2.9622,-2.9218,-2.8938,-2.8349,-2.7831,-2.7562,-2.7423,-2.7167,-2.6794,-2.6853,-2.6747,-2.64,-2.6448,-2.6496,-2.6496,-2.5904,-2.5066,-2.4082,-2.3633,-2.3398,-2.3398,-2.3188,-2.3188,-2.3319,-2.3188,-2.3091,-2.3091,-2.3091,-2.2916,-2.2555,-2.2555,-2.2325,-2.1961,-2.1784,-2.1463,-2.1006,-1.9832,-1.9155,-1.8696,-1.7692,-1.7279,-1.7279,-1.7279,-1.7279,-1.7279,-1.7279,-1.7279,-1.7279,-1.7279,-1.7279,-1.7279,-1.7279,-1.7279,-1.7279,-1.7279,-1.7279,-1.7279,-1.7279,-1.7279,-1.7279,-1.7279,-1.7279,-1.7279,-1.7279,-1.7279,-1.7279,-1.7279,-1.7279,-1.7279,-1.7279,-1.7279,-1.7279,-1.7279,-1.7279,-1.7279,-1.7279,-1.7279,-1.7279,-1.7279,-1.7279,-1.7279,-1.7279,-1.7279,-1.7279,-1.7279,-1.7279,-1.7279,-1.7279,-1.7279,-1.7279,-1.7279,-1.7279,-1.7279,-1.7279,-1.7279,-1.7279,-1.7279,-1.7279,-1.7279,-1.7279,-1.7279,-1.7279,-1.7279,-1.6817,-1.6588,-1.6541,-1.6021,-1.5784,-1.5784,-1.5784,-1.5784,-1.5784,-1.5784,-1.5784,-1.5784,-2.9994,-2.9653,-2.9301,-2.926,-2.8526,-2.7917,-2.7886,-2.7552,-2.7119,-2.6592,-2.6747,-2.6651,-2.6149,-2.6304,-2.6448,-2.6448,-2.5857,-2.5184,-2.4502,-2.4043,-2.3789,-2.3789,-2.3369,-2.3091,-2.3091,-2.3091,-2.3091,-2.3091,-2.3091,-2.2643,-2.1828,-2.1739,-2.1195,-2.0367,-2.1195,-2.1051,-2.0187,-2.0096,-1.9604,-1.8696,-1.7692,-1.7279,-1.7279,-1.7279,-1.7279,-1.7279,-1.7279,-1.7279,-1.7279,-1.7279,-1.7279,-1.7279,-1.7279,-1.7279,-1.7279,-1.7279,-1.7279,-1.7279,-1.7279,-1.7279,-1.7279,-1.7279,-1.7279,-1.7286,-1.7315,-1.7301,-1.7301,-1.7399,-1.7323,-1.7286,-1.7315,-1.7301,-1.7279,-1.7279,-1.7279,-1.7279,-1.7279,-1.7279,-1.7279,-1.7279,-1.7279,-1.7279,-1.7279,-1.7308,-1.7315,-1.7286,-1.7308,-1.7315,-1.7279,-1.7279,-1.7279,-1.7279,-1.7279,-1.7279,-1.7279,-1.7279,-1.7279,-1.7279,-1.7279,-1.7279,-1.7279,-1.7279,-1.7279,-1.7279,-1.6817,-1.6588,-1.6541,-1.6021,-1.5784,-1.5784,-1.5784,-1.5784,-1.5784,-1.5784,-1.5784,-1.5778,-2.9994,-2.9755,-2.9413,-2.9075,-2.8502,-2.8012,-2.7654,-2.7407,-2.7167,-2.6842,-2.6699,-2.6448,-2.6149,-2.5965,-2.5878,-2.5878,-2.5475,-2.5124,-2.4979,-2.4209,-2.3789,-2.3789,-2.3369,-2.3091,-2.3091,-2.3091,-2.3091,-2.3091,-2.3091,-2.3003,-2.2775,-2.2059,-2.1596,-2.1329,-2.0782,-2.0413,-2.0141,-1.9422,-1.8972,-1.8696,-1.7692,-1.7279,-1.7279,-1.7279,-1.7279,-1.7279,-1.7279,-1.7279,-1.7279,-1.7279,-1.7279,-1.7279,-1.7279,-1.7279,-1.7279,-1.7279,-1.7279,-1.7279,-1.7279,-1.7279,-1.7279,-1.7279,-1.7279,-1.7352,-1.7655,-1.7508,-1.7425,-1.7984,-1.7684,-1.7359,-1.7662,-1.7501,-1.7279,-1.7279,-1.7279,-1.7279,-1.7279,-1.7279,-1.7279,-1.7279,-1.7279,-1.7279,-1.7279,-1.756,-1.7604,-1.7301,-1.756,-1.7596,-1.7293,-1.7279,-1.7279,-1.7279,-1.7279,-1.7279,-1.7279,-1.7279,-1.7279,-1.7279,-1.7279,-1.7279,-1.7279,-1.7279,-1.7279,-1.7279,-1.6817,-1.6588,-1.6541,-1.6021,-1.5784,-1.5784,-1.5784,-1.5784,-1.5784,-1.5784,-1.5784,-1.5689,-2.9994,-2.9774,-2.9535,-2.9258,-2.8747,-2.8198,-2.7692,-2.7384,-2.7018,-2.6575,-2.64,-2.6207,-2.5917,-2.5781,-2.5693,-2.5693,-2.5527,-2.5391,-2.5391,-2.4766,-2.4404,-2.4404,-2.3789,-2.3447,-2.3447,-2.3198,-2.3091,-2.3091,-2.3091,-2.2643,-2.173,-2.1186,-2.0512,-1.9604,-1.9559,-1.9513,-1.9513,-1.9018,-1.8788,-1.8696,-1.7692,-1.7279,-1.7279,-1.7279,-1.7279,-1.7279,-1.7279,-1.7279,-1.7279,-1.7279,-1.7279,-1.7279,-1.7279,-1.7279,-1.7279,-1.7279,-1.7279,-1.7315,-1.7523,-1.7395,-1.7399,-1.7713,-1.7677,-1.7604,-1.7772,-1.7684,-1.7699,-1.8196,-1.8028,-1.7845,-1.8013,-1.7911,-1.7743,-1.7582,-1.7691,-1.7684,-1.7323,-1.7465,-1.756,-1.756,-1.7421,-1.7279,-1.7279,-1.7625,-1.7743,-1.7574,-1.7867,-1.7904,-1.7582,-1.7706,-1.7647,-1.7286,-1.7479,-1.7439,-1.7279,-1.7279,-1.7279,-1.7279,-1.7279,-1.7239,-1.7153,-1.7153,-1.7106,-1.6958,-1.6588,-1.6407,-1.6359,-1.5974,-1.5784,-1.5784,-1.5784,-1.5784,-1.5784,-1.5784,-1.5784,-1.5588,-2.9994,-2.9774,-2.9606,-2.9501,-2.8926,-2.8357,-2.7883,-2.7432,-2.6911,-2.6346,-2.6189,-2.6004,-2.5781,-2.5732,-2.5693,-2.5693,-2.5693,-2.5693,-2.5693,-2.5322,-2.5116,-2.5116,-2.4316,-2.3896,-2.3896,-2.35,-2.3237,-2.3091,-2.3091,-2.228,-2.0683,-2.0367,-1.933,-1.7831,-1.8334,-1.8565,-1.8565,-1.8565,-1.8565,-1.8473,-1.7645,-1.7279,-1.7279,-1.7279,-1.7279,-1.7279,-1.7279,-1.7315,-1.7366,-1.7366,-1.7403,-1.7447,-1.7447,-1.741,-1.7421,-1.7432,-1.741,-1.7479,-1.7808,-1.7699,-1.7625,-1.8167,-1.8101,-1.7911,-1.7969,-1.794,-1.8006,-1.8394,-1.8379,-1.8321,-1.8372,-1.8343,-1.8211,-1.794,-1.8123,-1.8116,-1.7574,-1.7728,-1.7904,-1.7904,-1.7662,-1.7447,-1.7447,-1.7786,-1.7955,-1.7904,-1.8203,-1.8218,-1.7838,-1.8072,-1.7947,-1.7301,-1.7589,-1.7604,-1.7286,-1.7279,-1.7279,-1.7279,-1.7286,-1.7153,-1.6979,-1.6979,-1.6831,-1.6588,-1.6312,-1.6224,-1.6177,-1.5927,-1.5784,-1.5784,-1.5784,-1.5784,-1.5784,-1.5784,-1.5689,-1.5248,-2.9994,-2.9774,-2.9501,-2.9237,-2.8822,-2.8364,-2.8046,-2.7482,-2.7071,-2.6961,-2.6475,-2.61,-2.6052,-2.583,-2.5693,-2.5693,-2.5693,-2.5693,-2.5693,-2.5322,-2.5116,-2.5116,-2.46,-2.4336,-2.4336,-2.4277,-2.3832,-2.3091,-2.3091,-2.296,-2.2687,-2.1006,-2.0051,-1.9733,-1.8195,-1.7512,-1.7512,-1.7512,-1.7512,-1.7512,-1.7372,-1.7279,-1.7279,-1.7279,-1.7279,-1.7279,-1.7279,-1.7508,-1.775,-1.775,-1.794,-1.8174,-1.8174,-1.7977,-1.7801,-1.8086,-1.7969,-1.7823,-1.8145,-1.8203,-1.8196,-1.8284,-1.8269,-1.8313,-1.8591,-1.8438,-1.8408,-1.9023,-1.8694,-1.8386,-1.8672,-1.8496,-1.8284,-1.8247,-1.8277,-1.8269,-1.8182,-1.8211,-1.824,-1.824,-1.8196,-1.8174,-1.8174,-1.8467,-1.854,-1.8255,-1.854,-1.846,-1.7845,-1.7852,-1.7706,-1.7293,-1.7323,-1.7377,-1.7279,-1.7279,-1.7279,-1.7279,-1.7113,-1.7026,-1.6979,-1.6979,-1.6831,-1.6588,-1.6312,-1.6224,-1.6177,-1.5927,-1.5784,-1.5784,-1.5784,-1.5784,-1.5784,-1.5784,-1.5255,-1.434,-2.9994,-2.9774,-2.9501,-2.9185,-2.8823,-2.8466,-2.7904,-2.7592,-2.7348,-2.7061,-2.6803,-2.6497,-2.631,-2.6143,-2.6103,-2.6103,-2.6103,-2.5996,-2.5703,-2.5557,-2.5439,-2.5439,-2.5019,-2.4775,-2.4775,-2.4541,-2.4228,-2.3812,-2.3623,-2.3104,-2.228,-2.1418,-2.0466,-1.9376,-1.8511,-1.7831,-1.7279,-1.7279,-1.7279,-1.7279,-1.7279,-1.7279,-1.7279,-1.7279,-1.7443,-1.7625,-1.7808,-1.7962,-1.8086,-1.8086,-1.8182,-1.8299,-1.8299,-1.8203,-1.8116,-1.8262,-1.8203,-1.816,-1.8482,-1.8438,-1.8394,-1.876,-1.8708,-1.8657,-1.8986,-1.895,-1.8928,-1.9213,-1.9045,-1.8891,-1.903,-1.8942,-1.8789,-1.8606,-1.873,-1.8723,-1.8357,-1.846,-1.8503,-1.8321,-1.8467,-1.8503,-1.8321,-1.8599,-1.873,-1.8584,-1.8877,-1.8855,-1.8379,-1.8533,-1.8313,-1.7618,-1.7779,-1.7699,-1.7286,-1.7279,-1.7279,-1.7279,-1.7113,-1.6932,-1.6784,-1.6595,-1.6407,-1.6163,-1.6021,-1.5981,-1.5981,-1.5832,-1.5784,-1.5784,-1.5784,-1.5784,-1.5784,-1.5784,-1.5159,-1.4148]},{"header":{"parameterUnit":"m.s-1","parameterCategory":1,"la1":30.6,"la2":28.766,"lo1":-90.7593,"lo2":-88.6598,"dx":0.0162,"dy":0.0183,"nx":116,"ny":114,"refTime":"2023-01-26T06:00:00:Z","depth":0,"parameterNumber":3,"parameterNumberName":"V-component_of_WINDS"},"data":[0.0,0.0,0.0,0.0,0.0,0.0,0.0,0.0,0.0,0.0,0.0,0.0,0.0,0.0,0.0,0.0,0.0,0.0,0.0,0.0,0.0,0.0,0.0,0.0,0.0,0.0,0.0,0.0,0.0,0.0,0.0,0.0,0.0,0.0,0.0,0.0,0.0,0.0,0.0,0.0,0.0,0.0,0.0,0.0,0.0,0.0,0.0,0.0,0.0,0.0,0.0,0.0,0.0,0.0,0.0,0.0,0.0,0.0,0.0,0.0,0.0,0.0,0.0,0.0,0.0,0.0,0.0,0.0,0.0,0.0,0.0,0.0,0.0,0.0,0.0,0.0,0.0,0.0,0.0,0.0,0.0,0.0,0.0,0.0,0.0,0.0,0.0,0.0,0.0,0.0,0.0,0.0,0.0,0.0,0.0,0.0,0.0,0.0,0.0,0.0,0.0,0.0,0.0,0.0,0.0,0.0,0.0,0.0,0.0,0.0,0.0,0.0,0.0,0.0,0.0,0.0,0.0,0.0,0.0,0.0,0.0,0.0,0.0,0.0,0.0,0.0,0.0,0.0,0.0,0.0,0.0,0.0,0.0,0.0,0.0,0.0,0.0,0.0,0.0,0.0,0.0,0.0,0.0,0.0,0.0,0.0,0.0,0.0,0.0,0.0,0.0,0.0,0.0,0.0,0.0,0.0,0.0,0.0,0.0,0.0,0.0,0.0,0.0,0.0,0.0,0.0,0.0,0.0,0.0,0.0,0.0,0.0,0.0,0.0,0.0,0.0,0.0,0.0,0.0,0.0,0.0,0.0,0.0,0.0,0.0,0.0,0.0,0.0,0.0,0.0,0.0,0.0,0.0,0.0,0.0,0.0,0.0,0.0,0.0,0.0,0.0,0.0,0.0,0.0,0.0,0.0,0.0,0.0,0.0,0.0,0.0,0.0,0.0,0.0,0.0,0.0,0.0,0.0,0.0,0.0,0.0,0.0,0.0,0.0,0.0,0.0,0.0,0.0,0.0,0.0,0.0,0.0,0.0,0.0,0.0,0.0,0.0,0.0,0.0,0.0,0.0,0.0,0.0,0.0,0.0,0.0,0.0,0.0,0.0,0.0,0.0,0.0,0.0,0.0,0.0,0.0,0.0,0.0,0.0,0.0,0.0,0.0,0.0,0.0,0.0,0.0,0.0,0.0,0.0,0.0,0.0,0.0,0.0,0.0,0.0,0.0,0.0,0.0,0.0,0.0,0.0,0.0,0.0,0.0,0.0,0.0,0.0,0.0,0.0,0.0,0.0,0.0,0.0,0.0,0.0,0.0,0.0,0.0,0.0,0.0,0.0,0.0,0.0,0.0,0.0,0.0,0.0,0.0,0.0,0.0,0.0,0.0,0.0,0.0,0.0,0.0,0.0,0.0,0.0,0.0,0.0,0.0,0.0,0.0,0.0,0.0,0.0,0.0,0.0,0.0,0.0,0.0,0.0,0.0,0.0,0.0,0.0,0.0,0.0,0.0,0.0,0.0,0.0,0.0,0.0,0.0,0.0,0.0,0.0,0.0,0.0,0.0,0.0,0.0,0.0,0.0,0.0,0.0,0.0,0.0,0.0,0.0,0.0,0.0,0.0,0.0,0.0,0.0,0.0,0.0,0.0,0.0,0.0,0.0,0.0,0.0,0.0,0.0,0.0,0.0,0.0,0.0,0.0,0.0,0.0,0.0,0.0,0.0,0.0,0.0,0.0,0.0,0.0,0.0,0.0,0.0,0.0,0.0,0.0,0.0,0.0,0.0,0.0,0.0,0.0,0.0,0.0,0.0,0.0,0.0,0.0,0.0,0.0,0.0,0.0,0.0,0.0,0.0,0.0,0.0,0.0,0.0,0.0,0.0,0.0,0.0,0.0,0.0,0.0,0.0,0.0,0.0,0.0,0.0,0.0,0.0,0.0,0.0,0.0,0.0,0.0,0.0,0.0,0.0,0.0,0.0,0.0,0.0,0.0,0.0,0.0,0.0,0.0,0.0,0.0,0.0,0.0,0.0,0.0,0.0,0.0,0.0,0.0,0.0,0.0,0.0,0.0,0.0,0.0,0.0,0.0,0.0,0.0,0.0,0.0,0.0,0.0,0.0,0.0,0.0,0.0,0.0,0.0,0.0,0.0,0.0,0.0,0.0,0.0,0.0,0.0,0.0,0.0,0.0,0.0,0.0,0.0,0.0,0.0,0.0,0.0,0.0,0.0,0.0,0.0,0.0,0.0,0.0,0.0,0.0,0.0,0.0,0.0,0.0,0.0,0.0,0.0,0.0,0.0,0.0,0.0,0.0,0.0,0.0,0.0,0.0,0.0,0.0,0.0,0.0,0.0,0.0,0.0,0.0,0.0,0.0,0.0,0.0,0.0,0.0,0.0,0.0,0.0,0.0,0.0,0.0,0.0,0.0,0.0,0.0,0.0,0.0,0.0,0.0,0.0,0.0,0.0,0.0,0.0,0.0,0.0,0.0,0.0,0.0,0.0,0.0,0.0,0.0,0.0,0.0,0.0,0.0,0.0,0.0,0.0,0.0,0.0,0.0,0.0,0.0,0.0,0.0,0.0,0.0,0.0,0.0,0.0,0.0,0.0,0.0,0.0,0.0,0.0,0.0,0.0,0.0,0.0,0.0,0.0,0.0,0.0,0.0,0.0,0.0,0.0,0.0,0.0,0.0,0.0,0.0,0.0,0.0,0.0,0.0,0.0,0.0,0.0,0.0,0.0,0.0,0.0,0.0,0.0,0.0,0.0,0.0,0.0,0.0,0.0,0.0,0.0,0.0,0.0,0.0,0.0,0.0,0.0,0.0,0.0,0.0,0.0,0.0,0.0,0.0,0.0,0.0,0.0,0.0,0.0,0.0,0.0,0.0,0.0,0.0,0.0,0.0,0.0,0.0,0.0,0.0,0.0,0.0,0.0,0.0,0.0,0.0,0.0,0.0,0.0,0.0,0.0,0.0,0.0,0.0,0.0,0.0,0.0,0.0,0.0,0.0,0.0,0.0,0.0,0.0,0.0,0.0,0.0,0.0,0.0,0.0,0.0,0.0,0.0,0.0,0.0,0.0,0.0,0.0,0.0,0.0,0.0,0.0,0.0,0.0,0.0,0.0,0.0,0.0,0.0,0.0,0.0,0.0,0.0,0.0,0.0,0.0,0.0,0.0,0.0,0.0,0.0,0.0,0.0,0.0,0.0,0.0,0.0,0.0,0.0,0.0,0.0,0.0,0.0,0.0,0.0,0.0,0.0,0.0,0.0,0.0,0.0,0.0,0.0,0.0,0.0,0.0,0.0,0.0,0.0,0.0,0.0,0.0,0.0,0.0,0.0,0.0,0.0,0.0,0.0,0.0,0.0,0.0,0.0,0.0,0.0,0.0,0.0,0.0,0.0,0.0,0.0,0.0,0.0,0.0,0.0,0.0,0.0,0.0,0.0,0.0,0.0,0.0,0.0,0.0,0.0,0.0,0.0,0.0,0.0,0.0,0.0,0.0,0.0,0.0,0.0,0.0,0.0,0.0,0.0,0.0,0.0,0.0,0.0,0.0,0.0,0.0,0.0,0.0,0.0,0.0,0.0,0.0,0.0,0.0,0.0,0.0,0.0,0.0,0.0,0.0,0.0,0.0,0.0,0.0,0.0,0.0,0.0,0.0,0.0,0.0,0.0,0.0,0.0,0.0,0.0,0.0,0.0,0.0,0.0,0.0,0.0,0.0,0.0,0.0,0.0,0.0,0.0,0.0,0.0,0.0,0.0,0.0,0.0,0.0,0.0,0.0,0.0,0.0,0.0,0.0,0.0,0.0,0.0,0.0,0.0,0.0,0.0,0.0,0.0,0.0,0.0,0.0,0.0,0.0,0.0,0.0,0.0,0.0,0.0,0.0,0.0,0.0,0.0,0.0,0.0,0.0,0.0,0.0,0.0,0.0,0.0,0.0,0.0,0.0,0.0,0.0,0.0,0.0,0.0,0.0,0.0,0.0,0.0,0.0,0.0,0.0,0.0,0.0,0.0,0.0,0.0,0.0,0.0,0.0,0.0,0.0,0.0,0.0,0.0,0.0,0.0,0.0,0.0,0.0,0.0,0.0,0.0,0.0,0.0,0.0,0.0,0.0,0.0,0.0,0.0,0.0,0.0,0.0,0.0,0.0,0.0,0.0,0.0,0.0,0.0,0.0,0.0,0.0,0.0,0.0,0.0,0.0,0.0,0.0,0.0,0.0,0.0,0.0,0.0,0.0,0.0,0.0,0.0,0.0,0.0,0.0,0.0,0.0,0.0,0.0,0.0,0.0,0.0,0.0,0.0,0.0,0.0,0.0,0.0,0.0,0.0,0.0,0.0,0.0,0.0,0.0,0.0,0.0,0.0,0.0,0.0,0.0,0.0,0.0,0.0,0.0,0.0,0.0,0.0,0.0,0.0,0.0,0.0,0.0,0.0,0.0,0.0,0.0,0.0,0.0,0.0,0.0,0.0,0.0,0.0,0.0,0.0,0.0,0.0,0.0,0.0,0.0,0.0,0.0,0.0,0.0,0.0,0.0,0.0,0.0,0.0,0.0,0.0,0.0,0.0,0.0,0.0,0.0,0.0,0.0,0.0,0.0,0.0,0.0,0.0,0.0,0.0,0.0,0.0,0.0,0.0,0.0,0.0,0.0,0.0,0.0,0.0,0.0,0.0,0.0,0.0,0.0,0.0,0.0,0.0,0.0,0.0,0.0,0.0,0.0,0.0,0.0,0.0,0.0,0.0,0.0,0.0,0.0,0.0,0.0,0.0,0.0,0.0,0.0,0.0,0.0,0.0,0.0,0.0,0.0,0.0,0.0,0.0,0.0,0.0,0.0,0.0,0.0,0.0,0.0,0.0,0.0,0.0,0.0,0.0,0.0,0.0,0.0,0.0,0.0,0.0,0.0,0.0,0.0,0.0,0.0,0.0,0.0,0.0,0.0,0.0,0.0,0.0,0.0,0.0,0.0,0.0,0.0,0.0,0.0,0.0,0.0,0.0,0.0,0.0,0.0,0.0,0.0,0.0,0.0,0.0,0.0,0.0,0.0,0.0,0.0,0.0,0.0,0.0,0.0,0.0,0.0,0.0,0.0,0.0,0.0,0.0,0.0,0.0,0.0,0.0,0.0,0.0,0.0,0.0,0.0,0.0,0.0,0.0,0.0,0.0,0.0,0.0,0.0,0.0,0.0,0.0,0.0,0.0,0.0,0.0,0.0,0.0,0.0,0.0,0.0,0.0,0.0,0.0,0.0,0.0,0.0,0.0,0.0,0.0,0.0,0.0,0.0,0.0,0.0,0.0,0.0,0.0,0.0,0.0,0.0,0.0,0.0,0.0,0.0,0.0,0.0,0.0,0.0,0.0,0.0,0.0,0.0,0.0,0.0,0.0,0.0,0.0,0.0,0.0,0.0,0.0,0.0,0.0,0.0,0.0,0.0,0.0,0.0,0.0,0.0,0.0,0.0,0.0,0.0,0.0,0.0,0.0,0.0,0.0,0.0,0.0,0.0,0.0,0.0,0.0,0.0,0.0,0.0,0.0,0.0,0.0,0.0,0.0,0.0,0.0,0.0,0.0,0.0,0.0,0.0,0.0,0.0,0.0,0.0,0.0,0.0,0.0,0.0,0.0,0.0,0.0,0.0,0.0,0.0,0.0,0.0,0.0,0.0,0.0,0.0,0.0,0.0,0.0,0.0,0.0,0.0,0.0,0.0,0.0,0.0,0.0,0.0,0.0,0.0,0.0,0.0,0.0,0.0,0.0,0.0,0.0,0.0,0.0,0.0,0.0,0.0,0.0,0.0,0.0,0.0,0.0,0.0,0.0,0.0,0.0,0.0,0.0,0.0,0.0,0.0,0.0,0.0,0.0,0.0,0.0,0.0,0.0,0.0,0.0,0.0,0.0,0.0,0.0,0.0,0.0,0.0,0.0,0.0,0.0,0.0,0.0,0.0,0.0,0.0,0.0,0.0,0.0,0.0,0.0,0.0,0.0,0.0,0.0,0.0,0.0,0.0,0.0,0.0,0.0,0.0,0.0,0.0,0.0,0.0,0.0,0.0,0.0,0.0,0.0,0.0,0.0,0.0,0.0,0.0,1.4214,0.0,0.0,0.0,0.0,0.0,0.0,0.0,0.0,0.0,0.0,0.0,0.0,0.0,0.0,0.0,0.0,0.0,0.0,0.0,0.0,0.0,0.0,0.0,0.0,0.0,0.0,0.0,0.0,0.0,0.0,0.0,0.0,0.0,0.0,0.0,0.0,0.0,0.0,0.0,0.0,0.0,0.0,0.0,0.0,0.0,0.0,0.0,0.0,0.0,0.0,0.0,0.0,0.0,0.0,0.0,0.0,0.0,0.0,0.0,0.0,0.0,0.0,0.0,0.0,0.0,0.0,0.0,0.0,0.0,0.0,0.0,0.0,0.0,0.0,0.0,0.0,0.0,0.0,0.0,0.0,0.0,0.0,0.0,0.0,0.0,0.0,0.0,0.0,0.0,0.0,0.0,0.0,0.0,0.0,0.0,0.0,0.0,0.0,0.0,0.0,0.0,0.0,0.0,0.0,0.0,0.0,0.0,0.0,0.0,0.0,0.0,0.0,0.0,0.0,0.0,0.0,1.4698,0.0,0.0,0.0,0.0,0.0,0.0,0.0,0.0,0.0,0.0,0.0,0.0,0.0,0.0,0.0,0.0,0.0,0.0,0.0,0.0,0.0,0.0,0.0,0.0,0.0,0.0,0.0,0.0,0.0,0.0,0.0,0.0,0.0,0.0,0.0,0.0,0.0,0.0,0.0,0.0,0.0,0.0,0.0,0.0,0.0,0.0,0.0,0.0,0.0,0.0,0.0,0.0,0.0,0.0,0.0,0.0,0.0,0.0,0.0,0.0,0.0,0.0,0.0,0.0,0.0,0.0,0.0,0.0,0.0,0.0,0.0,0.0,0.0,0.0,0.0,0.0,0.0,0.0,0.0,0.0,0.0,0.0,0.0,0.0,0.0,0.0,0.0,0.0,0.0,0.0,0.0,0.0,0.0,0.0,0.0,0.0,0.0,0.0,0.0,0.0,0.0,0.0,0.0,0.0,0.0,0.0,0.0,0.0,1.4791,1.5008,1.5761,1.5708,1.5595,1.5432,1.5441,1.5461,1.5463,0.0,0.0,0.0,0.0,0.0,0.0,0.0,0.0,0.0,0.0,0.0,0.0,0.0,0.0,0.0,0.0,0.0,0.0,0.0,0.0,0.0,0.0,0.0,0.0,0.0,0.0,0.0,0.0,0.0,0.0,0.0,0.0,0.0,0.0,0.0,0.0,0.0,0.0,0.0,0.0,0.0,0.0,0.0,0.0,0.0,0.0,0.0,0.0,0.0,0.0,0.0,0.0,0.0,0.0,0.0,0.0,0.0,0.0,0.0,0.0,0.0,0.0,0.0,0.0,0.0,0.0,0.0,0.0,0.0,0.0,0.0,0.0,0.0,0.0,0.0,0.0,0.0,0.0,0.0,0.0,0.0,0.0,0.0,0.0,0.0,0.0,0.0,1.2891,1.2931,0.0,0.0,0.0,0.0,0.0,0.0,0.0,0.0,0.0,0.0,0.0,0.0,0.0,0.0,1.4221,1.4557,1.4828,1.5036,1.5298,1.5515,1.5625,1.5625,1.5748,1.5966,1.5449,0.0,1.5492,1.5418,0.0,0.0,0.0,0.0,0.0,0.0,0.0,0.0,0.0,0.0,0.0,0.0,0.0,0.0,0.0,0.0,0.0,0.0,0.0,0.0,0.0,0.0,0.0,0.0,0.0,0.0,0.0,0.0,0.0,0.0,0.0,0.0,0.0,0.0,0.0,0.0,0.0,0.0,0.0,0.0,0.0,0.0,0.0,0.0,0.0,0.0,0.0,0.0,0.0,0.0,0.0,0.0,0.0,0.0,0.0,0.0,0.0,0.0,0.0,0.0,0.0,0.0,0.0,0.0,0.0,0.0,0.0,0.0,0.0,0.0,0.0,0.0,0.0,0.0,0.0,0.0,0.0,0.0,0.0,0.0,0.0,0.0,0.0,0.0,0.0,1.3165,1.3131,1.2721,1.3142,1.33,0.0,0.0,0.0,0.0,0.0,0.0,0.0,0.0,0.0,1.3584,1.3596,1.3781,1.4161,1.4312,1.4696,1.5351,1.5522,1.5789,1.6117,1.6194,1.6227,1.6195,1.6058,1.6039,1.6076,1.5468,1.5254,1.5314,0.0,0.0,0.0,0.0,0.0,1.4667,0.0,0.0,0.0,0.0,0.0,0.0,0.0,0.0,0.0,0.0,0.0,0.0,0.0,0.0,0.0,0.0,0.0,0.0,0.0,0.0,0.0,0.0,0.0,0.0,0.0,0.0,0.0,0.0,0.0,0.0,0.0,0.0,0.0,0.0,0.0,0.0,0.0,0.0,0.0,0.0,0.0,0.0,0.0,0.0,0.0,0.0,0.0,0.0,0.0,0.0,0.0,0.0,0.0,0.0,0.0,0.0,0.0,0.0,0.0,0.0,0.0,0.0,0.0,0.0,0.0,0.0,0.0,0.0,0.0,0.0,0.0,0.0,0.0,0.0,0.0,0.0,0.0,1.3464,1.3447,1.2831,1.3427,1.3656,0.0,0.0,0.0,0.0,0.0,0.0,1.3633,1.3549,1.3616,1.3887,1.3764,1.3923,1.4376,1.4271,1.4618,1.5473,1.5477,1.579,1.6384,1.6485,1.6546,1.6586,1.6583,1.6623,1.6615,1.5606,1.5239,1.5345,1.5454,1.5414,1.5343,1.5488,1.549,1.5374,0.0,0.0,0.0,0.0,0.0,0.0,0.0,0.0,0.0,0.0,0.0,0.0,0.0,0.0,0.0,0.0,0.0,0.0,0.0,0.0,0.0,0.0,0.0,0.0,0.0,0.0,0.0,0.0,0.0,0.0,0.0,0.0,0.0,0.0,0.0,0.0,0.0,0.0,0.0,0.0,0.0,0.0,0.0,0.0,0.0,0.0,0.0,0.0,0.0,0.0,0.0,0.0,0.0,0.0,0.0,0.0,0.0,0.0,0.0,0.0,0.0,0.0,0.0,0.0,0.0,0.0,0.0,0.0,0.0,0.0,0.0,0.0,0.0,0.0,0.0,0.0,0.0,0.0,0.0,1.3483,1.3712,0.0,0.0,0.0,0.0,1.397,1.397,1.397,1.397,1.368,1.3944,1.488,1.4491,1.472,1.5692,1.5246,1.5073,1.513,1.5141,1.5444,1.6039,1.6039,1.651,1.7315,1.6751,1.6701,1.6908,1.6031,1.5679,1.5679,1.5682,1.533,1.4896,1.5471,1.5414,1.5028,0.0,0.0,0.0,0.0,0.0,0.0,0.0,0.0,0.0,0.0,0.0,0.0,0.0,0.0,0.0,0.0,0.0,0.0,0.0,0.0,0.0,0.0,0.0,0.0,0.0,0.0,0.0,0.0,0.0,0.0,0.0,0.0,0.0,0.0,0.0,0.0,0.0,0.0,0.0,0.0,0.0,0.0,0.0,0.0,0.0,0.0,0.0,0.0,0.0,0.0,0.0,0.0,0.0,0.0,0.0,0.0,0.0,0.0,0.0,0.0,0.0,0.0,0.0,0.0,0.0,0.0,0.0,0.0,0.0,0.0,0.0,0.0,0.0,0.0,0.0,0.0,0.0,0.0,0.0,1.3874,1.4484,0.0,0.0,1.4469,1.4698,1.4698,1.4698,1.4841,1.5136,1.5041,1.5145,1.5512,1.5344,1.5291,1.5348,1.535,1.5173,1.4834,1.5017,1.5334,1.5746,1.5746,1.603,1.6566,1.6661,1.6811,1.6962,1.6572,1.6272,1.6104,1.6225,1.6137,1.5986,1.6193,1.6256,1.6208,0.0,0.0,0.0,0.0,0.0,0.0,0.0,0.0,0.0,0.0,0.0,0.0,0.0,0.0,0.0,0.0,0.0,0.0,0.0,0.0,0.0,0.0,0.0,0.0,0.0,0.0,0.0,0.0,0.0,0.0,0.0,0.0,0.0,0.0,0.0,0.0,0.0,0.0,0.0,0.0,0.0,0.0,1.6588,0.0,0.0,0.0,0.0,0.0,0.0,0.0,0.0,0.0,0.0,0.0,0.0,0.0,0.0,0.0,0.0,0.0,0.0,0.0,0.0,0.0,0.0,0.0,0.0,0.0,0.0,0.0,0.0,0.0,0.0,0.0,0.0,0.0,0.0,0.0,1.4879,1.4651,1.5289,1.5508,1.4921,1.5301,1.552,1.5342,1.5473,1.5625,1.58,1.5811,1.5876,1.6029,1.5887,1.5724,1.5585,1.5596,1.5337,1.4836,1.5024,1.5246,1.549,1.5657,1.5942,1.6352,1.6824,1.711,1.7229,1.7143,1.6989,1.6829,1.6771,1.6617,1.6465,1.6673,1.6711,1.6687,0.0,0.0,0.0,0.0,0.0,0.0,0.0,0.0,0.0,0.0,0.0,0.0,0.0,0.0,0.0,0.0,0.0,0.0,0.0,0.0,0.0,0.0,0.0,0.0,0.0,0.0,0.0,0.0,0.0,0.0,0.0,0.0,0.0,0.0,0.0,0.0,0.0,0.0,0.0,0.0,0.0,0.0,1.8807,0.0,0.0,0.0,0.0,0.0,0.0,0.0,0.0,0.0,0.0,0.0,0.0,0.0,0.0,0.0,0.0,0.0,0.0,0.0,0.0,0.0,0.0,0.0,0.0,0.0,0.0,0.0,0.0,0.0,0.0,0.0,0.0,0.0,1.5482,1.5517,1.5597,1.5815,1.6063,1.6114,1.5902,1.6269,1.6334,1.5909,1.6291,1.6345,1.592,1.5898,1.6105,1.6541,1.6127,1.6105,1.6531,1.6083,1.5615,1.5148,1.5116,1.5177,1.5311,1.5758,1.6216,1.6752,1.7235,1.7509,1.7659,1.7679,1.776,1.7828,1.7244,1.6674,1.6222,1.681,1.6727,1.6371,0.0,0.0,0.0,0.0,0.0,0.0,0.0,0.0,0.0,0.0,0.0,0.0,0.0,0.0,0.0,0.0,0.0,0.0,0.0,0.0,0.0,0.0,0.0,0.0,0.0,0.0,0.0,0.0,0.0,0.0,0.0,0.0,0.0,0.0,0.0,0.0,0.0,0.0,0.0,0.0,0.0,0.0,1.9173,0.0,0.0,0.0,0.0,0.0,0.0,0.0,0.0,0.0,0.0,0.0,0.0,0.0,0.0,0.0,0.0,0.0,0.0,0.0,0.0,0.0,0.0,0.0,0.0,0.0,0.0,0.0,0.0,0.0,0.0,0.0,0.0,1.5202,1.5202,1.5672,1.6217,1.6803,1.6611,1.6692,1.7333,1.7202,1.7158,1.7387,1.7529,1.7693,1.789,1.7901,1.7966,1.8086,1.7966,1.7802,1.7595,1.7114,1.6623,1.612,1.5432,1.5125,1.515,1.4946,1.4915,1.5108,1.592,1.6346,1.6509,1.7204,1.7536,1.7618,1.7632,1.7563,1.7421,1.7603,1.7569,1.7497,0.0,0.0,0.0,0.0,0.0,0.0,0.0,0.0,0.0,0.0,0.0,0.0,0.0,0.0,0.0,0.0,0.0,0.0,0.0,0.0,0.0,0.0,0.0,0.0,0.0,0.0,0.0,0.0,0.0,0.0,0.0,0.0,0.0,0.0,0.0,0.0,0.0,0.0,0.0,0.0,0.0,0.0,2.1374,1.9801,1.9102,1.884,1.8188,1.7992,1.795,1.7109,0.0,0.0,0.0,0.0,0.0,0.0,0.0,0.0,0.0,0.0,0.0,0.0,0.0,0.0,0.0,0.0,0.0,0.0,0.0,0.0,0.0,0.0,0.0,0.0,1.588,1.6088,1.6295,1.6515,1.6976,1.7787,1.7606,1.766,1.8239,1.8403,1.8425,1.8305,1.8676,1.884,1.8698,1.8687,1.8657,1.8566,1.8657,1.8428,1.7872,1.7686,1.7224,1.6487,1.5957,1.5487,1.5094,1.5014,1.4992,0.0,1.5778,1.6272,1.6629,1.7183,1.744,0.0,0.0,0.0,0.0,0.0,1.7902,1.7922,0.0,0.0,0.0,0.0,0.0,0.0,0.0,0.0,0.0,0.0,0.0,0.0,0.0,0.0,0.0,0.0,0.0,0.0,0.0,0.0,0.0,0.0,0.0,0.0,0.0,0.0,0.0,0.0,0.0,0.0,0.0,0.0,0.0,0.0,0.0,0.0,0.0,0.0,0.0,0.0,0.0,0.0,2.4246,2.2065,2.1658,2.2048,2.0369,1.9462,1.8949,1.8028,0.0,0.0,0.0,0.0,0.0,0.0,0.0,0.0,0.0,0.0,0.0,0.0,0.0,0.0,0.0,0.0,0.0,0.0,0.0,0.0,0.0,0.0,0.0,0.0,1.7103,1.7678,1.825,1.7912,1.7919,1.8676,1.8818,1.8873,1.8927,1.9714,1.9834,1.9004,1.9758,1.9856,1.8905,0.0,0.0,0.0,0.0,1.8583,1.797,1.8042,1.7639,1.6765,1.6574,1.6029,1.5181,1.5566,1.5765,1.5828,1.6253,1.6795,1.7413,1.7389,1.7399,1.7475,1.7496,1.757,1.7699,1.7821,1.7882,0.0,0.0,0.0,0.0,0.0,0.0,0.0,0.0,0.0,0.0,0.0,0.0,0.0,0.0,0.0,0.0,0.0,0.0,0.0,0.0,0.0,0.0,0.0,0.0,0.0,0.0,0.0,0.0,0.0,0.0,0.0,0.0,0.0,0.0,0.0,0.0,0.0,0.0,0.0,0.0,0.0,0.0,0.0,2.4388,2.3514,2.2815,2.2233,2.1852,2.1666,2.1461,2.0533,2.0172,1.9886,1.8514,0.0,0.0,0.0,0.0,0.0,0.0,0.0,0.0,0.0,0.0,0.0,0.0,0.0,0.0,0.0,0.0,0.0,0.0,0.0,0.0,1.7562,1.8108,1.8892,2.0161,1.9899,1.9486,1.931,1.9595,1.9987,2.0435,2.0643,2.0675,2.0489,2.0981,2.0882,1.9878,2.0227,0.0,1.9781,1.9802,1.9759,1.9629,1.8919,1.8458,1.825,0.0,0.0,1.5647,1.5378,1.5487,1.5951,1.5936,1.6485,1.7393,1.7289,1.7253,1.7282,1.7434,1.7516,1.755,1.7699,1.774,1.774,0.0,0.0,0.0,0.0,0.0,0.0,0.0,0.0,0.0,0.0,0.0,0.0,0.0,0.0,0.0,0.0,0.0,0.0,0.0,0.0,0.0,0.0,0.0,0.0,0.0,0.0,0.0,0.0,0.0,0.0,0.0,0.0,0.0,0.0,0.0,0.0,0.0,0.0,0.0,0.0,0.0,0.0,2.5502,2.5,2.4519,2.4071,2.3831,2.3438,2.2877,2.2182,2.1649,2.1047,1.9801,1.8722,1.7697,0.0,0.0,0.0,0.0,0.0,0.0,0.0,0.0,0.0,0.0,0.0,0.0,0.0,0.0,1.5891,0.0,0.0,1.7923,1.8886,1.9462,2.015,2.1124,2.1232,2.1023,2.0566,2.05,2.0697,2.1211,2.1439,2.1419,2.0938,2.1343,2.1166,2.0129,2.0336,2.0358,2.002,2.0388,2.0448,2.0107,2.0057,1.992,1.9696,1.8658,1.792,1.7436,1.6906,1.6654,1.6697,1.6622,1.6867,1.729,1.7232,1.7199,1.722,1.7323,1.7385,1.7461,1.7638,1.7699,1.772,0.0,0.0,0.0,0.0,0.0,0.0,0.0,0.0,0.0,0.0,0.0,0.0,0.0,0.0,0.0,0.0,0.0,0.0,0.0,0.0,0.0,0.0,0.0,0.0,0.0,0.0,0.0,0.0,0.0,0.0,0.0,0.0,0.0,0.0,0.0,0.0,0.0,0.0,0.0,0.0,0.0,0.0,2.6671,2.6223,2.5983,2.5841,2.539,2.4432,2.3389,2.3209,2.239,2.1341,2.0718,2.014,1.9331,1.7486,1.6809,0.0,0.0,0.0,0.0,0.0,0.0,0.0,0.0,0.0,1.5996,1.6193,1.6672,1.7213,1.7617,1.8498,1.9397,2.0249,2.0828,2.1343,2.18,2.2204,2.2338,2.211,2.162,2.143,2.1701,2.2171,2.2155,2.1438,2.1702,2.1572,2.0718,2.063,2.0542,2.0345,2.0965,2.1042,2.0504,2.1086,2.1221,2.0839,2.0129,1.9549,1.9069,1.8487,1.8032,1.7743,1.7698,1.7564,1.7369,1.7251,1.7199,1.7199,1.7199,1.7274,1.737,1.7577,1.7659,1.7679,0.0,0.0,0.0,0.0,0.0,0.0,0.0,0.0,0.0,0.0,0.0,0.0,0.0,0.0,0.0,0.0,0.0,0.0,0.0,0.0,0.0,0.0,0.0,0.0,0.0,0.0,0.0,0.0,0.0,0.0,0.0,0.0,0.0,0.0,0.0,0.0,0.0,0.0,0.0,0.0,0.0,0.0,2.7184,2.6682,2.6278,2.5841,2.539,2.4006,2.2597,2.3346,2.2444,2.1102,2.1832,2.145,2.0435,1.8895,0.0,1.6972,1.592,1.568,1.5822,1.6236,1.6073,1.6029,0.0,0.0,1.6672,1.7584,1.848,1.9082,1.9137,1.9965,2.0829,2.1341,2.1832,2.2313,2.2783,2.2892,2.315,2.3754,2.3212,2.2619,2.2269,2.2652,2.2988,2.3095,2.3118,2.2983,2.2703,2.2567,2.2321,2.1877,2.1947,2.1954,2.1894,2.1578,2.1361,2.13,2.0298,1.9549,1.9069,1.8487,1.8474,1.8902,1.8784,1.8461,1.7957,1.7421,1.7199,1.7199,1.7199,1.7199,1.7253,1.737,1.7461,1.755,0.0,0.0,0.0,0.0,0.0,0.0,0.0,0.0,0.0,0.0,0.0,0.0,0.0,0.0,0.0,0.0,0.0,0.0,0.0,0.0,0.0,0.0,0.0,0.0,0.0,0.0,0.0,0.0,0.0,0.0,0.0,0.0,0.0,0.0,0.0,0.0,0.0,0.0,0.0,0.0,0.0,0.0,2.7173,2.5874,2.4891,2.4192,2.3984,2.3034,0.0,0.0,2.1561,2.1015,2.168,2.1221,2.0216,1.9037,1.805,0.0,1.64,0.0,0.0,0.0,1.7234,1.7748,1.872,1.9004,1.9275,1.9943,2.0402,2.0675,2.0675,2.1243,2.1778,0.0,2.2615,2.3249,2.3607,2.3596,2.3738,2.4214,2.3746,2.3513,2.3988,2.3811,2.3781,2.4094,2.334,2.2922,2.2999,2.2963,2.2666,2.2125,2.2831,2.3059,2.2695,2.2874,2.298,2.2968,2.2157,2.1498,2.0993,2.0409,1.9901,1.947,1.8764,1.831,1.8048,1.7447,1.7199,1.7199,1.7199,1.7199,1.722,1.735,1.744,1.7516,0.0,0.0,0.0,0.0,0.0,0.0,0.0,0.0,0.0,0.0,0.0,0.0,0.0,0.0,0.0,0.0,0.0,0.0,0.0,0.0,0.0,0.0,0.0,0.0,0.0,0.0,0.0,0.0,0.0,0.0,0.0,0.0,0.0,0.0,0.0,0.0,0.0,0.0,0.0,0.0,0.0,0.0,2.654,2.4902,2.3504,2.2411,2.2411,2.1549,0.0,0.0,2.0019,1.9822,2.0555,2.0303,1.9551,1.8742,1.7923,1.7224,1.6994,0.0,0.0,1.7912,1.8676,1.9506,2.0325,2.0806,2.119,2.1516,2.1691,2.1745,2.1614,2.1876,0.0,2.2781,2.3401,2.3985,2.4394,2.45,2.4542,2.451,2.3996,2.4098,2.532,2.4529,2.4213,2.4791,2.38,2.3451,2.3991,2.3862,2.3571,2.3133,2.4016,2.4213,2.3641,2.4127,2.4269,2.4083,2.3483,2.2936,2.2387,2.1616,2.074,1.9747,1.8754,1.8231,1.8061,1.763,1.7356,1.7212,1.7382,1.7342,1.7225,1.7492,1.7544,1.7516,0.0,0.0,0.0,0.0,0.0,0.0,0.0,0.0,0.0,0.0,0.0,0.0,0.0,0.0,0.0,0.0,0.0,0.0,0.0,0.0,0.0,0.0,0.0,0.0,0.0,0.0,0.0,0.0,0.0,0.0,0.0,0.0,0.0,0.0,0.0,0.0,0.0,0.0,0.0,0.0,0.0,0.0,2.5171,2.4137,2.2575,2.096,2.096,0.0,0.0,0.0,1.7813,1.6896,1.8327,1.8753,0.0,1.8163,1.7671,0.0,0.0,0.0,1.8851,1.9791,2.0435,2.096,2.1428,2.1559,2.157,2.1592,2.1964,2.2149,2.168,2.1603,2.2181,2.3959,2.4251,2.4515,2.5158,2.5661,2.5646,2.48,2.4166,2.4305,0.0,2.4471,2.4141,2.5378,2.4941,2.5203,2.6518,2.6035,2.5722,2.5678,2.5722,2.5493,2.4949,2.4966,2.4661,2.4083,2.3483,2.2936,2.2374,2.1237,2.0386,1.9773,1.9146,1.8584,1.81,1.8074,1.7735,1.7251,1.7839,1.7721,1.7264,1.7852,1.7824,1.7516,0.0,0.0,0.0,0.0,0.0,0.0,0.0,0.0,0.0,0.0,0.0,0.0,0.0,0.0,0.0,0.0,0.0,0.0,0.0,0.0,0.0,0.0,0.0,0.0,0.0,0.0,0.0,0.0,0.0,0.0,0.0,0.0,0.0,0.0,0.0,0.0,0.0,0.0,0.0,0.0,0.0,0.0,2.3525,2.1603,2.0074,1.884,0.0,0.0,0.0,0.0,0.0,0.0,1.7005,0.0,0.0,1.6585,0.0,0.0,0.0,0.0,1.978,2.0456,2.0981,2.1583,2.2346,2.2521,2.2521,2.2521,2.216,2.168,2.1233,2.1452,2.2196,2.3594,2.4742,2.5721,2.6532,2.6703,2.6567,2.6077,2.5182,0.0,0.0,0.0,0.0,2.6181,2.5311,2.528,2.6648,2.6523,2.6216,2.5806,2.5793,2.555,2.5005,2.4596,2.4308,2.4083,2.3145,2.2556,2.2374,2.1223,2.0607,2.036,1.976,1.9394,1.9198,1.8806,1.8506,1.8349,1.8558,1.8506,1.8349,1.8674,1.8688,1.8517,0.0,0.0,0.0,0.0,0.0,0.0,0.0,0.0,0.0,0.0,0.0,0.0,0.0,0.0,0.0,0.0,0.0,0.0,0.0,0.0,0.0,0.0,0.0,0.0,0.0,0.0,0.0,0.0,0.0,0.0,0.0,0.0,0.0,0.0,0.0,0.0,0.0,0.0,0.0,0.0,0.0,0.0,2.1035,1.931,1.8065,0.0,0.0,0.0,0.0,0.0,0.0,0.0,0.0,0.0,0.0,0.0,0.0,0.0,0.0,2.0172,2.1045,2.1723,2.2258,2.2695,2.2936,2.287,2.2608,2.2048,2.1363,2.0731,2.0454,2.0896,2.1846,2.3473,2.4754,2.598,2.7205,2.7147,2.6888,2.672,2.5698,0.0,0.0,0.0,0.0,2.6582,2.5711,2.564,2.6935,2.6987,2.6817,2.6406,2.6229,2.585,2.5275,2.4713,2.4321,2.4083,2.313,2.2596,2.2374,2.1433,2.0766,2.036,1.9969,1.9682,1.9473,1.9303,1.9094,1.8924,1.9146,1.9094,1.895,1.9488,1.9574,1.9357,0.0,0.0,0.0,0.0,0.0,0.0,0.0,0.0,0.0,0.0,0.0,0.0,0.0,0.0,0.0,0.0,0.0,0.0,0.0,0.0,0.0,0.0,0.0,0.0,0.0,0.0,0.0,0.0,0.0,0.0,0.0,0.0,0.0,0.0,0.0,0.0,0.0,0.0,0.0,0.0,0.0,0.0,1.7965,1.7439,0.0,0.0,0.0,0.0,0.0,0.0,0.0,0.0,0.0,0.0,0.0,0.0,0.0,1.9177,2.0588,2.1669,2.2604,2.3476,2.4132,2.4259,2.3191,2.2637,2.1892,2.0435,1.9755,1.947,0.0,0.0,2.1296,2.3717,2.4564,2.5581,2.7384,2.7196,2.6876,0.0,0.0,0.0,0.0,0.0,0.0,2.6758,0.0,2.6354,2.7438,2.7529,2.7529,2.749,2.6974,2.6412,2.5845,2.5262,2.4717,2.4083,2.3483,2.2936,2.2387,2.1786,2.0897,1.9852,1.9852,1.9525,1.9041,1.9616,1.9512,1.9054,1.963,1.9499,1.9133,2.0332,2.0458,1.9998,0.0,0.0,0.0,0.0,0.0,0.0,0.0,0.0,0.0,0.0,0.0,0.0,0.0,0.0,0.0,0.0,0.0,0.0,0.0,0.0,0.0,0.0,0.0,0.0,0.0,0.0,0.0,0.0,0.0,0.0,0.0,0.0,0.0,0.0,0.0,0.0,0.0,0.0,0.0,0.0,0.0,0.0,1.7921,0.0,0.0,0.0,0.0,0.0,0.0,0.0,0.0,0.0,0.0,0.0,1.7092,0.0,0.0,2.1013,2.1745,2.2925,2.3908,2.3727,2.4231,2.4416,2.2917,2.2627,2.2227,2.0642,2.0281,2.0111,0.0,0.0,0.0,2.4942,2.6165,0.0,2.9177,2.9304,0.0,0.0,0.0,2.7779,2.8347,2.7471,0.0,0.0,2.7667,2.719,2.7477,2.7941,2.7968,2.7503,2.6974,2.6641,2.6452,2.5502,2.4717,2.4083,2.3483,2.2923,2.2375,2.1773,2.1119,2.0465,2.0465,2.0373,2.0242,2.0399,2.0373,2.0255,2.0399,2.0373,2.0345,2.1142,2.1113,2.0788,0.0,0.0,0.0,0.0,0.0,0.0,0.0,0.0,0.0,0.0,0.0,0.0,0.0,0.0,0.0,0.0,0.0,0.0,0.0,0.0,0.0,0.0,0.0,0.0,0.0,0.0,0.0,0.0,0.0,0.0,0.0,0.0,0.0,0.0,0.0,0.0,0.0,0.0,0.0,0.0,0.0,0.0,0.0,0.0,0.0,0.0,0.0,0.0,0.0,0.0,0.0,1.6671,1.7306,1.8288,1.9414,2.0242,0.0,2.2616,2.3545,2.4563,2.5194,2.4664,2.496,2.4879,2.299,2.2347,2.1757,2.0392,2.0161,0.0,0.0,0.0,0.0,0.0,0.0,0.0,2.9013,2.8935,2.8869,0.0,2.9131,0.0,2.9284,2.8686,2.8569,0.0,2.8425,2.7902,2.7902,2.8203,2.8111,2.7516,2.6974,2.6457,2.596,2.507,2.4439,2.4083,2.3744,2.3302,2.2727,2.24,2.1812,2.1053,0.0,2.0909,2.0699,2.0699,2.0831,2.1053,2.1053,2.1351,2.1871,2.2523,2.2583,2.2581,0.0,0.0,0.0,0.0,0.0,0.0,0.0,0.0,0.0,0.0,0.0,0.0,0.0,0.0,0.0,0.0,0.0,0.0,0.0,0.0,0.0,0.0,0.0,0.0,0.0,0.0,0.0,0.0,0.0,0.0,0.0,0.0,0.0,0.0,0.0,0.0,0.0,0.0,0.0,0.0,0.0,0.0,0.0,0.0,0.0,0.0,0.0,0.0,0.0,0.0,1.783,1.8374,1.8971,2.0372,2.1964,2.2885,2.3421,2.4092,2.555,2.6313,2.6505,2.5923,2.5899,2.5479,2.3312,2.2116,2.1151,2.0058,0.0,0.0,2.0025,0.0,2.2107,2.3256,0.0,2.4687,2.7928,2.7635,2.7798,2.9852,2.9758,2.9545,2.9545,2.9545,2.9545,2.9545,2.9048,2.8656,2.842,2.8486,2.8203,2.7516,2.6974,2.6196,2.5123,2.4517,2.4191,2.4083,2.4083,2.377,2.3182,2.3182,2.2608,2.1629,0.0,0.0,2.0935,2.0935,2.1197,2.1629,2.1694,2.2338,2.3293,2.3999,2.4285,2.4487,0.0,0.0,0.0,0.0,0.0,0.0,0.0,0.0,0.0,0.0,0.0,0.0,0.0,0.0,0.0,0.0,0.0,0.0,0.0,0.0,0.0,0.0,0.0,0.0,0.0,0.0,0.0,0.0,0.0,0.0,0.0,0.0,0.0,0.0,0.0,0.0,0.0,0.0,0.0,0.0,0.0,0.0,0.0,0.0,0.0,0.0,0.0,0.0,0.0,0.0,1.7842,1.8057,2.0257,2.1509,2.2577,2.442,2.5289,2.5888,2.7024,2.769,2.7818,2.69,2.6445,2.567,2.3461,2.2559,0.0,0.0,0.0,2.1211,2.1212,2.2133,0.0,2.4491,0.0,0.0,0.0,0.0,2.9157,0.0,0.0,0.0,0.0,0.0,0.0,0.0,0.0,0.0,2.8499,2.8856,2.8634,2.7529,2.6974,2.6379,2.568,2.5105,2.4583,2.4083,2.4083,2.377,2.3182,2.3182,2.2858,2.2244,0.0,0.0,2.2127,2.2127,2.2166,2.2297,2.2736,2.3025,2.3345,2.4555,2.4699,2.4487,0.0,0.0,0.0,0.0,0.0,0.0,0.0,0.0,0.0,0.0,0.0,0.0,0.0,0.0,0.0,0.0,0.0,0.0,0.0,0.0,0.0,0.0,0.0,0.0,0.0,0.0,0.0,0.0,0.0,0.0,0.0,0.0,0.0,0.0,0.0,0.0,0.0,0.0,0.0,0.0,0.0,0.0,0.0,0.0,0.0,0.0,0.0,0.0,0.0,0.0,1.7983,1.8261,2.0571,2.2598,2.4356,2.5574,2.6498,2.7274,2.8062,2.8677,2.8811,2.7742,2.6982,2.5992,2.4021,0.0,0.0,0.0,0.0,2.1511,2.1511,0.0,0.0,0.0,0.0,0.0,0.0,0.0,0.0,0.0,0.0,0.0,0.0,0.0,0.0,0.0,0.0,0.0,2.8922,2.8543,2.8111,2.7516,2.6687,2.6099,2.5793,2.4962,2.4387,2.4083,2.4083,2.3939,2.3652,2.3652,2.3367,2.2805,2.2818,0.0,2.2414,2.2414,2.2748,2.3325,2.3635,2.4329,2.5213,2.5946,2.6196,2.6317,0.0,0.0,0.0,0.0,0.0,0.0,0.0,0.0,0.0,0.0,0.0,0.0,0.0,0.0,0.0,0.0,0.0,0.0,0.0,0.0,0.0,0.0,0.0,0.0,0.0,0.0,0.0,0.0,0.0,0.0,0.0,0.0,0.0,0.0,0.0,0.0,0.0,0.0,0.0,0.0,0.0,0.0,0.0,0.0,0.0,0.0,0.0,0.0,0.0,0.0,1.8026,1.847,2.0163,2.2731,2.5231,2.6052,2.7028,2.8064,2.8872,2.9416,2.953,2.8543,2.7306,2.5947,2.4452,2.2662,0.0,0.0,0.0,2.1368,2.1485,0.0,0.0,0.0,0.0,0.0,0.0,0.0,0.0,0.0,0.0,0.0,0.0,0.0,0.0,0.0,0.0,0.0,2.9362,2.8164,2.749,2.749,2.6511,2.591,2.5793,2.4805,2.4243,2.4083,2.4083,2.4083,2.4083,2.4243,2.4121,2.3817,2.3936,0.0,0.0,2.3444,2.3933,2.4778,2.4869,2.5747,2.6979,2.7199,2.76,2.8005,0.0,0.0,0.0,0.0,0.0,0.0,0.0,0.0,0.0,0.0,0.0,0.0,0.0,0.0,0.0,0.0,0.0,0.0,0.0,0.0,0.0,0.0,0.0,0.0,0.0,0.0,0.0,0.0,0.0,0.0,0.0,0.0,0.0,0.0,0.0,0.0,0.0,0.0,0.0,0.0,0.0,0.0,0.0,0.0,0.0,0.0,0.0,0.0,0.0,0.0,0.0,1.823,1.8897,2.0755,2.3147,2.5235,0.0,0.0,2.9535,3.0017,2.9913,2.9324,2.715,2.4979,2.4269,0.0,0.0,0.0,2.0751,2.0923,2.142,2.1995,0.0,0.0,0.0,0.0,0.0,0.0,0.0,0.0,0.0,0.0,0.0,0.0,0.0,0.0,0.0,0.0,0.0,2.8164,2.749,2.749,2.6922,2.6347,2.5806,2.5197,2.4622,2.4083,2.4083,2.4083,2.4109,2.4661,2.5233,2.578,0.0,0.0,0.0,2.6834,2.672,2.6913,2.6849,2.6935,2.7148,2.77,2.7955,2.8005,0.0,0.0,0.0,0.0,0.0,0.0,0.0,0.0,0.0,0.0,0.0,0.0,0.0,0.0,0.0,0.0,0.0,0.0,0.0,0.0,0.0,0.0,0.0,0.0,0.0,0.0,0.0,0.0,0.0,0.0,0.0,0.0,0.0,0.0,0.0,0.0,0.0,0.0,0.0,0.0,0.0,0.0,0.0,0.0,0.0,0.0,0.0,0.0,0.0,0.0,0.0,0.0,1.7925,1.8826,0.0,0.0,2.5284,2.6772,2.8156,2.9078,2.9392,2.8451,2.6582,2.4756,2.3785,0.0,0.0,2.0699,2.0699,2.0857,2.1407,2.1981,2.2752,0.0,0.0,0.0,0.0,0.0,0.0,0.0,0.0,0.0,0.0,0.0,0.0,0.0,0.0,0.0,0.0,2.8686,2.7889,2.7503,2.6974,2.678,2.6952,2.6367,2.6161,2.6329,2.6329,2.6329,2.6342,2.6576,2.6832,2.7109,0.0,0.0,0.0,2.7712,2.7651,2.7742,2.7812,2.7797,2.781,2.8128,2.8241,2.8266,0.0,0.0,0.0,0.0,0.0,0.0,0.0,0.0,0.0,0.0,0.0,0.0,0.0,0.0,0.0,0.0,0.0,0.0,0.0,0.0,0.0,0.0,0.0,0.0,0.0,0.0,0.0,0.0,0.0,0.0,0.0,0.0,0.0,0.0,0.0,0.0,0.0,0.0,0.0,0.0,0.0,0.0,0.0,0.0,0.0,0.0,0.0,0.0,0.0,0.0,0.0,0.0,0.0,0.0,0.0,0.0,2.3535,2.5271,2.6465,2.7628,2.8268,2.7242,2.5733,2.4191,0.0,0.0,0.0,2.0699,2.0699,2.0857,2.1407,2.1995,2.2766,0.0,0.0,0.0,0.0,0.0,0.0,0.0,0.0,0.0,0.0,0.0,0.0,0.0,0.0,0.0,0.0,2.9704,2.8824,2.7798,2.7407,2.7365,2.7695,2.7461,2.7506,2.7794,2.7794,2.7794,2.7808,2.7992,2.8164,2.8368,0.0,0.0,0.0,2.8956,2.8853,2.8775,2.867,2.8485,2.8259,2.8372,2.8411,2.8411,0.0,0.0,0.0,0.0,0.0,0.0,0.0,0.0,0.0,0.0,0.0,0.0,0.0,0.0,0.0,0.0,0.0,0.0,0.0,0.0,0.0,0.0,0.0,0.0,0.0,0.0,0.0,0.0,0.0,0.0,0.0,0.0,0.0,0.0,0.0,0.0,0.0,0.0,0.0,0.0,0.0,0.0,0.0,0.0,0.0,0.0,0.0,0.0,0.0,0.0,0.0,0.0,0.0,0.0,0.0,0.0,2.1459,2.3498,2.4704,2.5855,2.6588,2.5981,2.4501,2.308,0.0,0.0,2.0699,2.0699,2.0699,2.0857,2.1407,2.1995,2.2767,2.3916,2.4596,0.0,0.0,0.0,0.0,0.0,0.0,0.0,0.0,0.0,0.0,0.0,0.0,0.0,0.0,3.1306,3.0463,2.8454,2.8464,2.8216,2.7695,2.836,2.8369,2.7794,2.7794,2.7794,2.7808,2.8427,2.9038,0.0,0.0,0.0,0.0,3.1225,3.072,3.0325,2.9648,2.8972,2.8411,2.8411,2.8411,2.8411,0.0,0.0,0.0,0.0,0.0,0.0,0.0,0.0,0.0,0.0,0.0,0.0,0.0,0.0,0.0,0.0,0.0,0.0,0.0,0.0,0.0,0.0,0.0,0.0,0.0,0.0,0.0,0.0,0.0,0.0,0.0,0.0,0.0,0.0,0.0,0.0,0.0,0.0,0.0,0.0,0.0,0.0,0.0,0.0,0.0,0.0,0.0,0.0,0.0,0.0,0.0,0.0,0.0,0.0,0.0,0.0,0.0,0.0,2.2805,2.35,2.3723,2.3524,2.2738,2.1904,2.1354,0.0,2.0699,2.0699,2.0699,2.0751,2.0923,2.142,2.2034,2.2818,2.3759,0.0,0.0,0.0,0.0,0.0,0.0,0.0,0.0,0.0,0.0,0.0,0.0,0.0,0.0,3.1151,3.0429,2.9849,2.943,2.9341,2.9604,2.983,3.0073,3.0323,2.9852,2.9882,3.0308,3.0058,0.0,0.0,0.0,0.0,0.0,3.1769,3.1189,3.0371,3.0156,2.9371,2.8411,2.8411,2.8411,2.8411,0.0,0.0,0.0,0.0,0.0,0.0,0.0,0.0,0.0,0.0,0.0,0.0,0.0,0.0,0.0,0.0,0.0,0.0,0.0,0.0,0.0,0.0,0.0,0.0,0.0,0.0,0.0,0.0,0.0,0.0,0.0,0.0,0.0,0.0,0.0,0.0,0.0,0.0,0.0,0.0,0.0,0.0,0.0,0.0,0.0,0.0,0.0,0.0,0.0,0.0,0.0,0.0,0.0,0.0,0.0,0.0,0.0,0.0,0.0,2.142,2.1747,2.1472,2.1171,0.0,0.0,0.0,0.0,2.066,2.0699,2.0699,2.0699,2.1328,2.1956,2.2348,2.355,0.0,0.0,0.0,0.0,0.0,0.0,0.0,0.0,0.0,0.0,0.0,0.0,0.0,0.0,0.0,3.1219,3.1236,3.0371,3.0103,3.0614,3.0866,3.119,3.1597,3.0936,3.0923,3.1481,3.0821,0.0,0.0,0.0,0.0,0.0,3.1968,3.1345,3.0334,3.0376,2.9571,2.8411,2.8411,2.8411,2.8411,0.0,0.0,0.0,0.0,0.0,0.0,0.0,0.0,0.0,0.0,0.0,0.0,0.0,0.0,0.0,0.0,0.0,0.0,0.0,0.0,0.0,0.0,0.0,0.0,0.0,0.0,0.0,0.0,0.0,0.0,0.0,0.0,0.0,0.0,0.0,0.0,0.0,0.0,0.0,0.0,0.0,0.0,0.0,0.0,0.0,0.0,0.0,0.0,0.0,0.0,0.0,0.0,0.0,0.0,0.0,0.0,0.0,0.0,0.0,0.0,0.0,0.0,0.0,0.0,0.0,0.0,0.0,0.0,0.0,0.0,2.0751,2.1655,2.2416,2.2452,2.3838,0.0,0.0,0.0,0.0,0.0,0.0,0.0,0.0,0.0,0.0,0.0,0.0,0.0,0.0,0.0,3.2452,3.2452,3.1249,3.0673,3.0837,3.1467,3.1769,3.1709,3.1043,3.099,3.1435,3.0775,0.0,0.0,0.0,0.0,0.0,3.1968,3.1332,3.0276,3.0376,2.9602,2.8473,2.8427,2.8411,2.8411,0.0,0.0,0.0,0.0,0.0,0.0,0.0,0.0,0.0,0.0,0.0,0.0,0.0,0.0,0.0,0.0,0.0,0.0,0.0,0.0,0.0,0.0,0.0,0.0,0.0,0.0,0.0,0.0,0.0,0.0,0.0,0.0,0.0,0.0,0.0,0.0,0.0,0.0,0.0,0.0,0.0,0.0,0.0,0.0,0.0,0.0,1.8009,0.0,0.0,0.0,0.0,0.0,0.0,0.0,0.0,0.0,0.0,0.0,0.0,0.0,0.0,0.0,0.0,0.0,0.0,0.0,0.0,0.0,0.0,0.0,0.0,0.0,0.0,0.0,0.0,0.0,0.0,0.0,0.0,0.0,0.0,0.0,0.0,0.0,0.0,0.0,0.0,0.0,0.0,0.0,3.1808,3.1953,3.1658,3.1438,3.1351,3.1641,3.1528,3.0958,3.0431,3.0504,3.1097,3.0416,0.0,0.0,0.0,0.0,3.2122,3.215,3.1757,3.1078,3.0586,2.9894,2.9119,2.8596,2.8411,2.8411,0.0,0.0,0.0,0.0,0.0,0.0,0.0,0.0,0.0,0.0,0.0,0.0,0.0,0.0,0.0,0.0,0.0,0.0,0.0,0.0,0.0,0.0,0.0,0.0,0.0,0.0,0.0,0.0,0.0,0.0,0.0,0.0,0.0,0.0,0.0,0.0,0.0,0.0,0.0,0.0,0.0,0.0,0.0,0.0,0.0,0.0,1.847,1.8352,0.0,1.8195,1.7969,1.7699,0.0,0.0,0.0,0.0,0.0,0.0,0.0,0.0,0.0,0.0,0.0,0.0,0.0,0.0,0.0,0.0,0.0,0.0,0.0,0.0,0.0,0.0,0.0,0.0,0.0,0.0,0.0,0.0,0.0,0.0,0.0,0.0,0.0,0.0,0.0,0.0,0.0,0.0,3.1769,3.1898,3.1898,3.1855,3.1811,3.194,3.1771,3.1392,3.0821,3.0852,3.1435,3.0767,0.0,0.0,0.0,0.0,3.2122,3.2163,3.1665,3.0826,3.0525,2.9787,2.8904,2.8535,2.8411,2.8411,0.0,0.0,0.0,0.0,0.0,0.0,0.0,0.0,0.0,0.0,0.0,0.0,0.0,0.0,0.0,0.0,0.0,0.0,0.0,0.0,0.0,0.0,0.0,0.0,0.0,0.0,0.0,0.0,0.0,0.0,0.0,0.0,0.0,0.0,0.0,0.0,0.0,0.0,0.0,0.0,0.0,0.0,0.0,0.0,0.0,0.0,0.0,0.0,0.0,1.8436,1.8254,1.7909,1.7902,0.0,0.0,0.0,0.0,0.0,0.0,0.0,0.0,0.0,0.0,0.0,0.0,0.0,0.0,0.0,0.0,0.0,0.0,0.0,0.0,0.0,0.0,0.0,0.0,0.0,0.0,0.0,0.0,0.0,0.0,0.0,0.0,0.0,0.0,0.0,0.0,0.0,0.0,3.2025,3.2038,3.2094,3.2219,3.2219,3.2145,3.2038,3.1484,3.146,3.1898,3.1335,0.0,0.0,0.0,0.0,3.1929,3.2145,3.1512,3.0379,3.0406,2.9633,2.855,2.8442,2.8411,2.8396,0.0,0.0,0.0,0.0,0.0,0.0,0.0,0.0,0.0,0.0,0.0,0.0,0.0,0.0,0.0,0.0,0.0,0.0,0.0,0.0,0.0,0.0,0.0,0.0,0.0,0.0,0.0,0.0,0.0,0.0,0.0,0.0,0.0,0.0,0.0,0.0,0.0,0.0,0.0,0.0,0.0,0.0,0.0,0.0,0.0,0.0,0.0,0.0,0.0,1.8712,1.8669,1.8779,1.8109,0.0,0.0,0.0,0.0,0.0,0.0,0.0,0.0,0.0,0.0,0.0,0.0,0.0,0.0,0.0,0.0,0.0,0.0,0.0,0.0,0.0,0.0,0.0,0.0,0.0,0.0,0.0,0.0,0.0,0.0,0.0,0.0,0.0,0.0,0.0,0.0,0.0,0.0,3.2178,3.2178,3.2247,3.237,3.2274,3.1916,3.1335,3.1363,3.1417,3.1482,3.139,3.139,0.0,0.0,3.202,3.1543,3.2139,3.1909,3.1155,3.0602,2.9925,2.9196,2.8611,2.8411,2.8468,0.0,0.0,0.0,0.0,0.0,0.0,0.0,0.0,0.0,0.0,0.0,0.0,0.0,0.0,0.0,0.0,0.0,0.0,0.0,0.0,0.0,0.0,0.0,0.0,0.0,0.0,0.0,0.0,0.0,0.0,0.0,0.0,0.0,0.0,0.0,0.0,0.0,0.0,0.0,0.0,0.0,0.0,0.0,0.0,0.0,0.0,0.0,0.0,0.0,0.0,1.9124,1.9045,1.8664,0.0,0.0,0.0,0.0,0.0,2.0568,2.1421,0.0,0.0,0.0,0.0,0.0,0.0,0.0,0.0,0.0,0.0,0.0,0.0,0.0,0.0,0.0,0.0,0.0,0.0,0.0,0.0,0.0,0.0,0.0,0.0,0.0,0.0,0.0,0.0,0.0,0.0,0.0,0.0,3.233,3.2342,3.2398,3.2342,3.2161,3.1854,3.1909,3.1921,3.1921,3.1921,3.1921,3.1921,0.0,3.1874,3.1905,3.149,3.1151,3.0797,3.0109,2.9433,2.8827,2.8519,2.8549,2.885,0.0,0.0,0.0,0.0,0.0,0.0,0.0,0.0,0.0,0.0,0.0,0.0,0.0,0.0,0.0,0.0,0.0,0.0,0.0,0.0,0.0,0.0,0.0,0.0,0.0,0.0,0.0,0.0,0.0,0.0,0.0,0.0,0.0,0.0,0.0,0.0,0.0,0.0,0.0,0.0,0.0,0.0,0.0,0.0,0.0,0.0,0.0,0.0,0.0,0.0,0.0,0.0,0.0,0.0,0.0,0.0,1.925,1.9622,2.1368,2.1928,0.0,0.0,0.0,0.0,0.0,0.0,0.0,0.0,0.0,0.0,0.0,0.0,0.0,0.0,0.0,0.0,0.0,0.0,0.0,0.0,0.0,0.0,0.0,0.0,0.0,0.0,0.0,0.0,0.0,0.0,0.0,0.0,3.2398,3.2398,3.2398,3.2398,3.2321,3.2151,3.2321,3.2305,3.2167,3.2321,3.2228,3.1921,3.1705,3.1736,3.1874,3.1299,3.0856,3.0531,3.0139,2.9472,2.874,2.874,2.902,2.9467,0.0,0.0,0.0,0.0,0.0,0.0,0.0,0.0,0.0,0.0,0.0,0.0,0.0,0.0,0.0,0.0,0.0,0.0,0.0,0.0,0.0,0.0,0.0,0.0,0.0,0.0,0.0,0.0,0.0,0.0,0.0,0.0,0.0,0.0,0.0,0.0,0.0,0.0,0.0,0.0,0.0,0.0,0.0,0.0,0.0,0.0,0.0,0.0,0.0,0.0,0.0,0.0,0.0,0.0,0.0,0.0,0.0,2.0047,2.1785,2.2259,0.0,0.0,0.0,0.0,0.0,0.0,0.0,0.0,0.0,0.0,0.0,0.0,0.0,0.0,0.0,0.0,0.0,0.0,0.0,0.0,0.0,0.0,0.0,0.0,0.0,0.0,0.0,0.0,0.0,0.0,0.0,0.0,0.0,3.2398,3.2398,3.2398,3.2074,3.1486,3.209,3.2059,3.1501,3.2105,3.172,3.0602,3.1813,3.1643,3.0669,3.2322,3.222,3.1094,3.1526,3.09,2.9683,2.9683,3.0011,3.0398,0.0,0.0,0.0,0.0,0.0,0.0,0.0,0.0,0.0,0.0,0.0,0.0,0.0,0.0,0.0,0.0,0.0,0.0,0.0,0.0,0.0,0.0,0.0,0.0,0.0,0.0,0.0,0.0,0.0,0.0,0.0,0.0,0.0,0.0,0.0,0.0,0.0,0.0,0.0,0.0,0.0,0.0,0.0,0.0,0.0,0.0,0.0,0.0,0.0,0.0,0.0,0.0,0.0,0.0,0.0,0.0,0.0,2.0403,2.1898,2.2594,0.0,0.0,0.0,0.0,0.0,0.0,0.0,0.0,0.0,0.0,0.0,0.0,0.0,0.0,0.0,0.0,0.0,0.0,0.0,0.0,0.0,0.0,0.0,0.0,0.0,0.0,0.0,0.0,0.0,0.0,0.0,0.0,0.0,3.131,3.1592,3.131,3.0969,3.0601,3.182,3.2259,3.204,3.2625,3.2368,3.1498,3.204,3.1961,3.1467,3.1826,3.1887,3.1738,3.1427,3.0658,2.9858,3.0301,3.0495,3.0564,0.0,0.0,0.0,0.0,0.0,0.0,0.0,0.0,0.0,0.0,0.0,0.0,0.0,0.0,0.0,0.0,0.0,0.0,0.0,0.0,0.0,0.0,0.0,0.0,0.0,0.0,0.0,0.0,0.0,0.0,0.0,0.0,0.0,0.0,0.0,0.0,0.0,0.0,0.0,0.0,0.0,0.0,0.0,0.0,0.0,0.0,0.0,0.0,0.0,0.0,0.0,0.0,0.0,0.0,0.0,0.0,0.0,0.0,2.1673,2.2644,0.0,0.0,0.0,0.0,0.0,0.0,0.0,0.0,0.0,0.0,0.0,0.0,0.0,0.0,0.0,0.0,0.0,0.0,0.0,0.0,0.0,0.0,0.0,0.0,0.0,0.0,0.0,0.0,0.0,0.0,0.0,0.0,0.0,0.0,3.1316,3.1002,3.0766,3.0656,3.1709,3.2028,3.171,3.251,3.2469,3.1729,3.2224,3.2272,3.2008,3.175,3.187,3.215,3.1313,3.0821,3.064,3.1155,3.1217,3.1154,0.0,0.0,0.0,0.0,0.0,0.0,0.0,0.0,0.0,0.0,0.0,0.0,0.0,0.0,0.0,0.0,0.0,0.0,0.0,0.0,0.0,0.0,0.0,0.0,0.0,0.0,0.0,0.0,0.0,0.0,0.0,0.0,0.0,0.0,0.0,0.0,0.0,0.0,0.0,0.0,0.0,0.0,0.0,0.0,0.0,0.0,0.0,0.0,0.0,0.0,0.0,0.0,0.0,0.0,0.0,0.0,2.0304,2.0458,2.1119,0.0,0.0,0.0,0.0,0.0,0.0,0.0,0.0,0.0,0.0,0.0,0.0,0.0,0.0,0.0,0.0,0.0,0.0,0.0,0.0,0.0,0.0,0.0,0.0,0.0,0.0,0.0,0.0,0.0,0.0,0.0,0.0,0.0,0.0,0.0,3.1781,3.1781,3.1781,3.1804,3.1781,3.1214,3.0164,3.1555,3.17,3.0881,3.2288,3.2522,3.1929,3.2422,3.2472,3.2226,3.1495,3.1667,3.2293,3.2327,3.231,3.2412,0.0,0.0,0.0,0.0,0.0,0.0,0.0,0.0,0.0,0.0,0.0,0.0,0.0,0.0,0.0,0.0,0.0,0.0,0.0,0.0,0.0,0.0,0.0,0.0,0.0,0.0,0.0,0.0,0.0,0.0,0.0,0.0,0.0,0.0,0.0,0.0,0.0,0.0,0.0,0.0,0.0,0.0,0.0,0.0,0.0,0.0,0.0,0.0,0.0,0.0,0.0,0.0,0.0,0.0,0.0,0.0,2.0304,2.0551,2.1689,0.0,0.0,0.0,0.0,0.0,0.0,0.0,0.0,0.0,0.0,0.0,0.0,0.0,0.0,0.0,0.0,0.0,0.0,0.0,0.0,0.0,0.0,0.0,0.0,0.0,0.0,0.0,0.0,0.0,0.0,0.0,0.0,0.0,0.0,0.0,3.0871,3.0559,3.0559,3.0871,3.0559,3.0709,3.1325,3.2122,3.2043,3.1342,3.2278,3.2278,3.166,3.2337,3.2472,3.2327,3.2628,3.256,3.2429,3.3461,3.319,3.2412,0.0,0.0,0.0,0.0,0.0,0.0,0.0,0.0,0.0,0.0,0.0,0.0,0.0,0.0,0.0,0.0,0.0,0.0,0.0,0.0,0.0,0.0,0.0,0.0,0.0,0.0,0.0,0.0,0.0,0.0,0.0,0.0,0.0,0.0,0.0,0.0,0.0,0.0,0.0,0.0,0.0,0.0,0.0,0.0,0.0,0.0,0.0,0.0,0.0,0.0,0.0,0.0,0.0,0.0,0.0,2.0304,2.0304,2.0489,0.0,0.0,0.0,0.0,0.0,0.0,0.0,0.0,0.0,0.0,0.0,0.0,0.0,0.0,0.0,0.0,0.0,0.0,0.0,0.0,0.0,0.0,0.0,0.0,0.0,0.0,0.0,0.0,0.0,0.0,0.0,0.0,0.0,0.0,0.0,0.0,3.076,3.0493,3.0493,3.076,3.0493,3.0771,3.1583,3.2012,3.19,3.142,3.2155,3.2055,3.1437,3.2171,3.2244,3.1921,3.2341,3.2425,3.2446,3.3626,3.3491,3.2882,0.0,0.0,0.0,0.0,0.0,0.0,0.0,0.0,0.0,0.0,0.0,0.0,0.0,0.0,0.0,0.0,0.0,0.0,0.0,0.0,0.0,0.0,0.0,0.0,0.0,0.0,0.0,0.0,0.0,0.0,0.0,0.0,0.0,0.0,0.0,0.0,0.0,0.0,0.0,0.0,0.0,0.0,0.0,0.0,0.0,0.0,0.0,0.0,0.0,0.0,0.0,0.0,0.0,0.0,0.0,2.0304,2.0304,0.0,0.0,0.0,0.0,0.0,0.0,0.0,0.0,0.0,0.0,0.0,0.0,0.0,0.0,0.0,0.0,0.0,0.0,0.0,0.0,0.0,0.0,0.0,0.0,0.0,0.0,0.0,0.0,0.0,0.0,0.0,0.0,0.0,0.0,0.0,0.0,0.0,3.119,3.119,3.119,0.0,3.119,3.119,3.1224,3.1441,3.1433,3.1241,3.1921,3.1819,3.1241,3.1921,3.1802,3.1207,3.1258,3.1718,3.2395,3.3136,3.3372,3.3508,0.0,0.0,0.0,0.0,0.0,0.0,0.0,0.0,0.0,0.0,0.0,0.0,0.0,0.0,0.0,0.0,0.0,0.0,0.0,0.0,0.0,0.0,0.0,0.0,0.0,0.0,0.0,0.0,0.0,0.0,0.0,0.0,0.0,0.0,0.0,0.0,0.0,0.0,0.0,0.0,0.0,0.0,0.0,0.0,0.0,0.0,0.0,0.0,0.0,0.0,0.0,0.0,2.0304,2.0304,2.0304,2.0304,2.0304,0.0,0.0,0.0,0.0,0.0,0.0,0.0,0.0,0.0,0.0,0.0,0.0,0.0,0.0,0.0,0.0,0.0,0.0,0.0,0.0,0.0,0.0,0.0,0.0,0.0,0.0,0.0,0.0,0.0,0.0,0.0,0.0,0.0,0.0,0.0,0.0,3.1112,3.119,3.119,3.119,0.0,3.119,3.119,3.119,3.1263,3.1246,3.1207,3.136,3.1343,3.1207,3.136,3.1326,3.1258,3.1853,3.2158,3.2395,3.3136,3.3034,3.2666,0.0,0.0,0.0,0.0,0.0,0.0,0.0,0.0,0.0,0.0,0.0,0.0,0.0,0.0,0.0,0.0,0.0,0.0,0.0,0.0,0.0,0.0,0.0,0.0,0.0,0.0,0.0,0.0,0.0,0.0,0.0,0.0,0.0,0.0,0.0,0.0,0.0,0.0,0.0,0.0,0.0,0.0,0.0,0.0,0.0,0.0,0.0,0.0,0.0,0.0,0.0,0.0,0.0,0.0,2.0339,2.0304,0.0,0.0,0.0,0.0,0.0,0.0,0.0,0.0,0.0,0.0,0.0,0.0,0.0,0.0,0.0,0.0,0.0,0.0,0.0,0.0,0.0,0.0,0.0,0.0,0.0,0.0,0.0,0.0,0.0,0.0,0.0,0.0,0.0,0.0,0.0,0.0,3.0906,3.119,3.119,3.119,3.1021,3.0683,3.1021,3.119,3.119,3.119,3.119,3.119,3.119,3.119,3.119,3.119,3.119,3.1241,3.1633,3.1769,3.187,3.2594,3.2848,3.2933,0.0,0.0,0.0,0.0,0.0,0.0,0.0,0.0,0.0,0.0,0.0,0.0,0.0,0.0,0.0,0.0,0.0,0.0,0.0,0.0,0.0,0.0,0.0,0.0,0.0,0.0,0.0,0.0,0.0,0.0,0.0,0.0,0.0,0.0,0.0,0.0,0.0,0.0,0.0,0.0,0.0,0.0,0.0,0.0,0.0,0.0,0.0,0.0,0.0,2.0861,0.0,0.0,0.0,0.0,2.056,0.0,0.0,0.0,0.0,0.0,0.0,0.0,0.0,0.0,0.0,0.0,0.0,0.0,0.0,0.0,0.0,0.0,0.0,0.0,0.0,0.0,0.0,0.0,0.0,0.0,0.0,0.0,0.0,0.0,0.0,0.0,0.0,0.0,0.0,0.0,2.9507,2.9903,3.0497,3.0818,3.0818,3.0818,3.0514,2.9922,3.0531,3.0818,3.0818,3.0818,3.0954,3.119,3.119,3.119,3.119,3.119,3.119,3.119,3.119,3.119,3.1258,3.1887,3.2513,3.3136,0.0,0.0,0.0,0.0,0.0,0.0,0.0,0.0,0.0,0.0,0.0,0.0,0.0,0.0,0.0,0.0,0.0,0.0,0.0,0.0,0.0,0.0,0.0,0.0,0.0,0.0,0.0,0.0,0.0,0.0,0.0,0.0,0.0,0.0,0.0,0.0,0.0,0.0,0.0,0.0,0.0,0.0,0.0,0.0,0.0,0.0,0.0,0.0,0.0,0.0,0.0,0.0,0.0,0.0,0.0,0.0,0.0,0.0,0.0,0.0,0.0,0.0,0.0,0.0,0.0,0.0,0.0,0.0,0.0,0.0,0.0,0.0,0.0,0.0,0.0,0.0,0.0,0.0,0.0,0.0,0.0,0.0,0.0,0.0,0.0,0.0,0.0,0.0,0.0,2.9022,2.909,2.9145,2.9247,2.9297,2.9297,2.9297,2.9247,2.9145,2.9247,2.9297,2.9297,2.9297,2.9991,3.119,3.119,3.119,3.119,3.119,3.119,3.119,3.119,3.119,3.1207,3.1309,3.141,3.1681,0.0,0.0,0.0,0.0,0.0,0.0,0.0,0.0,0.0,0.0,0.0,0.0,0.0,0.0,0.0,0.0,0.0,0.0,0.0,0.0,0.0,0.0,0.0,0.0,0.0,0.0,0.0,0.0,0.0,0.0,0.0,2.4612,2.5005,0.0,0.0,0.0,0.0,0.0,0.0,0.0,0.0,0.0,0.0,0.0,0.0,0.0,0.0,0.0,0.0,0.0,0.0,0.0,0.0,0.0,0.0,0.0,0.0,0.0,0.0,0.0,0.0,0.0,0.0,0.0,0.0,0.0,0.0,0.0,0.0,0.0,0.0,0.0,0.0,0.0,0.0,0.0,0.0,0.0,0.0,0.0,0.0,0.0,0.0,0.0,0.0,0.0,0.0,0.0,2.7723,2.8095,2.8332,2.8332,2.8773,2.8993,2.8993,2.8993,2.8993,2.8993,2.8535,2.8552,2.8993,2.8993,2.9348,2.9991,3.0395,3.0581,3.0615,3.1021,3.119,3.119,3.119,3.119,3.119,3.119,3.1464,3.1921,0.0,0.0,0.0,0.0,0.0,0.0,0.0,0.0,0.0,0.0,0.0,0.0,0.0,0.0,0.0,0.0,0.0,0.0,0.0,0.0,0.0,0.0,0.0,0.0,0.0,0.0,0.0,0.0,0.0,0.0,2.3819,2.4612,2.5109,0.0,2.4646,0.0,0.0,0.0,0.0,0.0,0.0,0.0,0.0,0.0,0.0,0.0,0.0,0.0,0.0,0.0,0.0,0.0,0.0,0.0,0.0,0.0,0.0,0.0,0.0,0.0,0.0,0.0,0.0,0.0,0.0,0.0,0.0,0.0,0.0,0.0,0.0,0.0,0.0,0.0,0.0,0.0,0.0,0.0,0.0,0.0,0.0,0.0,0.0,0.0,0.0,0.0,0.0,0.0,2.6725,2.7232,2.7519,2.7519,2.8095,2.8417,2.8417,2.8417,2.8417,2.8417,2.7824,2.7841,2.8417,2.8417,2.8417,2.8485,2.9617,3.0226,3.0429,3.097,3.119,3.119,3.119,3.119,3.119,3.119,3.1565,3.2056,0.0,0.0,0.0,0.0,0.0,0.0,0.0,0.0,0.0,0.0,0.0,0.0,0.0,0.0,0.0,0.0,0.0,0.0,0.0,0.0,0.0,0.0,0.0,0.0,0.0,0.0,0.0,0.0,0.0,0.0,2.3819,2.4612,2.5367,2.6042,2.599,2.5163,2.3802,0.0,0.0,0.0,0.0,0.0,0.0,0.0,0.0,0.0,0.0,0.0,0.0,0.0,0.0,0.0,0.0,0.0,0.0,0.0,0.0,0.0,0.0,0.0,0.0,0.0,0.0,0.0,0.0,0.0,0.0,0.0,0.0,0.0,0.0,0.0,0.0,0.0,0.0,0.0,0.0,0.0,0.0,0.0,0.0,0.0,0.0,0.0,0.0,0.0,0.0,0.0,2.6691,2.6725,2.6759,2.6759,2.6793,2.681,2.681,2.681,2.681,2.681,2.6776,2.6776,2.681,2.681,2.681,2.6928,2.9161,3.0497,3.114,3.1173,3.119,3.119,3.119,3.119,3.119,3.119,3.1207,3.136,0.0,0.0,0.0,0.0,0.0,0.0,0.0,0.0,0.0,0.0,0.0,0.0,0.0,0.0,0.0,0.0,0.0,0.0,0.0,0.0,0.0,0.0,0.0,0.0,0.0,0.0,0.0,0.0,0.0,2.3078,2.3819,2.4612,2.5143,2.5404,2.5902,2.5784,2.5249,2.4767,0.0,0.0,0.0,0.0,0.0,0.0,0.0,0.0,0.0,0.0,0.0,0.0,0.0,0.0,0.0,0.0,0.0,0.0,0.0,0.0,0.0,0.0,0.0,0.0,0.0,0.0,0.0,0.0,0.0,0.0,0.0,0.0,0.0,0.0,0.0,0.0,0.0,0.0,0.0,0.0,0.0,0.0,0.0,0.0,0.0,0.0,0.0,0.0,0.0,0.0,2.6691,2.6691,2.6691,2.6691,2.6691,2.6691,2.6691,2.6691,2.6691,2.6691,2.6691,2.6691,2.6708,2.7199,2.7401,2.7503,2.9311,2.9973,2.9873,3.0801,3.119,3.119,3.119,3.119,3.119,3.119,3.119,3.1241,0.0,0.0,0.0,0.0,0.0,0.0,0.0,0.0,0.0,0.0,0.0,0.0,0.0,0.0,0.0,0.0,0.0,0.0,0.0,0.0,0.0,0.0,0.0,0.0,0.0,0.0,0.0,0.0,0.0,0.0,0.0,0.0,2.4594,2.4629,2.5646,0.0,0.0,0.0,0.0,2.535,0.0,0.0,2.4936,0.0,0.0,0.0,0.0,0.0,0.0,0.0,0.0,0.0,0.0,0.0,0.0,0.0,0.0,0.0,0.0,0.0,0.0,0.0,0.0,0.0,0.0,0.0,0.0,0.0,0.0,0.0,0.0,0.0,0.0,0.0,0.0,0.0,0.0,0.0,0.0,0.0,0.0,0.0,0.0,0.0,0.0,0.0,0.0,0.0,2.6691,2.6691,2.6691,2.6691,2.6691,2.6691,2.6691,2.6691,2.6691,2.6691,2.6691,2.6691,2.6708,2.7215,2.7435,2.7503,2.877,2.9347,2.9448,3.0683,3.119,3.119,3.119,3.119,3.119,3.119,3.119,3.119,0.0,0.0,0.0,0.0,0.0,0.0,0.0,0.0,0.0,0.0,0.0,0.0,0.0,0.0,0.0,0.0,0.0,0.0,0.0,0.0,0.0,0.0,0.0,0.0,0.0,0.0,0.0,0.0,0.0,0.0,0.0,0.0,2.3802,0.0,2.5404,2.6092,2.6059,0.0,2.6161,2.6094,0.0,2.5074,2.5109,0.0,0.0,0.0,2.5005,2.5005,0.0,0.0,0.0,0.0,0.0,0.0,0.0,0.0,0.0,0.0,0.0,0.0,0.0,0.0,0.0,0.0,0.0,0.0,0.0,0.0,0.0,0.0,0.0,0.0,0.0,0.0,0.0,0.0,0.0,0.0,0.0,0.0,0.0,0.0,0.0,0.0,0.0,0.0,0.0,2.6691,2.6691,2.6691,2.6691,2.6691,2.6691,2.6691,2.6691,2.6691,2.6691,2.6691,2.6691,2.6691,2.6691,2.6742,2.6742,2.6776,2.7553,2.8737,3.0176,3.0869,3.1173,3.119,3.119,3.119,3.119,3.119,3.121,3.121,0.0,0.0,0.0,0.0,0.0,0.0,0.0,0.0,0.0,0.0,0.0,0.0,0.0,0.0,0.0,0.0,0.0,0.0,0.0,0.0,0.0,0.0,0.0,0.0,0.0,0.0,0.0,0.0,0.0,0.0,0.0,0.0,0.0,0.0,2.5404,2.5801,2.5385,2.6488,0.0,0.0,2.6954,2.6971,0.0,0.0,0.0,0.0,0.0,2.5005,0.0,0.0,2.4678,2.4525,0.0,0.0,0.0,0.0,0.0,0.0,2.2446,0.0,0.0,0.0,0.0,0.0,0.0,0.0,0.0,0.0,0.0,0.0,0.0,0.0,0.0,0.0,0.0,0.0,0.0,0.0,0.0,0.0,0.0,0.0,0.0,0.0,0.0,0.0,2.6691,2.6691,2.6691,2.6691,2.6691,2.6691,2.6691,2.6691,2.6691,2.6691,2.6691,2.6691,2.6691,2.6691,2.6725,2.7859,2.8044,2.7587,2.9465,3.0209,3.0125,3.0328,3.0717,3.119,3.119,3.119,3.119,3.119,3.1351,3.1564,0.0,0.0,0.0,0.0,0.0,0.0,0.0,0.0,0.0,0.0,0.0,0.0,0.0,0.0,0.0,0.0,0.0,0.0,0.0,0.0,0.0,0.0,0.0,0.0,0.0,0.0,0.0,0.0,0.0,0.0,0.0,0.0,0.0,0.0,0.0,0.0,0.0,0.0,0.0,0.0,2.7333,0.0,0.0,2.6937,2.6609,0.0,0.0,0.0,2.5902,2.5574,2.5264,0.0,0.0,0.0,0.0,0.0,0.0,0.0,0.0,0.0,0.0,0.0,0.0,0.0,0.0,2.3127,0.0,0.0,0.0,0.0,0.0,0.0,0.0,0.0,0.0,0.0,0.0,0.0,0.0,0.0,0.0,0.0,0.0,0.0,0.0,0.0,2.6691,2.6691,2.6691,2.6691,2.6691,2.6691,2.6691,2.6691,2.6691,2.6691,2.6691,2.6691,2.6691,2.6691,2.6725,2.7943,2.8247,2.7891,2.955,3.0209,3.0108,3.0108,3.0626,3.1389,3.1252,3.1291,3.1389,3.1249,3.1408,3.1695,0.0,0.0,0.0,0.0,0.0,0.0,0.0,0.0,0.0,0.0,0.0,0.0,0.0,0.0,0.0,0.0,0.0,0.0,0.0,0.0,0.0,0.0,2.2819,2.2785,0.0,0.0,0.0,0.0,0.0,0.0,0.0,0.0,0.0,0.0,0.0,0.0,0.0,0.0,0.0,2.6299,2.7092,2.7471,0.0,0.0,2.754,0.0,2.7437,2.742,2.7299,2.6506,2.5747,0.0,0.0,0.0,0.0,0.0,2.3326,0.0,0.0,0.0,0.0,0.0,0.0,0.0,2.2562,2.262,2.2884,0.0,0.0,0.0,0.0,0.0,0.0,0.0,0.0,0.0,0.0,0.0,0.0,0.0,0.0,0.0,0.0,0.0,2.6657,2.6573,2.664,2.6691,2.6691,2.6691,2.6691,2.6691,2.6691,2.6691,2.6691,2.6691,2.6691,2.6691,2.6691,2.6691,2.6725,2.7452,2.7807,2.7841,2.8653,2.9414,3.0108,3.0108,3.0725,3.1675,3.137,3.1449,3.1714,3.1428,3.1524,3.1823,0.0,0.0,0.0,0.0,0.0,0.0,0.0,0.0,0.0,0.0,0.0,0.0,0.0,0.0,0.0,0.0,0.0,0.0,0.0,0.0,2.425,2.3612,2.3595,2.3319,2.2716,0.0,0.0,0.0,0.0,0.0,0.0,0.0,0.0,0.0,0.0,0.0,0.0,0.0,0.0,2.7126,2.7885,0.0,2.9075,2.9075,2.9075,2.8989,2.8403,2.8178,2.8075,0.0,2.654,2.5853,0.0,0.0,0.0,0.0,0.0,0.0,0.0,0.0,0.0,0.0,0.0,0.0,2.2884,2.3042,2.3364,0.0,0.0,0.0,0.0,0.0,0.0,0.0,0.0,0.0,0.0,0.0,0.0,0.0,0.0,0.0,0.0,0.0,2.6454,2.5862,2.6353,2.6691,2.6691,2.6691,2.6691,2.6691,2.6691,2.6691,2.6691,2.6691,2.6691,2.6691,2.6691,2.6691,2.6725,2.7452,2.7807,2.7841,2.8653,2.9414,3.0108,3.0108,3.0725,3.1695,3.1638,3.1841,3.2179,3.2109,3.2299,3.2601,0.0,0.0,0.0,0.0,0.0,0.0,0.0,0.0,0.0,0.0,0.0,0.0,0.0,0.0,0.0,0.0,0.0,0.0,0.0,0.0,2.4833,2.4422,2.4405,2.4229,2.3867,2.3836,0.0,0.0,0.0,0.0,0.0,0.0,0.0,0.0,0.0,0.0,0.0,0.0,2.7506,2.7885,2.8247,0.0,2.9506,2.9506,2.9506,2.9455,2.9075,2.8713,2.8282,2.754,2.7023,0.0,0.0,2.6126,2.6006,0.0,2.5264,2.5471,0.0,0.0,0.0,2.4491,0.0,0.0,0.0,2.3196,2.3196,0.0,0.0,0.0,0.0,0.0,0.0,0.0,0.0,0.0,0.0,0.0,0.0,0.0,0.0,0.0,0.0,0.0,2.5592,2.5592,2.5947,2.6302,2.6674,2.6691,2.6691,2.6691,2.6691,2.6691,2.6691,2.6691,2.6691,2.6691,2.6691,2.6691,2.6725,2.7452,2.801,2.8433,2.9211,2.9753,3.0108,3.0245,3.0521,3.0907,3.1475,3.2039,3.2518,3.2351,3.2502,3.2829,0.0,0.0,0.0,0.0,0.0,0.0,0.0,0.0,0.0,0.0,0.0,0.0,0.0,0.0,0.0,0.0,0.0,0.0,0.0,0.0,0.0,0.0,2.5183,2.5129,2.5005,2.5005,2.4991,0.0,0.0,0.0,0.0,0.0,0.0,0.0,0.0,0.0,0.0,0.0,0.0,2.8834,0.0,2.9196,2.9748,2.9886,2.9937,2.992,2.9782,2.9248,2.8523,2.792,0.0,2.7609,2.6971,2.7195,0.0,0.0,0.0,0.0,0.0,0.0,0.0,0.0,0.0,2.4365,0.0,0.0,0.0,0.0,0.0,0.0,0.0,0.0,0.0,0.0,0.0,0.0,0.0,0.0,0.0,0.0,0.0,0.0,0.0,0.0,2.4745,2.5338,2.5659,2.6015,2.6454,2.6623,2.6691,2.6691,2.6691,2.6691,2.6691,2.6691,2.6691,2.6691,2.6775,2.6791,2.6808,2.747,2.822,2.9004,2.9373,2.9765,3.0096,3.0089,3.0091,3.0205,3.1272,3.2088,3.2662,3.2549,3.2684,3.2923,0.0,0.0,0.0,0.0,0.0,0.0,0.0,0.0,0.0,0.0,0.0,0.0,0.0,0.0,0.0,0.0,0.0,0.0,2.8784,0.0,0.0,0.0,0.0,0.0,2.5023,2.5005,2.4976,0.0,0.0,0.0,0.0,0.0,0.0,0.0,2.7069,0.0,0.0,0.0,2.9059,0.0,3.0455,3.0507,0.0,3.1282,3.1541,3.1455,3.08,3.0041,2.9368,0.0,2.9248,2.923,0.0,2.9179,0.0,0.0,0.0,0.0,0.0,0.0,0.0,0.0,2.6968,0.0,0.0,0.0,0.0,0.0,0.0,0.0,0.0,0.0,0.0,0.0,0.0,0.0,0.0,0.0,0.0,0.0,0.0,0.0,0.0,0.0,0.0,2.4626,2.5828,2.6336,2.5761,2.6336,2.6691,2.6691,2.6691,2.6691,2.6691,2.6691,2.6691,2.6708,2.7005,2.7149,2.7149,2.7548,2.8139,2.8872,2.7932,2.8465,2.9942,2.8951,2.9298,3.0528,3.1315,3.1885,3.234,3.3033,3.3304,3.3349,0.0,0.0,0.0,0.0,0.0,0.0,0.0,0.0,0.0,0.0,0.0,0.0,0.0,0.0,0.0,0.0,0.0,2.9088,0.0,0.0,0.0,0.0,0.0,0.0,0.0,2.6162,2.6146,0.0,2.6115,0.0,0.0,0.0,0.0,0.0,2.7673,0.0,2.8819,0.0,0.0,0.0,0.0,0.0,0.0,3.1661,3.18,3.1696,3.0973,3.0472,3.011,0.0,2.9506,0.0,0.0,0.0,0.0,0.0,0.0,0.0,0.0,0.0,0.0,0.0,0.0,0.0,0.0,0.0,2.4741,0.0,0.0,0.0,0.0,0.0,0.0,0.0,0.0,0.0,0.0,0.0,0.0,0.0,0.0,0.0,0.0,0.0,0.0,0.0,0.0,2.5017,2.5575,2.5896,2.6251,2.6691,2.6891,2.721,2.7688,2.742,2.7755,2.8671,2.8347,2.8444,2.8896,2.9037,2.9521,3.0208,2.9731,2.9974,3.0665,3.0346,3.034,3.0597,3.1577,3.2047,3.2288,3.3103,3.3393,3.3408,0.0,0.0,0.0,0.0,0.0,0.0,0.0,0.0,0.0,0.0,0.0,0.0,3.4245,3.3588,0.0,0.0,0.0,3.0323,0.0,0.0,2.8117,0.0,0.0,0.0,0.0,0.0,0.0,0.0,0.0,0.0,0.0,0.0,0.0,0.0,0.0,2.8578,2.9465,0.0,0.0,3.0696,3.0696,3.1059,3.1617,3.1746,3.18,3.1731,3.1179,3.1007,3.0921,3.0439,3.0283,0.0,3.0664,0.0,0.0,0.0,0.0,0.0,3.0603,0.0,0.0,0.0,0.0,0.0,0.0,0.0,0.0,0.0,0.0,0.0,0.0,0.0,0.0,0.0,0.0,0.0,0.0,0.0,0.0,0.0,0.0,0.0,0.0,0.0,0.0,0.0,2.3563,0.0,2.5058,2.5421,2.5894,2.6518,2.6982,2.7639,2.8527,2.8207,2.8732,3.0098,2.9578,2.9642,3.0223,3.03,3.0772,3.145,3.114,3.1176,3.1448,3.1357,3.1035,3.074,3.1801,3.2198,3.2288,3.3103,3.3393,3.3411,2.3374,2.4045,0.0,0.0,0.0,0.0,0.0,0.0,0.0,0.0,0.0,0.0,0.0,0.0,0.0,0.0,0.0,3.2209,3.2158,0.0,2.8978,0.0,0.0,2.873,0.0,0.0,0.0,0.0,0.0,0.0,0.0,0.0,0.0,0.0,0.0,2.8814,3.0173,3.0173,3.0672,3.1464,3.1464,3.1521,3.1617,0.0,3.18,3.18,3.1765,0.0,0.0,3.2109,3.2213,0.0,0.0,0.0,0.0,0.0,0.0,0.0,0.0,0.0,0.0,3.0853,0.0,0.0,0.0,0.0,2.7405,0.0,0.0,0.0,0.0,0.0,0.0,0.0,0.0,0.0,0.0,0.0,0.0,0.0,0.0,0.0,0.0,0.0,0.0,2.3147,2.3961,0.0,2.3877,2.4968,2.5768,2.6109,2.6816,2.7733,2.8857,2.8873,2.9275,3.0098,3.0338,3.0454,3.0505,3.0828,3.1423,3.2101,3.0998,3.1153,3.2083,3.098,3.0715,3.1057,3.1872,3.2198,3.2288,3.3103,3.3393,3.3393,0.0,0.0,0.0,0.0,0.0,0.0,0.0,3.3833,0.0,0.0,0.0,0.0,0.0,0.0,3.7855,0.0,0.0,3.4066,3.3085,3.187,0.0,0.0,0.0,2.9927,0.0,0.0,0.0,0.0,0.0,0.0,0.0,0.0,0.0,0.0,0.0,2.9944,0.0,0.0,0.0,0.0,0.0,3.1694,3.2161,0.0,0.0,3.18,3.18,3.1947,0.0,3.2019,3.2249,3.2651,3.2763,3.2795,3.2836,3.302,3.2571,0.0,0.0,0.0,3.1386,3.1889,0.0,0.0,0.0,0.0,0.0,0.0,0.0,0.0,0.0,0.0,0.0,0.0,0.0,0.0,0.0,0.0,0.0,0.0,0.0,0.0,0.0,0.0,0.0,2.3109,2.3393,2.3715,0.0,2.4965,2.5747,2.6353,2.7813,2.9015,2.995,3.0173,3.0955,3.228,3.183,3.1892,3.2429,3.2535,3.2741,3.2977,3.2585,3.2636,3.2962,3.2585,3.2491,3.2614,3.2886,3.2995,3.3031,3.3343,3.3466,3.3553,2.6438,0.0,0.0,0.0,0.0,0.0,0.0,0.0,0.0,0.0,3.9724,0.0,4.1508,0.0,3.9681,0.0,3.7584,3.5769,3.4264,3.3491,0.0,3.1343,3.1478,0.0,0.0,0.0,0.0,0.0,0.0,2.8755,0.0,0.0,0.0,0.0,0.0,0.0,0.0,0.0,3.119,0.0,0.0,3.1599,0.0,0.0,3.2008,3.2157,0.0,3.2227,3.2336,3.2529,3.2767,3.3001,3.3105,3.3169,3.3243,3.3662,3.3268,3.2866,3.3588,3.3036,0.0,3.2528,3.1623,0.0,3.0265,0.0,0.0,0.0,0.0,0.0,0.0,0.0,0.0,0.0,0.0,0.0,0.0,0.0,0.0,0.0,0.0,0.0,0.0,0.0,2.3277,2.3388,2.3212,2.345,0.0,0.0,2.5776,2.6643,2.8375,2.9744,3.0665,3.1173,3.2089,3.3393,3.2868,3.2904,3.3393,3.3393,3.3393,3.3393,3.3393,3.3393,3.3393,3.3393,3.3393,3.3393,3.3393,3.3393,3.3411,3.3481,3.3687,3.4054,0.0,0.0,0.0,0.0,3.0463,0.0,0.0,0.0,3.8514,0.0,4.0865,4.1593,4.232,4.1711,4.0984,4.0265,3.8836,0.0,3.5853,3.5081,0.0,0.0,3.2865,3.2124,3.1258,0.0,0.0,0.0,0.0,0.0,0.0,0.0,0.0,0.0,3.014,0.0,3.119,3.1241,3.1275,3.1309,3.1309,3.1368,3.155,3.2281,0.0,3.2885,3.287,3.2656,3.2581,3.3663,3.3755,3.3473,3.379,3.3903,3.3917,3.3917,3.3899,3.3862,3.3862,3.3825,3.3623,3.2839,0.0,0.0,0.0,0.0,2.9751,0.0,0.0,0.0,0.0,0.0,0.0,0.0,0.0,0.0,0.0,0.0,0.0,0.0,0.0,0.0,0.0,2.3746,2.3621,2.3886,2.3434,2.3572,0.0,0.0,0.0,2.6994,2.8554,2.9911,3.0998,3.1836,3.2632,3.3393,3.3393,3.3393,3.3393,3.3393,3.3393,3.3393,3.3393,3.3393,3.3393,3.3393,3.3393,3.3393,3.3447,3.3465,3.348,3.3535,3.4076,3.4834,3.0362,3.1816,3.3017,0.0,3.2966,3.4066,0.0,0.0,0.0,0.0,4.2388,4.3149,4.3938,4.2811,4.1931,4.1745,3.9884,0.0,0.0,0.0,0.0,3.5092,3.5419,3.451,3.2073,3.2544,0.0,3.0632,0.0,0.0,3.0615,0.0,0.0,0.0,0.0,0.0,3.1241,3.1785,3.2324,3.2848,3.2848,3.3173,0.0,0.0,3.3617,3.4146,3.3652,3.3649,3.391,3.4267,3.4689,3.5095,3.52,3.5415,3.5661,3.5661,3.5202,3.4692,3.4692,3.4266,3.3752,3.3532,3.2889,3.2082,0.0,0.0,0.0,0.0,0.0,0.0,0.0,0.0,0.0,0.0,0.0,0.0,0.0,0.0,0.0,0.0,0.0,0.0,2.4103,2.4006,2.3927,2.3907,2.3764,2.4042,0.0,0.0,0.0,2.7265,2.9413,3.0699,3.0998,3.2379,3.3194,3.3393,3.3393,3.3393,3.3393,3.3393,3.3393,3.3393,3.3393,3.3393,3.3393,3.3393,3.3393,3.3465,3.4063,3.4329,3.437,3.4455,3.4637,3.5052,3.2628,0.0,0.0,3.5926,0.0,0.0,3.8616,0.0,0.0,4.2083,4.2946,0.0,4.4028,4.2997,4.2286,4.2286,4.0561,0.0,0.0,0.0,0.0,3.6197,3.6214,3.5318,3.3309,3.3355,0.0,3.1684,0.0,0.0,3.119,0.0,0.0,0.0,0.0,3.119,0.0,3.1989,3.2733,3.3406,3.3406,0.0,0.0,3.3914,3.4193,3.4635,3.477,3.4755,3.4725,3.5296,3.5657,3.5884,3.5927,3.6117,3.6303,3.6303,3.5665,3.5004,3.5004,3.4399,3.3807,3.3807,3.3201,3.2472,3.2027,3.1035,3.0081,0.0,0.0,0.0,0.0,0.0,0.0,0.0,0.0,0.0,0.0,0.0,0.0,0.0,0.0,0.0,2.4188,2.4132,2.4064,2.3947,2.4234,2.4747,0.0,0.0,0.0,2.7894,3.0278,3.1361,3.0998,3.294,3.3755,3.3393,3.3393,3.3393,3.3393,3.3393,3.3393,3.3393,3.3393,3.3393,3.3393,3.3393,3.3393,3.3447,3.393,3.4355,3.476,3.5177,3.536,3.5615,0.0,0.0,0.0,0.0,0.0,0.0,0.0,4.0992,0.0,4.2354,0.0,4.3511,4.3409,4.2743,4.2252,4.2151,0.0,3.9842,3.9174,3.914,3.8505,3.7015,3.6282,3.5447,3.4506,3.388,0.0,0.0,0.0,0.0,0.0,0.0,0.0,0.0,0.0,0.0,0.0,3.2276,3.3,0.0,3.3694,3.3694,3.3761,3.4404,3.4684,3.4878,3.5979,3.5824,3.5278,3.6501,3.6649,3.6379,3.6553,3.6615,3.6615,3.6615,3.6009,3.5298,3.5206,3.4582,3.3935,3.3825,3.3275,3.2729,3.2619,3.1531,3.0448,3.0246,2.9629,2.8913,0.0,0.0,0.0,0.0,0.0,0.0,0.0,0.0,0.0,0.0,0.0,0.0,0.0,0.0,2.4184,2.4006,2.4582,0.0,0.0,0.0,0.0,0.0,3.084,0.0,3.1324,0.0,3.4208,3.3719,3.361,3.3556,3.3556,3.3556,3.3556,3.3556,3.3447,3.3393,3.3393,3.3393,3.3465,3.3556,3.3626,3.416,3.4957,3.5866,3.6218,3.6402,0.0,0.0,0.0,0.0,0.0,4.1204,4.1813,4.254,4.3054,4.3172,4.3893,4.413,4.346,4.2743,4.2049,4.1457,4.062,0.0,0.0,0.0,0.0,3.777,3.7584,3.6569,3.4539,3.437,3.3664,0.0,3.2293,3.1921,0.0,0.0,0.0,0.0,0.0,0.0,3.3068,3.3795,0.0,3.5211,3.5211,3.5211,3.5228,3.5346,3.5662,3.6048,3.6606,3.6507,3.6277,3.7219,3.7591,3.772,3.8011,3.8187,3.8285,3.8285,3.7698,3.6923,3.6248,3.5445,3.4637,3.3972,3.3697,3.3421,3.2748,3.2381,3.1794,3.0467,3.0099,2.9751,2.8932,0.0,0.0,0.0,0.0,0.0,0.0,0.0,0.0,0.0,0.0,0.0,0.0,0.0,0.0,0.0,0.0,0.0,0.0,0.0,0.0,0.0,0.0,0.0,0.0,0.0,0.0,3.5369,3.4715,3.4389,3.4389,3.4389,3.4389,3.4353,3.3701,3.3393,3.3393,3.3393,3.3791,3.4389,3.4458,3.4978,3.5812,3.68,3.7171,3.7281,0.0,0.0,0.0,0.0,0.0,0.0,0.0,4.4113,0.0,4.3494,4.3741,4.3842,4.3426,4.2743,4.2151,4.1796,4.0756,4.0096,4.0096,4.0096,3.9622,3.8514,3.8108,0.0,3.5729,3.4895,3.4155,3.3444,3.3051,3.2679,0.0,0.0,0.0,0.0,0.0,3.2949,0.0,0.0,0.0,3.5622,3.5871,3.5958,3.598,3.6203,3.6412,3.6658,3.7075,3.7095,3.7076,3.7792,3.8088,3.8188,3.8382,3.8528,3.8609,3.8609,3.8071,3.7419,3.7033,3.6303,3.5463,3.4619,3.4417,3.4197,3.3421,3.2894,3.2381,3.1592,3.0779,2.9941,2.9152,2.8675,0.0,0.0,0.0,0.0,0.0,0.0,0.0,0.0,0.0,0.0,0.0,0.0,0.0,0.0,0.0,0.0,0.0,0.0,0.0,0.0,0.0,0.0,0.0,0.0,0.0,3.517,3.4371,3.4208,3.4588,3.4172,3.3991,3.3954,3.3574,3.3393,3.3393,3.3393,3.3882,3.4622,3.472,3.5493,3.664,3.7147,3.7662,3.8129,0.0,4.0054,0.0,0.0,4.3166,0.0,4.4513,4.5077,4.5026,4.3826,4.3673,4.3538,4.3217,4.2642,4.2168,4.1847,4.0773,4.0096,4.0096,4.0096,3.9774,3.9022,3.8447,3.7719,3.6829,3.5627,3.4827,0.0,3.3914,3.3558,0.0,0.0,0.0,0.0,0.0,0.0,0.0,0.0,3.5081,3.5644,3.6002,3.6216,3.6343,3.6658,3.688,3.7075,3.7395,3.756,3.7703,3.8139,3.829,3.8323,3.8352,3.8415,3.8478,3.8478,3.8117,3.7683,3.7499,3.7019,3.634,3.5481,3.5279,3.5059,3.4247,3.3555,3.3005,3.2674,3.1317,3.0008,2.9372,2.9115,0.0,0.0,0.0,0.0,0.0,0.0,0.0,0.0,0.0,0.0,0.0,0.0,0.0,0.0,0.0,0.0,2.6168,2.7133,0.0,0.0,0.0,3.2144,3.2017,0.0,3.4769,0.0,3.4461,3.4498,3.5095,3.4443,3.4172,3.4154,3.3991,3.3918,3.3918,3.3918,3.428,3.4893,3.5187,3.6085,3.7234,3.7506,3.8077,3.8707,0.0,0.0,0.0,0.0,0.0,0.0,0.0,4.4666,4.4666,4.4513,4.4496,4.3972,4.2557,4.2337,4.1745,4.0417,4.018,4.0096,4.0096,4.0096,3.9774,3.9022,3.892,3.8251,3.6829,3.666,3.5898,0.0,0.0,3.4049,3.3406,0.0,0.0,0.0,0.0,0.0,0.0,3.5216,3.5532,3.56,3.5644,3.5915,3.6301,3.6343,3.6801,3.745,3.7487,3.7774,3.814,3.8192,3.8241,3.8307,3.8307,3.837,3.8415,3.8415,3.8407,3.8251,3.7522,3.7344,3.7199,3.6376,3.6174,3.5954,3.5078,3.4839,3.4362,3.2894,3.1317,3.0173,3.0099,2.9482,2.8987,0.0,0.0,0.0,0.0,0.0,0.0,0.0,0.0,0.0,0.0,0.0,0.0,0.0,0.0,2.5364,2.6168,2.7658,2.9179,3.0731,0.0,3.3212,3.5315,3.486,0.0,3.6777,3.6705,3.6705,3.6777,3.6705,3.6669,3.6633,3.5892,3.5569,3.5569,3.5569,3.5623,3.5765,3.6643,3.707,3.7304,3.8227,3.8618,3.8707,0.0,0.0,0.0,0.0,0.0,0.0,0.0,4.4584,4.4327,4.4412,4.4108,4.3629,4.2911,4.2132,4.1407,4.0798,4.0367,4.0096,4.0096,4.0096,3.9977,3.9673,3.9225,3.8514,3.7483,3.7032,3.6248,0.0,0.0,3.5008,3.4721,3.4721,0.0,0.0,0.0,3.6129,3.6569,3.6874,3.6969,3.7015,3.724,3.7331,3.7359,3.7584,3.7785,3.7933,3.7933,3.8037,3.8209,3.8209,3.8225,3.8241,3.8241,3.829,3.8338,3.8338,3.8385,3.8373,3.8047,3.8018,3.7897,3.7109,3.6971,3.667,3.5316,3.5004,3.4674,3.355,3.2417,3.1335,3.0393,2.9953,2.9555,0.0,0.0,0.0,0.0,0.0,0.0,0.0,0.0,0.0,0.0,0.0,0.0,0.0,0.0,2.5386,2.6168,2.726,2.8848,3.0926,0.0,3.2632,3.5062,3.4754,3.5403,3.6995,3.6508,3.6526,3.6977,3.649,3.6272,3.6254,3.5931,3.5804,3.5804,3.5804,3.6091,3.656,3.698,3.746,3.7961,3.8434,3.8624,3.8707,4.2189,0.0,4.2942,0.0,4.398,4.4009,4.5047,4.4566,4.4126,4.4224,4.3726,4.3242,4.2968,4.2071,4.1356,4.0916,4.0417,4.0096,4.0096,4.0096,4.0096,4.0096,3.9605,0.0,3.8244,3.7702,3.706,3.6276,3.6276,0.0,3.6276,0.0,0.0,0.0,3.711,3.7398,3.7905,3.7905,3.7905,3.7929,3.8207,3.8347,3.8359,3.8408,3.8473,3.8517,3.8281,3.8209,3.8209,3.8209,3.8209,3.8209,3.8209,3.8224,3.8274,3.8274,3.8322,3.8368,3.8368,3.8415,3.8332,3.7768,3.7702,3.7399,3.5988,3.5494,3.5031,3.3995,3.3151,3.2252,3.1127,3.0705,3.0436,3.01,0.0,0.0,0.0,0.0,0.0,0.0,0.0,2.7159,2.7137,0.0,0.0,0.0,0.0,0.0,2.6874,2.7894,0.0,0.0,0.0,0.0,0.0,3.5186,3.5874,3.6995,3.6653,3.6798,3.7339,3.6761,3.6508,3.6508,3.6508,3.6524,3.654,3.654,3.6864,3.7421,3.7483,3.7874,3.843,3.8528,3.8624,3.8707,4.2825,4.3561,4.4298,4.5064,4.5181,4.5181,4.5198,4.4566,4.4097,4.4097,4.3574,4.2957,4.2388,4.2286,4.1694,4.0248,4.0113,4.0096,4.0096,4.0096,4.0096,0.0,0.0,3.974,3.8988,3.8971,3.8616,3.7872,0.0,0.0,3.7872,0.0,3.7889,3.7889,3.7889,3.7889,3.7905,3.7905,3.7905,3.7905,3.7905,3.8425,3.9094,3.8301,3.8569,3.9278,3.8499,3.8209,3.8209,3.8209,3.8209,3.8209,3.8209,3.8209,3.8209,3.8209,3.8241,3.8307,3.8307,3.8354,3.8399,3.8399,3.8399,3.8196,3.7436,3.6647,3.5648,3.4124,3.3151,3.2583,3.2564,3.1916,3.1616,3.2344,0.0,0.0,0.0,0.0,0.0,0.0,2.8761,2.8755,2.8669,0.0,0.0,0.0,0.0,0.0,0.0,0.0,0.0,3.2162,3.3737,0.0,3.5768,3.6562,3.6977,3.7013,3.781,3.8191,3.8191,3.8191,3.8172,3.8172,3.8172,3.8206,3.8271,3.8271,3.8302,3.838,3.846,3.8491,3.851,3.8658,3.8707,3.8707,4.3348,4.361,4.3813,4.4075,4.4108,4.4108,4.4108,4.3926,4.3805,4.3956,4.3432,4.2847,4.2227,4.1794,4.1127,0.0,4.0062,4.0096,0.0,4.0096,4.0096,4.0096,4.0096,3.9757,3.9005,3.8988,3.8633,3.7905,0.0,0.0,0.0,3.7905,3.8176,3.865,3.865,3.9098,3.9877,3.9877,4.0071,4.0358,4.0358,4.0044,3.9574,3.9325,3.8956,3.8553,3.8299,3.8209,3.8209,3.8209,3.8209,3.8209,3.8209,3.8209,3.8209,3.8209,3.8225,3.8224,3.8224,3.829,3.8338,3.8338,3.8368,3.8198,3.7411,3.6608,3.575,3.4702,3.4282,3.3771,3.2675,3.2255,3.1981,3.1662,3.1208,0.0,0.0,0.0,0.0,0.0,0.0,2.9761,0.0,3.0059,0.0,0.0,0.0,0.0,0.0,0.0,0.0,0.0,3.352,0.0,3.7413,3.7158,3.7285,3.7828,3.8082,3.8209,3.8209,3.8209,3.8209,3.8209,3.8209,3.8242,3.8307,3.8307,3.8338,3.8399,3.8415,3.8462,3.851,3.8559,3.8624,3.8707,4.3598,4.3598,4.3598,4.3598,4.3598,4.3598,4.3598,4.3598,4.3658,4.3868,4.3335,4.268,4.2026,4.1459,0.0,4.0028,4.0062,4.0096,4.0096,4.0096,4.0096,4.0096,4.0096,3.9893,3.9436,0.0,0.0,3.8717,3.8717,3.8717,3.8717,3.8717,3.8954,3.9394,3.9394,3.9927,4.0802,4.0802,4.1088,4.1486,4.1165,4.0736,4.018,3.959,3.9066,3.8625,3.8317,3.8209,3.8209,3.8209,3.8209,3.8209,3.8209,3.8209,3.8209,3.8209,3.8209,3.8209,3.8209,3.8242,3.8257,3.8257,3.8289,3.812,3.7335,3.6783,3.6216,3.5432,3.525,3.4849,3.3536,3.3299,3.303,3.2197,3.1855,3.1654,3.1592,0.0,0.0,0.0,0.0,0.0,0.0,3.1483,0.0,0.0,0.0,0.0,0.0,0.0,0.0,3.3357,3.428,0.0,3.7738,3.7557,3.7701,3.8209,3.8517,3.8662,3.8662,3.8662,3.8499,3.8209,3.8209,3.8242,3.8307,3.8322,3.8368,3.8483,3.8825,3.8802,3.8648,3.9253,3.9156,3.8744,4.3598,4.3598,0.0,0.0,4.3598,0.0,4.3598,4.3598,4.3641,4.3785,4.3165,4.2432,4.1711,4.1204,4.0676,4.0113,0.0,0.0,0.0,4.0096,4.0096,4.0096,4.0096,4.0096,4.0096,4.0096,4.0096,4.0096,4.0096,4.0096,4.0096,4.0096,4.0096,4.0096,4.0096,4.0377,4.0849,4.0849,4.1139,4.1538,4.0774,4.071,4.0879,3.9324,3.8995,3.9278,3.8499,3.8209,3.8209,3.8209,3.8209,3.8209,3.8209,3.8209,3.8209,3.8209,3.8209,3.8209,3.8209,3.8209,3.8209,3.8209,3.8209,3.8026,3.7328,3.721,3.7038,3.624,3.6058,3.5821,3.5016,3.4816,3.4528,3.3709,3.291,3.2369,3.2284,0.0,0.0,0.0,0.0,0.0,0.0,3.2361,3.2053,0.0,0.0,0.0,0.0,0.0,3.4425,3.352,3.5781,3.7031,3.7085,3.7883,3.8317,3.8372,3.9115,3.9478,3.9478,3.9478,3.9078,3.8372,3.8317,3.8351,3.847,3.8478,3.8574,3.8747,3.963,3.9533,3.9056,4.0545,4.0141,3.8982,0.0,0.0,4.3598,4.3598,4.3598,4.3598,4.3598,4.3598,4.3429,4.2895,4.233,4.1683,4.0933,4.0344,3.994,3.9824,3.9969,4.0096,4.0096,4.0096,4.0096,4.0096,4.0096,4.0096,4.0096,4.0096,4.0096,4.0096,4.0096,4.0096,4.0096,4.0096,4.0096,4.0096,4.0096,4.0563,4.1326,4.1326,4.1807,4.2539,4.2359,4.1985,4.1429,4.0419,3.9788,3.9278,3.8499,3.8209,3.8209,3.8209,3.8209,3.8209,3.8209,3.8209,3.8209,3.8209,3.8209,3.8209,3.8209,3.8209,3.8209,3.8209,3.8209,3.8154,3.7972,3.7952,3.7733,3.6935,3.6753,3.6517,3.5704,3.5051,3.4579,3.4383,3.3702,3.319,3.3136,3.2472,0.0,0.0,3.3502,3.3357,3.3973,3.4027,3.3954,0.0,0.0,0.0,0.0,0.0,3.6417,3.4389,3.6071,3.7285,3.7919,3.8716,3.9405,3.9967,4.0148,4.0256,4.0256,4.0256,4.0148,3.993,3.9351,3.9511,4.0087,3.9534,3.9708,4.0357,4.0677,4.0691,4.0581,4.0948,4.0857,4.0563,4.4042,4.3813,4.3598,4.3598,4.3598,4.3598,4.3598,4.33,4.2936,4.2539,4.1962,4.1288,4.0574,4.0261,3.9983,3.9649,3.9858,4.0011,4.0011,4.0062,4.0096,4.0096,4.0096,4.0096,4.0096,4.0096,4.0096,4.0096,4.0096,4.0096,4.0096,4.0096,4.0096,4.0096,4.0096,4.0507,4.1185,4.141,4.1931,4.2578,4.2408,4.2103,4.1614,4.08,4.0039,3.9333,3.8915,3.8517,3.8263,3.8608,3.8517,3.8317,3.9025,3.9007,3.8808,3.9152,3.8753,3.8209,3.8209,3.8209,3.8299,3.8662,3.848,3.8299,3.8662,3.8752,3.8608,3.8191,3.8355,3.8246,3.7105,3.6544,3.5874,3.4787,3.4256,3.3854,3.3465,3.3368,0.0,3.4498,3.4552,3.4663,3.5098,3.5152,3.5152,3.5152,0.0,0.0,3.5822,3.7323,3.7413,3.5747,3.6904,3.7937,3.8735,3.9514,4.0293,4.1053,4.1053,4.1053,4.1053,4.1053,4.0836,4.0474,4.0093,4.0183,4.058,4.0266,4.0423,4.0911,4.1447,4.1407,4.1187,4.1937,4.1735,4.115,4.4572,4.4125,4.3598,4.3598,4.3598,4.3598,4.3598,4.3069,4.2622,4.2506,4.1943,4.1309,4.0613,4.0558,4.0323,3.9691,3.9761,3.9849,3.9875,3.9986,4.0087,4.0087,4.007,4.0096,4.0096,4.0096,4.0096,4.0096,4.0096,4.0096,4.0096,4.0096,4.0096,4.0096,4.0096,4.0353,4.0825,4.1298,4.1782,4.2185,4.1971,4.1868,4.1777,4.0981,4.0293,3.9731,3.9604,3.9115,3.8662,3.9333,3.9097,3.8771,4.0093,4.0003,3.9514,4.0148,3.9315,3.8227,3.8354,3.839,3.8517,3.9079,3.888,3.8716,3.926,3.9478,3.9568,3.9568,4.0057,4.0075,3.8627,3.8281,3.7522,3.5476,3.495,3.4588,3.4027,0.0,3.4842,3.495,3.5584,3.6021,3.6148,3.6148,3.6202,3.6329,3.6979,0.0,0.0,3.7794,3.8245,3.7557,3.8082,3.8808,3.9731,4.0383,4.1071,4.1868,4.1868,4.1868,4.1868,4.1868,4.1506,4.0872,4.0745,4.0781,4.089,4.0975,4.108,4.128,4.2145,4.2066,4.1627,4.3002,4.2635,4.157,4.4671,4.4125,4.3598,4.3598,4.3598,4.3598,4.3598,4.3499,4.3201,4.2572,4.239,4.2042,4.1326,4.0757,4.0387,4.0271,3.9824,3.9616,3.9729,3.9875,3.9926,3.9926,4.0037,4.0096,4.0096,4.0096,4.0096,4.0096,4.0096,4.0096,4.0096,4.0096,4.0096,4.0096,4.0096,4.0353,4.0825,4.1298,4.1782,4.2239,4.2585,4.2701,4.2629,4.1813,4.1433,4.1252,4.0564,4.0239,4.0166,4.0293,4.0239,4.0166,4.042,4.0003,3.9405,3.9532,3.8933,3.8354,3.9025,3.9206,3.9079,3.8518,3.926,4.0021,3.9514,3.9876,4.0329,4.0329,4.042,4.0256,3.9369,3.8662,3.8082,3.7685,3.6508,3.582,3.6361,0.0,3.5874,3.656,3.6741,3.7085,3.7774,3.7846,3.8101,3.879,3.8952,3.9242,3.9732,4.0021,4.0093,3.9967,3.946,3.9894,4.1325,4.1451,4.1922,4.2701,4.2701,4.2701,4.2701,4.2701,4.2647,4.2502,4.1923,4.2087,4.265,4.2173,4.2388,4.3028,4.3224,4.3239,4.3149,4.3423,4.3332,4.3149,4.5715,4.497,4.4191,4.4191,4.3876,4.3598,4.3598,4.3251,4.2886,4.2539,4.2489,4.2208,4.1491,4.1491,4.1226,4.0475,4.0149,3.9837,3.9501,3.9677,3.9781,3.9781,3.991,4.0037,4.0096,4.0096,4.0096,4.0096,4.0096,4.0096,4.0096,4.0096,4.0229,4.0483,4.0483,4.0754,4.1208,4.1674,4.1994,4.2239,4.2711,4.2901,4.2846,4.2484,4.2067,4.165,4.127,4.0872,4.0564,4.0999,4.0854,4.0637,4.1524,4.127,4.0727,4.1162,3.9821,3.839,3.917,3.9387,3.9514,3.9967,4.0293,4.051,4.0619,4.089,4.1144,4.1144,4.1488,4.156,4.0782,3.9985,3.9315,3.8898,3.7486,0.0,0.0,3.7051,3.7232,3.7611,3.8373,3.9025,3.9405,3.9441,3.9586,3.9967,4.0003,4.0148,4.0474,4.0492,4.0691,4.1126,4.0818,4.0981,4.1687,4.214,4.252,4.2901,4.2901,4.2901,4.2901,4.2901,4.2938,4.2994,4.2686,4.2777,4.3142,4.2921,4.3082,4.3412,4.348,4.3515,4.3515,4.3515,4.3515,4.3515,4.646,4.5582,4.4638,4.4473,4.3992,4.3598,4.3598,4.3118,4.2754,4.2754,4.2754,4.2539,4.196,4.2258,4.2071,4.1034,4.0636,4.0215,3.9661,3.9673,3.9677,3.9651,3.9824,3.9961,4.0113,4.0096,4.0096,4.0096,4.0096,4.0096,4.0096,4.0096,4.0279,4.0652,4.0754,4.0995,4.1388,4.1952,4.2198,4.2239,4.2711,4.2901,4.2901,4.2901,4.252,4.1976,4.1976,4.1578,4.1162,4.1759,4.1578,4.127,4.2502,4.2357,4.1813,4.2448,4.0782,3.8862,3.9496,3.9786,4.0166,4.1162,4.1234,4.1162,4.1596,4.1831,4.1976,4.1976,4.2466,4.2647,4.185,4.1198,4.0583,4.0021,0.0,0.0,0.0,3.8445,3.8717,3.8717,3.9786,4.0564,4.0764,4.0782,4.0854,4.1053,4.1071,4.1071,4.1071,4.1071,4.1325,4.1958,4.1976,4.1976,4.1976,4.2592,4.2901,4.2901,4.2901,4.2901,4.2901,4.2901,4.2975,4.3104,4.3123,4.3178,4.3251,4.3376,4.3411,4.3429,4.348,4.3515,4.3515,4.3515,4.3515,4.3515,4.598,4.5235,4.4473,4.378,4.3631,4.3598,4.3598,4.3549,4.3515,4.3515,4.3515,4.3499,4.3433,4.287,4.2543,4.2603,4.1355,4.0594,4.0689,4.0062,3.9625,3.9528,3.9772,3.9961,4.0113,4.0096,4.0096,4.0096,4.0096,4.0096,4.0096,4.0096,4.0121,4.0171,4.0604,4.0825,4.0919,4.1803,4.2198,4.2239,4.2711,4.2901,4.2901,4.2901,4.2846,4.281,4.281,4.2774,4.2719,4.2792,4.2774,4.2756,4.2846,4.2357,4.1705,4.1759,4.1089,4.0329,4.0401,4.0963,4.1379,4.0745,4.1669,4.2538,4.185,4.2285,4.281,4.281,4.2846,4.2647,4.185,4.165,4.1596,4.1542,0.0,0.0,4.1252,4.0764,4.0329,4.0329,4.042,4.0782,4.1542,4.1614,4.1922,4.2684,4.272,4.272,4.272,4.272,4.2737,4.281,4.281,4.281,4.281,4.2883,4.2901,4.2901,4.2901,4.2901,4.2901,4.2901,4.2975,4.3104,4.3178,4.3269,4.3394,4.3463,4.3497,4.3497,4.3497,4.3515,4.3515,4.3515,4.3515,4.3515,4.7123,4.6195,4.5284,4.5019,4.4194,4.3598,4.3598,4.3598,4.3598,4.3598,4.3598,4.3598,4.3598,4.335,4.3032,4.2655,4.181,4.11,4.0698,4.007,3.9677,3.9642,3.9798,3.991,3.9961,4.0062,4.0096,4.0096,4.0096,4.0096,4.0096,4.0096,4.0271,4.0556,4.1024,4.1388,4.1717,4.2358,4.2634,4.2653,4.2825,4.2901,4.2901,4.2901,4.2901,4.2901,4.2901,4.2901,4.2901,4.2901,4.2901,4.2901,4.2901,4.2683,4.2448,4.2448,4.223,4.1995,4.1995,4.185,4.1741,4.194,4.2448,4.2829,4.2502,4.2683,4.2901,4.2901,4.2901,4.281,4.2502,4.2049,4.185,4.2357,0.0,4.0782,4.1596,4.1433,4.1234,4.1234,4.1687,4.2103,4.2411,4.2448,4.2574,4.2883,4.2901,4.2901,4.2901,4.2901,4.2901,4.2901,4.2901,4.2901,4.2901,4.2901,4.2901,4.2901,4.2901,4.2901,4.2901,4.2901,4.2975,4.3104,4.316,4.3287,4.3412,4.3463,4.3515,4.3515,4.3515,4.3515,4.3515,4.3515,4.3515,4.3515,4.7603,4.6643,4.5715,4.5483,4.444,4.3598,4.3598,4.3598,4.3628,4.3704,4.3628,4.3628,4.3687,4.3628,4.3429,4.2974,4.2221,4.1582,4.1103,4.0282,3.9807,3.9755,3.9833,3.9926,3.9961,4.0062,4.0096,4.0096,4.0096,4.0096,4.0096,4.0096,4.0254,4.0604,4.1071,4.1543,4.1994,4.2478,4.2768,4.2901,4.2901,4.2901,4.2901,4.2901,4.2901,4.2901,4.2901,4.2901,4.2901,4.2901,4.2901,4.2901,4.2901,4.2901,4.2901,4.2901,4.2901,4.2901,4.2901,4.2502,4.2212,4.2755,4.2901,4.2901,4.2901,4.2901,4.2901,4.2901,4.2901,4.2901,4.2901,4.2448,4.2266,4.281,4.1959,4.1452,4.2013,4.2067,4.2067,4.2067,4.2556,4.2901,4.2901,4.2901,4.2901,4.2901,4.2901,4.2901,4.2901,4.2901,4.2901,4.2901,4.2901,4.2901,4.2901,4.2901,4.2901,4.2901,4.2901,4.2901,4.2901,4.2901,4.2975,4.3104,4.316,4.3287,4.3412,4.3463,4.3515,4.3515,4.3515,4.3515,4.3515,4.3515,4.3515,4.3515,4.7057,4.6311,4.5566,4.4821,4.4108,4.3598,4.3598,4.3598,4.3658,4.3868,4.3734,4.3687,4.3868,4.3717,4.3687,4.3898,4.269,4.1959,4.2088,4.0822,4.0037,3.9901,3.9901,3.9961,4.0113,4.0096,4.0096,4.0096,4.0096,4.0096,4.0096,4.0096,4.0096,4.0121,4.0604,4.1065,4.1525,4.1994,4.2458,4.2882,4.2901,4.2901,4.2901,4.2901,4.2901,4.2901,4.2901,4.2901,4.2901,4.2901,4.2901,4.2901,4.2901,4.2901,4.2901,4.2901,4.2901,4.2901,4.2901,4.2901,4.2901,4.2901,4.2901,4.2901,4.2901,4.2901,4.2901,4.2901,4.2901,4.2901,4.2901,4.2901,4.2901,4.2901,4.2901,4.2901,4.2901,4.2901,4.2901,4.2901,4.2901,4.2901,4.2901,4.2901,4.2901,4.2901,4.2901,4.2901,4.2901,4.2901,4.2901,4.2901,4.2901,4.2901,4.2901,4.2901,4.2901,4.2901,4.2901,4.2901,4.2901,4.2901,4.2975,4.3104,4.316,4.3287,4.3394,4.3463,4.3515,4.3515,4.3515,4.3515,4.3515,4.3515,4.3515,4.3515,4.7719,4.7073,4.6328,4.5582,4.4854,4.4208,4.3664,4.3598,4.3658,4.3868,4.3868,4.3852,4.4027,4.3981,4.3998,4.4027,4.3283,4.2431,4.1531,4.0612,4.0087,4.0037,4.0037,4.0011,3.9961,4.0062,4.0096,4.0096,4.0096,4.0096,4.0096,4.0096,4.0096,4.0121,4.0604,4.0896,4.1065,4.1846,4.2297,4.2438,4.2768,4.2901,4.2901,4.2901,4.2901,4.2901,4.2901,4.2901,4.2901,4.2901,4.2901,4.2901,4.2901,4.2901,4.2901,4.2901,4.2901,4.2901,4.2901,4.2901,4.2901,4.2901,4.2901,4.2901,4.2901,4.2901,4.2901,4.2901,4.2901,4.2901,4.2901,4.2901,4.2901,4.2901,4.2901,4.2901,4.2901,4.2901,4.2901,4.2901,4.2901,4.2901,4.2901,4.2901,4.2901,4.2901,4.2901,4.2901,4.2901,4.2901,4.2901,4.2901,4.2901,4.2901,4.2901,4.2901,4.2901,4.2901,4.2901,4.2901,4.2901,4.2901,4.2919,4.2975,4.3123,4.3233,4.3269,4.3445,4.3515,4.3515,4.3515,4.3515,4.3515,4.3515,4.3515,4.3515,4.8001,4.7404,4.6758,4.6311,4.5367,4.4539,4.4108,4.378,4.3687,4.3939,4.3927,4.3969,4.4155,4.4126,4.4097,4.4097,4.3541,4.2766,4.1711,4.0933,4.0527,4.0527,4.0265,4.0062,3.9986,4.0062,4.0096,4.0096,4.0096,4.0196,4.0377,4.0377,4.0483,4.0659,4.0754,4.0902,4.1116,4.1696,4.2032,4.2239,4.2711,4.2901,4.2901,4.2901,4.2901,4.2901,4.2901,4.2901,4.2901,4.2901,4.2901,4.2901,4.2901,4.2901,4.2901,4.2901,4.2901,4.2901,4.2901,4.2901,4.2901,4.2901,4.2901,4.2901,4.2901,4.2901,4.2901,4.2901,4.2901,4.2901,4.2901,4.2901,4.2901,4.2901,4.2901,4.2901,4.2901,4.2901,4.2901,4.2901,4.2901,4.2901,4.2901,4.2901,4.2901,4.2901,4.2901,4.2901,4.2901,4.2901,4.2901,4.2901,4.2901,4.2901,4.2901,4.2901,4.2901,4.2901,4.2901,4.2901,4.2901,4.2901,4.2901,4.2901,4.3105,4.3214,4.3233,4.3428,4.3515,4.3515,4.3515,4.3515,4.3515,4.3515,4.3515,4.3515,4.8001,4.7454,4.7006,4.6939,4.5763,4.4785,4.4735,4.4092,4.3717,4.4039,4.3969,4.4027,4.4281,4.4212,4.4126,4.4126,4.3569,4.2968,4.2439,4.1644,4.1204,4.1204,4.0476,4.0096,4.0096,4.0096,4.0096,4.0096,4.0096,4.0328,4.0731,4.0778,4.1042,4.1415,4.1042,4.1094,4.1503,4.1547,4.1803,4.2239,4.2711,4.2901,4.2901,4.2901,4.2901,4.2901,4.2901,4.2901,4.2901,4.2901,4.2901,4.2901,4.2901,4.2901,4.2901,4.2901,4.2901,4.2901,4.2901,4.2901,4.2901,4.2901,4.2901,4.2919,4.2992,4.2955,4.2955,4.3063,4.301,4.2919,4.2992,4.2955,4.2901,4.2901,4.2901,4.2901,4.2901,4.2901,4.2901,4.2901,4.2901,4.2901,4.2901,4.2973,4.2992,4.2919,4.2973,4.2992,4.2901,4.2901,4.2901,4.2901,4.2901,4.2901,4.2901,4.2901,4.2901,4.2901,4.2901,4.2901,4.2901,4.2901,4.2901,4.2901,4.3105,4.3214,4.3233,4.3428,4.3515,4.3515,4.3515,4.3515,4.3515,4.3515,4.3515,4.3496,4.8001,4.7966,4.7764,4.7215,4.6398,4.5599,4.5016,4.4182,4.3687,4.391,4.3998,4.4126,4.4281,4.4412,4.4485,4.4485,4.3793,4.3297,4.3156,4.1931,4.1204,4.1204,4.0476,4.0096,4.0096,4.0096,4.0096,4.0096,4.0096,4.0146,4.0254,4.0628,4.0832,4.0972,4.123,4.1393,4.1525,4.1888,4.2115,4.2239,4.2711,4.2901,4.2901,4.2901,4.2901,4.2901,4.2901,4.2901,4.2901,4.2901,4.2901,4.2901,4.2901,4.2901,4.2901,4.2901,4.2901,4.2901,4.2901,4.2901,4.2901,4.2901,4.2901,4.3082,4.3697,4.3335,4.3263,4.4512,4.3769,4.31,4.3715,4.3317,4.2901,4.2901,4.2901,4.2901,4.2901,4.2901,4.2901,4.2901,4.2901,4.2901,4.2901,4.3462,4.357,4.2955,4.3462,4.3552,4.2937,4.2901,4.2901,4.2901,4.2901,4.2901,4.2901,4.2901,4.2901,4.2901,4.2901,4.2901,4.2901,4.2901,4.2901,4.2901,4.3105,4.3214,4.3233,4.3428,4.3515,4.3515,4.3515,4.3515,4.3515,4.3515,4.3515,4.3549,4.8001,4.8115,4.8079,4.7744,4.7141,4.6469,4.5748,4.4907,4.4306,4.4118,4.4155,4.427,4.444,4.4542,4.4615,4.4615,4.4215,4.3978,4.3978,4.2895,4.2269,4.2269,4.1204,4.0612,4.0612,4.0282,4.0096,4.0096,4.0096,4.0328,4.0761,4.1024,4.1366,4.1803,4.1825,4.1846,4.1846,4.2095,4.2198,4.2239,4.2711,4.2901,4.2901,4.2901,4.2901,4.2901,4.2901,4.2901,4.2901,4.2901,4.2901,4.2901,4.2901,4.2901,4.2901,4.2901,4.2901,4.2992,4.3371,4.3191,4.3063,4.3842,4.3751,4.357,4.3987,4.3769,4.3806,4.5037,4.4621,4.4168,4.4584,4.4331,4.3914,4.3516,4.3788,4.3769,4.301,4.3226,4.3462,4.3462,4.3118,4.2901,4.2901,4.3625,4.3914,4.3498,4.4222,4.4313,4.3516,4.3824,4.3679,4.2919,4.3262,4.33,4.2901,4.2901,4.2901,4.2901,4.2901,4.2938,4.2994,4.2994,4.3012,4.305,4.3214,4.3305,4.3323,4.3445,4.3515,4.3515,4.3515,4.3515,4.3515,4.3515,4.3515,4.3565,4.8001,4.8115,4.8195,4.826,4.7786,4.7194,4.6636,4.5768,4.501,4.4505,4.4349,4.4367,4.4542,4.457,4.4615,4.4615,4.4615,4.4615,4.4615,4.3859,4.3392,4.3392,4.2117,4.139,4.139,4.0807,4.035,4.0096,4.0096,4.0507,4.1258,4.1415,4.1931,4.2653,4.2418,4.2318,4.2318,4.2318,4.2318,4.2358,4.2731,4.2901,4.2901,4.2901,4.2901,4.2901,4.2901,4.2992,4.3118,4.3118,4.3209,4.3318,4.3318,4.3227,4.3118,4.3281,4.3227,4.3262,4.4077,4.3806,4.3625,4.4965,4.4802,4.4331,4.4476,4.4403,4.4566,4.5526,4.549,4.5345,4.5472,4.5399,4.5073,4.4403,4.4856,4.4838,4.3498,4.3878,4.4313,4.4313,4.3715,4.3318,4.3318,4.4023,4.444,4.4313,4.5055,4.5091,4.415,4.4729,4.4421,4.2955,4.3534,4.357,4.2919,4.2901,4.2901,4.2901,4.2919,4.2994,4.3104,4.3104,4.3142,4.3214,4.334,4.3394,4.3412,4.3463,4.3515,4.3515,4.3515,4.3515,4.3515,4.3515,4.3549,4.3664,4.8001,4.8115,4.826,4.842,4.7849,4.744,4.7494,4.6193,4.5165,4.5094,4.4611,4.431,4.4338,4.4514,4.4615,4.4615,4.4615,4.4615,4.4615,4.3859,4.3392,4.3392,4.2608,4.2151,4.2151,4.2049,4.1382,4.0096,4.0096,4.0171,4.0303,4.1116,4.1569,4.1721,4.2478,4.2806,4.2806,4.2806,4.2806,4.2806,4.2863,4.2901,4.2901,4.2901,4.2901,4.2901,4.2901,4.3335,4.3932,4.3932,4.4403,4.4983,4.4983,4.4494,4.4059,4.4765,4.4476,4.4114,4.491,4.5055,4.5037,4.5254,4.5218,4.5327,4.6015,4.5635,4.5562,4.7083,4.6269,4.5508,4.6214,4.578,4.5254,4.5164,4.5236,4.5218,4.5001,4.5073,4.5146,4.5146,4.5037,4.4983,4.4983,4.5707,4.5888,4.5182,4.5888,4.5689,4.4168,4.4186,4.3824,4.2937,4.301,4.3009,4.2901,4.2901,4.2901,4.2901,4.303,4.3086,4.3104,4.3104,4.3142,4.3214,4.334,4.3394,4.3412,4.3463,4.3515,4.3515,4.3515,4.3515,4.3515,4.3515,4.3682,4.3971,4.8001,4.8115,4.826,4.8452,4.8327,4.8085,4.7848,4.7194,4.6544,4.617,4.5845,4.5549,4.5115,4.5167,4.5213,4.5213,4.5213,4.5026,4.4632,4.4265,4.4062,4.4062,4.3335,4.2912,4.2912,4.2506,4.1965,4.1348,4.0916,4.0629,4.0507,4.0926,4.1388,4.1909,4.232,4.2653,4.2901,4.2901,4.2901,4.2901,4.2901,4.2901,4.2901,4.2901,4.3172,4.3625,4.4077,4.4458,4.4765,4.4765,4.5001,4.5291,4.5291,4.5055,4.4838,4.52,4.5055,4.4947,4.5743,4.5635,4.5526,4.6432,4.6305,4.6178,4.6993,4.6902,4.6848,4.7554,4.7138,4.6757,4.7102,4.6884,4.6504,4.6051,4.6359,4.6341,4.5436,4.5689,4.5798,4.5345,4.5707,4.5798,4.5345,4.6033,4.6359,4.5997,4.6721,4.6667,4.549,4.587,4.5327,4.3607,4.4005,4.3806,4.2919,4.2901,4.2901,4.2901,4.303,4.3123,4.316,4.3233,4.3305,4.3375,4.3428,4.3464,4.3464,4.3497,4.3515,4.3515,4.3515,4.3515,4.3515,4.3515,4.3716,4.4033]}]]